[[{"header":{"parameterUnit":"m.s-1","parameterCategory":1,"la1":30.6,"la2":28.766,"lo1":-90.7593,"lo2":-88.6598,"dx":0.0162,"dy":0.0183,"nx":116,"ny":114,"refTime":"2022-12-08T18:00:00:Z","depth":0,"parameterNumber":2,"parameterNumberName":"U-component_of_WINDS"},"data":[0.0,0.0,0.0,0.0,0.0,0.0,0.0,0.0,0.0,0.0,0.0,0.0,0.0,0.0,0.0,0.0,0.0,0.0,0.0,0.0,0.0,0.0,0.0,0.0,0.0,0.0,0.0,0.0,0.0,0.0,0.0,0.0,0.0,0.0,0.0,0.0,0.0,0.0,0.0,0.0,0.0,0.0,0.0,0.0,0.0,0.0,0.0,0.0,0.0,0.0,0.0,0.0,0.0,0.0,0.0,0.0,0.0,0.0,0.0,0.0,0.0,0.0,0.0,0.0,0.0,0.0,0.0,0.0,0.0,0.0,0.0,0.0,0.0,0.0,0.0,0.0,0.0,0.0,0.0,0.0,0.0,0.0,0.0,0.0,0.0,0.0,0.0,0.0,0.0,0.0,0.0,0.0,0.0,0.0,0.0,0.0,0.0,0.0,0.0,0.0,0.0,0.0,0.0,0.0,0.0,0.0,0.0,0.0,0.0,0.0,0.0,0.0,0.0,0.0,0.0,0.0,0.0,0.0,0.0,0.0,0.0,0.0,0.0,0.0,0.0,0.0,0.0,0.0,0.0,0.0,0.0,0.0,0.0,0.0,0.0,0.0,0.0,0.0,0.0,0.0,0.0,0.0,0.0,0.0,0.0,0.0,0.0,0.0,0.0,0.0,0.0,0.0,0.0,0.0,0.0,0.0,0.0,0.0,0.0,0.0,0.0,0.0,0.0,0.0,0.0,0.0,0.0,0.0,0.0,0.0,0.0,0.0,0.0,0.0,0.0,0.0,0.0,0.0,0.0,0.0,0.0,0.0,0.0,0.0,0.0,0.0,0.0,0.0,0.0,0.0,0.0,0.0,0.0,0.0,0.0,0.0,0.0,0.0,0.0,0.0,0.0,0.0,0.0,0.0,0.0,0.0,0.0,0.0,0.0,0.0,0.0,0.0,0.0,0.0,0.0,0.0,0.0,0.0,0.0,0.0,0.0,0.0,0.0,0.0,0.0,0.0,0.0,0.0,0.0,0.0,0.0,0.0,0.0,0.0,0.0,0.0,0.0,0.0,0.0,0.0,0.0,0.0,0.0,0.0,0.0,0.0,0.0,0.0,0.0,0.0,0.0,0.0,0.0,0.0,0.0,0.0,0.0,0.0,0.0,0.0,0.0,0.0,0.0,0.0,0.0,0.0,0.0,0.0,0.0,0.0,0.0,0.0,0.0,0.0,0.0,0.0,0.0,0.0,0.0,0.0,0.0,0.0,0.0,0.0,0.0,0.0,0.0,0.0,0.0,0.0,0.0,0.0,0.0,0.0,0.0,0.0,0.0,0.0,0.0,0.0,0.0,0.0,0.0,0.0,0.0,0.0,0.0,0.0,0.0,0.0,0.0,0.0,0.0,0.0,0.0,0.0,0.0,0.0,0.0,0.0,0.0,0.0,0.0,0.0,0.0,0.0,0.0,0.0,0.0,0.0,0.0,0.0,0.0,0.0,0.0,0.0,0.0,0.0,0.0,0.0,0.0,0.0,0.0,0.0,0.0,0.0,0.0,0.0,0.0,0.0,0.0,0.0,0.0,0.0,0.0,0.0,0.0,0.0,0.0,0.0,0.0,0.0,0.0,0.0,0.0,0.0,0.0,0.0,0.0,0.0,0.0,0.0,0.0,0.0,0.0,0.0,0.0,0.0,0.0,0.0,0.0,0.0,0.0,0.0,0.0,0.0,0.0,0.0,0.0,0.0,0.0,0.0,0.0,0.0,0.0,0.0,0.0,0.0,0.0,0.0,0.0,0.0,0.0,0.0,0.0,0.0,0.0,0.0,0.0,0.0,0.0,0.0,0.0,0.0,0.0,0.0,0.0,0.0,0.0,0.0,0.0,0.0,0.0,0.0,0.0,0.0,0.0,0.0,0.0,0.0,0.0,0.0,0.0,0.0,0.0,0.0,0.0,0.0,0.0,0.0,0.0,0.0,0.0,0.0,0.0,0.0,0.0,0.0,0.0,0.0,0.0,0.0,0.0,0.0,0.0,0.0,0.0,0.0,0.0,0.0,0.0,0.0,0.0,0.0,0.0,0.0,0.0,0.0,0.0,0.0,0.0,0.0,0.0,0.0,0.0,0.0,0.0,0.0,0.0,0.0,0.0,0.0,0.0,0.0,0.0,0.0,0.0,0.0,0.0,0.0,0.0,0.0,0.0,0.0,0.0,0.0,0.0,0.0,0.0,0.0,0.0,0.0,0.0,0.0,0.0,0.0,0.0,0.0,0.0,0.0,0.0,0.0,0.0,0.0,0.0,0.0,0.0,0.0,0.0,0.0,0.0,0.0,0.0,0.0,0.0,0.0,0.0,0.0,0.0,0.0,0.0,0.0,0.0,0.0,0.0,0.0,0.0,0.0,0.0,0.0,0.0,0.0,0.0,0.0,0.0,0.0,0.0,0.0,0.0,0.0,0.0,0.0,0.0,0.0,0.0,0.0,0.0,0.0,0.0,0.0,0.0,0.0,0.0,0.0,0.0,0.0,0.0,0.0,0.0,0.0,0.0,0.0,0.0,0.0,0.0,0.0,0.0,0.0,0.0,0.0,0.0,0.0,0.0,0.0,0.0,0.0,0.0,0.0,0.0,0.0,0.0,0.0,0.0,0.0,0.0,0.0,0.0,0.0,0.0,0.0,0.0,0.0,0.0,0.0,0.0,0.0,0.0,0.0,0.0,0.0,0.0,0.0,0.0,0.0,0.0,0.0,0.0,0.0,0.0,0.0,0.0,0.0,0.0,0.0,0.0,0.0,0.0,0.0,0.0,0.0,0.0,0.0,0.0,0.0,0.0,0.0,0.0,0.0,0.0,0.0,0.0,0.0,0.0,0.0,0.0,0.0,0.0,0.0,0.0,0.0,0.0,0.0,0.0,0.0,0.0,0.0,0.0,0.0,0.0,0.0,0.0,0.0,0.0,0.0,0.0,0.0,0.0,0.0,0.0,0.0,0.0,0.0,0.0,0.0,0.0,0.0,0.0,0.0,0.0,0.0,0.0,0.0,0.0,0.0,0.0,0.0,0.0,0.0,0.0,0.0,0.0,0.0,0.0,0.0,0.0,0.0,0.0,0.0,0.0,0.0,0.0,0.0,0.0,0.0,0.0,0.0,0.0,0.0,0.0,0.0,0.0,0.0,0.0,0.0,0.0,0.0,0.0,0.0,0.0,0.0,0.0,0.0,0.0,0.0,0.0,0.0,0.0,0.0,0.0,0.0,0.0,0.0,0.0,0.0,0.0,0.0,0.0,0.0,0.0,0.0,0.0,0.0,0.0,0.0,0.0,0.0,0.0,0.0,0.0,0.0,0.0,0.0,0.0,0.0,0.0,0.0,0.0,0.0,0.0,0.0,0.0,0.0,0.0,0.0,0.0,0.0,0.0,0.0,0.0,0.0,0.0,0.0,0.0,0.0,0.0,0.0,0.0,0.0,0.0,0.0,0.0,0.0,0.0,0.0,0.0,0.0,0.0,0.0,0.0,0.0,0.0,0.0,0.0,0.0,0.0,0.0,0.0,0.0,0.0,0.0,0.0,0.0,0.0,0.0,0.0,0.0,0.0,0.0,0.0,0.0,0.0,0.0,0.0,0.0,0.0,0.0,0.0,0.0,0.0,0.0,0.0,0.0,0.0,0.0,0.0,0.0,0.0,0.0,0.0,0.0,0.0,0.0,0.0,0.0,0.0,0.0,0.0,0.0,0.0,0.0,0.0,0.0,0.0,0.0,0.0,0.0,0.0,0.0,0.0,0.0,0.0,0.0,0.0,0.0,0.0,0.0,0.0,0.0,0.0,0.0,0.0,0.0,0.0,0.0,0.0,0.0,0.0,0.0,0.0,0.0,0.0,0.0,0.0,0.0,0.0,0.0,0.0,0.0,0.0,0.0,0.0,0.0,0.0,0.0,0.0,0.0,0.0,0.0,0.0,0.0,0.0,0.0,0.0,0.0,0.0,0.0,0.0,0.0,0.0,0.0,0.0,0.0,0.0,0.0,0.0,0.0,0.0,0.0,0.0,0.0,0.0,0.0,0.0,0.0,0.0,0.0,0.0,0.0,0.0,0.0,0.0,0.0,0.0,0.0,0.0,0.0,0.0,0.0,0.0,0.0,0.0,0.0,0.0,0.0,0.0,0.0,0.0,0.0,0.0,0.0,0.0,0.0,0.0,0.0,0.0,0.0,0.0,0.0,0.0,0.0,0.0,0.0,0.0,0.0,0.0,0.0,0.0,0.0,0.0,0.0,0.0,0.0,0.0,0.0,0.0,0.0,0.0,0.0,0.0,0.0,0.0,0.0,0.0,0.0,0.0,0.0,0.0,0.0,0.0,0.0,0.0,0.0,0.0,0.0,0.0,0.0,0.0,0.0,0.0,0.0,0.0,0.0,0.0,0.0,0.0,0.0,0.0,0.0,0.0,0.0,0.0,0.0,0.0,0.0,0.0,0.0,0.0,0.0,0.0,0.0,0.0,0.0,0.0,0.0,0.0,0.0,0.0,0.0,0.0,0.0,0.0,0.0,0.0,0.0,0.0,0.0,0.0,0.0,0.0,0.0,0.0,0.0,0.0,0.0,0.0,0.0,0.0,0.0,0.0,0.0,0.0,0.0,0.0,0.0,0.0,0.0,0.0,0.0,0.0,0.0,0.0,0.0,0.0,0.0,0.0,0.0,0.0,0.0,0.0,0.0,0.0,0.0,0.0,0.0,0.0,0.0,0.0,0.0,0.0,0.0,0.0,0.0,0.0,0.0,0.0,0.0,0.0,0.0,0.0,0.0,0.0,0.0,0.0,0.0,0.0,0.0,0.0,0.0,0.0,0.0,0.0,0.0,0.0,0.0,0.0,0.0,0.0,0.0,0.0,0.0,0.0,0.0,0.0,0.0,0.0,0.0,0.0,0.0,0.0,0.0,0.0,0.0,0.0,0.0,0.0,0.0,0.0,0.0,0.0,0.0,0.0,0.0,0.0,0.0,0.0,0.0,0.0,0.0,0.0,0.0,0.0,0.0,0.0,0.0,0.0,0.0,0.0,0.0,0.0,0.0,0.0,0.0,0.0,0.0,0.0,0.0,0.0,0.0,0.0,0.0,0.0,0.0,0.0,0.0,0.0,0.0,0.0,0.0,0.0,0.0,0.0,0.0,0.0,0.0,0.0,0.0,0.0,0.0,0.0,0.0,0.0,0.0,0.0,0.0,0.0,0.0,0.0,0.0,0.0,0.0,0.0,0.0,0.0,0.0,0.0,0.0,0.0,0.0,0.0,0.0,0.0,0.0,0.0,0.0,0.0,0.0,0.0,0.0,0.0,0.0,0.0,0.0,0.0,0.0,0.0,0.0,0.0,0.0,0.0,0.0,0.0,0.0,0.0,0.0,0.0,0.0,0.0,0.0,0.0,0.0,0.0,0.0,0.0,0.0,0.0,0.0,0.0,0.0,0.0,0.0,0.0,0.0,0.0,0.0,0.0,0.0,0.0,0.0,0.0,0.0,0.0,0.0,0.0,0.0,0.0,0.0,0.0,0.0,0.0,0.0,0.0,0.0,0.0,0.0,0.0,0.0,0.0,0.0,0.0,0.0,0.0,0.0,0.0,0.0,0.0,0.0,0.0,0.0,0.0,0.0,0.0,0.0,0.0,0.0,0.0,0.0,0.0,0.0,0.0,0.0,0.0,0.0,0.0,0.0,0.0,0.0,0.0,0.0,0.0,0.0,0.0,0.0,0.0,0.0,0.0,0.0,0.0,0.0,0.0,0.0,0.0,0.0,0.0,0.0,0.0,0.0,0.0,0.0,0.0,0.0,0.0,0.0,0.0,0.0,0.0,0.0,0.0,0.0,0.0,0.0,0.0,0.0,0.0,0.0,0.0,0.0,0.0,0.0,0.0,0.0,0.0,0.0,0.0,0.0,0.0,0.0,0.0,0.0,0.0,0.0,0.0,0.0,0.0,0.0,0.0,0.0,0.0,0.0,0.0,0.0,0.0,0.0,0.0,0.0,0.0,0.0,0.0,0.0,0.0,0.0,0.0,0.0,0.0,0.0,0.0,0.0,0.0,0.0,0.0,0.0,0.0,0.0,0.0,0.0,0.0,0.0,0.0,0.0,0.0,0.0,-1.8706,0.0,0.0,0.0,0.0,0.0,0.0,0.0,0.0,0.0,0.0,0.0,0.0,0.0,0.0,0.0,0.0,0.0,0.0,0.0,0.0,0.0,0.0,0.0,0.0,-0.8541,-0.8468,-0.8061,-0.839,0.0,0.0,0.0,0.0,0.0,0.0,0.0,0.0,0.0,-0.884,-0.9672,-1.1009,-1.2641,-1.4459,-1.3043,-1.1982,-1.1185,0.0,0.0,0.0,0.0,0.0,0.0,0.0,0.0,0.0,0.0,0.0,0.0,0.0,0.0,0.0,0.0,0.0,0.0,0.0,0.0,0.0,0.0,0.0,0.0,0.0,0.0,0.0,0.0,0.0,0.0,0.0,0.0,0.0,0.0,0.0,0.0,0.0,0.0,0.0,0.0,0.0,0.0,0.0,0.0,0.0,0.0,0.0,0.0,0.0,0.0,0.0,0.0,0.0,0.0,0.0,0.0,0.0,0.0,0.0,0.0,0.0,0.0,0.0,0.0,0.0,0.0,0.0,0.0,0.0,0.0,0.0,-1.8774,0.0,0.0,0.0,0.0,0.0,0.0,0.0,0.0,0.0,0.0,0.0,0.0,0.0,0.0,0.0,0.0,0.0,0.0,0.0,0.0,0.0,-0.8846,-0.9054,-0.9431,-0.9526,-0.916,-0.9463,-0.931,-0.8454,-0.8287,0.0,0.0,0.0,0.0,-0.7979,-0.845,-0.937,-1.0758,-1.3217,-1.5156,-1.6582,-1.6052,-1.5257,-1.4194,-1.2536,0.0,0.0,0.0,0.0,0.0,0.0,0.0,0.0,0.0,0.0,0.0,0.0,0.0,0.0,0.0,0.0,0.0,0.0,0.0,0.0,0.0,0.0,0.0,0.0,0.0,0.0,0.0,0.0,0.0,0.0,0.0,0.0,0.0,0.0,0.0,0.0,0.0,0.0,0.0,0.0,0.0,0.0,0.0,0.0,0.0,0.0,0.0,0.0,0.0,0.0,0.0,0.0,0.0,0.0,0.0,0.0,0.0,0.0,0.0,0.0,0.0,0.0,0.0,-2.2082,-2.2197,-2.1738,-2.1927,-2.2048,-2.1989,-2.0404,-1.9563,-1.9202,-1.8101,0.0,0.0,0.0,0.0,0.0,0.0,0.0,0.0,0.0,0.0,0.0,0.0,0.0,0.0,0.0,0.0,0.0,0.0,0.0,-0.9265,-1.0095,-1.0309,-1.0588,-1.1162,-1.0685,-1.0127,-0.9609,-0.8977,0.0,0.0,0.0,-0.8406,-0.866,-0.8909,-0.995,-1.1802,-1.5174,-1.7018,-1.737,-1.7969,-1.8184,-1.7968,-1.5326,-1.3705,-1.2839,0.0,0.0,0.0,0.0,0.0,0.0,0.0,0.0,0.0,0.0,0.0,0.0,0.0,0.0,0.0,0.0,0.0,0.0,0.0,0.0,0.0,0.0,0.0,0.0,0.0,0.0,0.0,0.0,0.0,0.0,0.0,0.0,0.0,0.0,0.0,0.0,0.0,0.0,0.0,0.0,0.0,-2.2987,-2.24,0.0,0.0,0.0,0.0,0.0,0.0,0.0,0.0,0.0,0.0,0.0,0.0,0.0,-2.207,-2.199,-2.169,-2.1462,-2.1308,-2.223,-2.21,-2.1085,-2.212,-2.2073,-2.1117,-1.9956,0.0,-1.9236,-1.8215,0.0,0.0,0.0,0.0,0.0,0.0,0.0,0.0,0.0,0.0,0.0,0.0,0.0,0.0,0.0,0.0,0.0,0.0,0.0,0.0,0.0,-1.209,-1.2912,-1.2728,-1.3635,-1.3178,-1.0746,-1.0322,0.0,0.0,-0.8367,-0.8634,-0.8904,-1.002,-1.2277,-1.5659,-1.7213,-1.8558,-1.9682,-1.9541,-1.9555,-1.9641,-1.8285,-1.679,-1.5178,-1.3457,0.0,0.0,0.0,0.0,0.0,0.0,0.0,0.0,0.0,0.0,0.0,0.0,0.0,0.0,0.0,0.0,0.0,0.0,0.0,0.0,0.0,0.0,0.0,0.0,0.0,0.0,0.0,0.0,0.0,0.0,0.0,0.0,0.0,0.0,0.0,0.0,0.0,0.0,0.0,-2.2021,-2.3434,-2.2068,-2.2553,-2.2144,0.0,0.0,0.0,0.0,0.0,0.0,0.0,0.0,0.0,-2.1004,-2.1309,-2.1339,-2.1108,-2.1332,-2.1236,-2.0859,-2.169,-2.1814,-2.1292,-2.1837,-2.1649,-2.0829,-1.9559,-1.8553,-1.7789,-1.713,-1.6189,-1.5183,0.0,0.0,0.0,0.0,-1.5038,-1.5128,0.0,0.0,0.0,0.0,0.0,0.0,0.0,0.0,0.0,0.0,0.0,0.0,-1.1633,-1.3874,-1.5111,-1.466,-1.5967,-1.5421,-1.2121,-1.1571,-1.0522,-0.8671,-0.8693,-0.8872,-0.9148,-1.1295,-1.4238,-1.7941,-1.8399,-1.939,-2.0872,-2.0304,-2.0161,-2.037,-2.018,-1.9121,-1.7355,-1.5463,-1.387,-1.2422,0.0,0.0,0.0,0.0,0.0,0.0,0.0,0.0,0.0,0.0,0.0,0.0,0.0,0.0,0.0,0.0,0.0,0.0,0.0,0.0,0.0,0.0,0.0,0.0,0.0,0.0,0.0,0.0,0.0,0.0,0.0,0.0,0.0,0.0,0.0,0.0,0.0,-2.3005,-2.3899,-2.2216,-2.3277,-2.3065,0.0,0.0,0.0,0.0,0.0,0.0,-2.0831,-2.1124,-2.1217,-2.1004,-2.1017,-2.0902,-2.0654,-2.1004,-2.0888,-2.0373,-2.0845,-2.0891,-2.06,-2.0747,-2.0409,-1.9662,-1.8574,-1.7292,-1.6029,-1.6064,-1.5527,-1.4651,-1.4648,-1.4485,-1.4294,-1.4512,-1.4566,-1.4615,0.0,0.0,0.0,0.0,0.0,0.0,0.0,0.0,0.0,0.0,0.0,-1.2634,-1.3646,-1.5343,-1.668,-1.7334,-1.6573,-1.5424,-1.3955,-1.2375,-1.1021,-0.9958,-0.9428,-0.9287,-0.9568,-1.2525,-1.4847,-1.6419,-1.8125,-1.9151,-1.95,-1.9777,-2.0057,-2.0297,-2.015,-1.9729,-1.8964,-1.7022,-1.5644,-1.446,-1.1266,0.0,0.0,0.0,0.0,0.0,0.0,0.0,0.0,0.0,0.0,0.0,0.0,0.0,0.0,0.0,0.0,0.0,0.0,0.0,0.0,0.0,0.0,0.0,0.0,0.0,0.0,0.0,0.0,0.0,0.0,0.0,0.0,0.0,0.0,0.0,0.0,0.0,0.0,-2.4161,-2.4593,0.0,0.0,0.0,0.0,-1.9984,-2.0208,-2.0342,-2.0345,-2.0939,-2.1217,-2.1004,-2.1432,-2.1566,-2.1351,-2.0806,-2.0373,-2.0016,-1.9746,-1.901,-1.7925,-1.8477,-1.8023,-1.6705,-1.6508,-1.5591,-1.4313,-1.5496,-1.5115,-1.3855,-1.4651,-1.4405,-1.3684,-1.4623,-1.476,-1.461,0.0,0.0,0.0,-0.7073,-0.7377,-0.7797,-0.8144,-0.8621,-0.9055,-0.9363,-1.1147,-1.2773,-1.3798,-1.6381,-1.8182,-1.852,-1.9633,-1.9054,-1.6063,-1.4864,-1.3532,-1.1872,-1.0295,-1.0444,-1.2582,-1.4465,-1.6087,-1.7452,-1.8234,-1.8716,-1.8971,-1.9551,-1.9988,-2.0234,-2.0234,-1.9986,-1.9506,-1.8151,-1.6853,-1.5483,-1.3273,-1.1225,0.0,0.0,0.0,0.0,0.0,0.0,0.0,0.0,0.0,0.0,0.0,0.0,0.0,0.0,0.0,0.0,0.0,0.0,0.0,0.0,0.0,0.0,0.0,0.0,0.0,0.0,0.0,0.0,0.0,0.0,0.0,0.0,0.0,0.0,0.0,0.0,0.0,-2.3403,-2.3967,0.0,-2.1288,-2.0547,-2.0191,-2.0197,-2.079,-2.1055,-2.0891,-2.1056,-2.1079,-2.0886,-2.0276,-1.9848,-1.961,-1.9216,-1.8767,-1.8243,-1.8153,-1.7684,-1.7013,-1.7221,-1.6626,-1.5405,-1.5348,-1.4629,-1.3553,-1.401,-1.3505,-1.2543,-1.3166,-1.2985,-1.2475,-1.3158,-1.3491,-1.3702,0.0,0.0,0.0,-0.6956,-0.7155,-0.75,-0.7923,-0.847,-0.9149,-1.0033,-1.1895,-1.3623,-1.4908,-1.7517,-1.9245,-1.9413,-2.0913,-2.0355,-1.6837,-1.5855,-1.4436,-1.219,-1.0888,-1.1616,-1.4603,-1.5346,-1.6325,-1.7659,-1.8011,-1.8278,-1.8449,-1.9277,-1.982,-2.007,-2.0165,-1.9862,-1.9259,-1.8453,-1.7425,-1.6182,-1.4452,-1.2355,-1.0172,0.0,0.0,0.0,0.0,0.0,0.0,0.0,0.0,0.0,0.0,0.0,0.0,0.0,0.0,0.0,0.0,0.0,0.0,0.0,0.0,0.0,0.0,0.0,0.0,0.0,0.0,0.0,0.0,0.0,0.0,0.0,0.0,0.0,0.0,0.0,-2.334,-2.2466,-2.313,-2.2993,-2.1316,-2.0644,-2.0297,-2.0305,-2.0843,-2.1074,-2.091,-2.0755,-2.0602,-2.0461,-1.9419,-1.877,-1.8604,-1.8128,-1.7631,-1.7126,-1.6853,-1.6533,-1.614,-1.5841,-1.5195,-1.4287,-1.4143,-1.347,-1.2461,-1.2461,-1.1898,-1.1121,-1.2126,-1.221,-1.1847,-1.2138,-1.2425,-1.2768,0.0,0.0,-0.6668,-0.6858,-0.6908,-0.7093,-0.7695,-0.8298,-0.9386,-1.1318,-1.3334,-1.5266,-1.7056,-1.8678,-1.9775,-2.0035,-2.0154,-1.9036,-1.6231,-1.5232,-1.3553,-1.0866,-1.1313,-1.2826,-1.5367,-1.5163,-1.561,-1.6801,-1.7415,-1.7786,-1.7928,-1.8961,-1.9571,-1.9838,-1.9956,-1.9399,-1.8397,-1.7879,-1.7258,-1.6506,-1.4669,-1.2903,-1.1282,0.0,0.0,0.0,0.0,0.0,0.0,0.0,0.0,0.0,0.0,0.0,0.0,0.0,0.0,0.0,0.0,0.0,0.0,0.0,0.0,0.0,0.0,0.0,0.0,0.0,0.0,0.0,0.0,0.0,0.0,0.0,0.0,0.0,-2.1411,-2.2234,-2.2438,-2.1592,-2.2254,-2.2151,-2.0497,-2.0348,-2.0339,-2.0291,-2.0294,-2.0292,-2.0312,-1.9991,-1.979,-1.979,-1.9026,-1.8604,-1.8585,-1.7726,-1.7126,-1.6795,-1.5961,-1.5471,-1.523,-1.4356,-1.3717,-1.3219,-1.275,-1.1971,-1.1019,-1.0971,-1.0399,-0.9667,-1.1667,-1.2138,-1.1689,-1.1726,-1.1748,-1.1894,-0.6599,-0.6599,-0.6616,-0.6685,-0.6807,-0.6996,-0.7318,-0.8139,-0.9259,-1.0827,-1.2814,-1.4654,-1.6125,-1.7711,-1.886,-1.9326,-2.0197,-1.9684,-1.7253,-1.6266,-1.4608,-1.1963,-1.5151,-1.6659,-1.5928,-1.7025,-1.7293,-1.6743,-1.7804,-1.8177,-1.7856,-1.9399,-2.0398,-2.0861,-2.0169,-1.9552,-1.8947,-1.7311,-1.5561,-1.3932,-1.4178,-1.3488,-1.2238,0.0,0.0,0.0,0.0,0.0,0.0,0.0,0.0,0.0,0.0,0.0,0.0,0.0,0.0,0.0,0.0,0.0,0.0,0.0,0.0,0.0,0.0,0.0,0.0,0.0,0.0,0.0,0.0,0.0,0.0,0.0,0.0,-1.9922,-2.0249,-2.1037,-2.1515,-2.1369,-2.2115,-2.2263,-2.1262,-2.1218,-2.0977,-2.034,-2.0299,-2.0308,-2.0292,-2.0079,-1.9801,-1.9507,-1.9,-1.8609,-1.831,-1.7356,-1.6897,-1.6921,-1.5688,-1.4836,-1.432,-1.3594,-1.2896,-1.2198,-1.1621,-1.1195,-1.0881,-1.05,-0.9742,-0.8927,-1.0301,-1.0292,-0.9609,-0.9934,-1.0557,-1.1406,-0.6616,-0.6599,-0.6564,-0.6453,-0.6608,-0.6811,-0.6937,-0.7871,-0.9133,-1.0679,-1.1822,-1.2944,-1.4212,-1.4722,-1.5357,-1.6298,-1.6927,-1.6685,-1.5329,-1.4237,-1.3477,-1.3159,-1.5304,-1.6203,-1.5563,-1.6372,-1.6159,-1.4797,-1.6013,-1.6279,-1.5716,-1.7817,-1.939,-2.0406,-1.9996,-1.8441,-1.5941,-1.3291,-1.108,-0.9366,-0.999,-1.0799,-1.1634,-1.1893,-1.158,-1.1071,-1.1334,-1.1515,-1.1556,-1.1207,0.0,0.0,0.0,0.0,0.0,0.0,0.0,0.0,0.0,0.0,0.0,0.0,0.0,0.0,0.0,0.0,0.0,0.0,0.0,0.0,0.0,0.0,0.0,0.0,-1.8793,-1.9452,-1.9317,-1.9935,-2.0457,-2.0652,-2.1111,-2.1283,-2.0946,-2.0951,-2.0808,-2.0369,-2.0348,-2.0324,-2.0301,-2.0084,-1.9926,-1.9866,-1.9235,-1.8658,-1.8206,-1.6946,-1.6068,-1.5516,-1.4153,-1.3321,-1.2941,-1.167,-1.0997,0.0,-0.9787,-0.9484,-0.9717,-0.9449,-0.9054,0.0,0.0,0.0,0.0,0.0,-0.9334,-1.0335,-0.6651,-0.6599,-0.6517,-0.6254,-0.6401,-0.6552,-0.6549,-0.7536,-0.8891,-1.0602,-1.0314,-1.0331,-1.1368,-1.0315,-1.0164,-1.1836,-1.1861,-1.1892,-1.21,-1.1068,-1.1485,-1.3799,-1.3245,-1.3341,-1.4247,-1.4033,-1.3185,-1.1624,-1.2636,-1.2642,-1.1865,-1.4205,-1.608,-1.7484,-1.7545,-1.4893,-1.0171,-0.6767,-0.4571,-0.338,-0.3577,-0.6318,-1.0433,-1.1805,-1.2135,-1.1938,-1.2256,-1.2412,-1.2347,-1.1587,0.0,0.0,0.0,0.0,0.0,0.0,0.0,0.0,0.0,0.0,0.0,0.0,0.0,0.0,0.0,0.0,0.0,0.0,0.0,0.0,0.0,0.0,0.0,0.0,-1.8012,-1.8924,-1.8532,-1.8924,-1.9369,-1.9645,-1.9806,-1.9904,-1.998,-2.0115,-2.0223,-2.0285,-2.0338,-2.0352,-2.0274,0.0,0.0,0.0,0.0,-1.8684,-1.8261,-1.6538,-1.4965,-1.3552,-1.2118,-1.1233,-1.0864,-0.8907,-0.8203,-0.843,-0.7131,-0.6862,-0.7352,-0.747,-0.7615,-0.7791,-0.8046,-0.7543,-0.6761,-0.7377,-0.8145,-0.8865,-0.6633,-0.6599,-0.6517,-0.6254,-0.6254,-0.6271,-0.6277,-0.6938,-0.7998,-0.9576,-0.7901,-0.6659,-0.6915,-0.5201,-0.5138,-0.7915,-0.8915,-1.0172,-1.2058,-1.2543,-1.2347,-1.1425,-1.2261,-1.2244,-1.1086,-1.1445,-1.046,-0.8099,-0.8611,-0.7997,-0.6269,-0.6997,-0.7182,-0.6866,-0.4815,-0.3292,-0.2052,0.1158,0.2893,0.3368,0.2065,-0.3666,-1.1449,-1.1224,-1.2211,-1.3651,-1.3438,-1.3601,-1.3967,-1.3974,-1.3159,-1.2102,-1.1692,-1.1108,0.0,0.0,0.0,0.0,0.0,0.0,0.0,0.0,0.0,0.0,0.0,0.0,0.0,0.0,0.0,0.0,0.0,0.0,0.0,-1.6392,-1.7329,-1.8051,-1.7757,-1.8133,-1.8556,-1.8941,-1.981,-2.0055,-1.93,-2.0234,-2.0532,-1.965,-2.0,-2.0214,-2.0131,-2.0246,-2.0186,-1.9934,-1.8804,-1.834,-1.8597,-1.6188,-1.4639,-1.3951,0.0,0.0,-0.6629,-0.5593,-0.4375,-0.3102,-0.2762,-0.265,-0.2755,-0.2666,-0.2394,-0.2262,-0.4905,-0.5714,-0.5467,-0.6227,-0.6731,-0.7208,-0.7496,-0.6883,-0.6349,-0.6214,-0.6287,-0.6306,-0.622,-0.6825,-0.7569,-0.8313,-0.5401,-0.3531,-0.427,-0.2366,-0.266,-0.6695,-0.8148,-0.9115,-0.9756,-1.0156,-0.9996,-0.904,-0.898,-0.8588,-0.7753,-0.6976,-0.558,-0.3571,-0.3414,-0.2628,-0.1296,-0.2068,-0.2442,-0.228,0.1865,0.3885,0.4582,1.0374,1.2554,1.2071,1.1074,0.7291,0.1527,-0.5169,-0.8643,-1.0301,-1.3162,-1.5071,-1.6061,-1.4787,-1.3877,-1.3144,-1.2497,-1.2038,-1.1799,0.0,0.0,0.0,0.0,0.0,0.0,0.0,0.0,0.0,0.0,0.0,0.0,0.0,0.0,-1.644,0.0,0.0,-1.6897,-1.6603,-1.6886,-1.7173,-1.73,-1.6805,-1.7011,-1.8478,-1.914,-1.9332,-1.8948,-1.9399,-1.955,-1.9039,-1.9268,-1.9419,-1.9345,-1.7954,-1.6356,-1.4642,-1.2427,-1.0411,-0.8657,-0.685,-0.5551,-0.4775,-0.3321,-0.1826,-0.0267,0.0558,0.1447,0.2297,0.2319,0.2005,0.165,0.3112,0.2941,0.1665,0.0205,-0.1673,-0.3612,-0.4722,-0.5582,-0.6213,-0.8286,-0.7255,-0.641,-0.6415,-0.649,-0.65,-0.6338,-0.6798,-0.7168,-0.7174,-0.3631,-0.1476,-0.243,-0.0621,-0.1183,-0.5796,-0.8048,-0.8576,-0.6985,-0.695,-0.6602,-0.5747,-0.4406,-0.3513,-0.3079,-0.1268,0.0404,0.1803,0.2511,0.3287,0.4111,0.341,0.2967,0.2963,0.7997,1.0571,1.1603,1.8569,2.0829,1.9682,1.8936,1.7977,1.5716,0.4035,-0.16,-0.4047,-0.9504,-1.2955,-1.4508,-1.2235,-1.1912,-1.2326,-1.1395,-1.1795,-1.2624,-1.2952,-1.2858,0.0,0.0,0.0,0.0,0.0,0.0,0.0,0.0,0.0,-1.7927,-1.8516,-1.8425,-1.7845,-1.6481,-1.6559,-1.6773,-1.6546,-1.6167,-1.5983,-1.626,-1.506,-1.4929,-1.6909,-1.7481,-1.7765,-1.7876,-1.7687,-1.7485,-1.7312,-1.7319,-1.7231,-1.6945,-1.4146,-1.1368,-0.8777,-0.5488,-0.182,0.2246,0.3521,0.5473,0.8121,0.8008,0.7852,0.7659,0.8299,0.833,0.7932,0.7737,0.7103,0.6344,0.856,0.7784,0.5229,0.5076,0.2848,-0.0399,-0.2138,-0.3565,-0.4526,-0.8054,-0.7517,-0.7181,-0.718,-0.695,-0.6751,-0.6727,-0.6509,-0.6423,-0.664,-0.3882,-0.162,-0.0944,0.0632,0.0291,-0.3071,-0.7463,-0.8658,-0.5326,-0.5324,-0.3801,-0.0106,0.1363,0.2965,0.486,0.5653,0.6822,0.8333,0.908,1.0116,1.1456,1.2779,1.4268,1.5837,1.8752,2.0367,2.1055,2.2929,2.3382,2.2622,2.0626,1.9704,1.924,1.6099,1.0892,0.4764,0.1235,-0.143,-0.3181,-0.2628,-0.4518,-0.689,-0.5756,-0.8325,-1.2162,-1.4341,-1.4141,-1.3481,-1.476,0.0,0.0,-1.7067,-1.7761,-1.8393,0.0,0.0,-1.8879,-1.8146,-1.8199,-1.7962,-1.6553,-1.6291,-1.6023,-1.5258,-1.4537,-1.3914,-1.346,-1.2754,-1.2313,-1.2265,-1.3817,-1.479,-1.4642,-1.4524,-1.3974,-1.2729,-1.2562,-1.2043,-1.102,-0.8928,-0.7296,-0.6244,-0.2896,0.0975,0.5359,0.7519,1.2783,2.1004,1.9766,1.8576,1.7422,1.7232,1.6027,1.4085,1.3394,1.2617,1.1812,1.2113,1.125,0.9475,0.7516,0.6553,0.5869,0.2749,0.081,-0.0344,-0.8888,-0.8454,-0.8124,-0.7928,-0.738,-0.697,-0.697,-0.6605,-0.6243,-0.6042,-0.3128,-0.2017,-0.4525,-0.4617,-0.4712,-0.5295,-0.7563,-0.7053,-0.2518,-0.2621,-0.0743,0.3859,0.5332,0.6823,0.8497,1.0309,1.1565,1.218,1.332,1.4381,1.541,1.6465,1.7956,1.9855,2.1582,2.2815,2.365,2.4389,2.4472,2.4054,2.2841,2.2174,2.1773,2.0351,1.733,1.3299,0.8963,0.652,0.0,0.431,0.2853,0.1462,0.1753,-0.1936,-0.677,-0.8819,-1.1171,-1.3621,-1.5821,0.0,0.0,0.0,-1.8046,-1.8208,-1.9434,-1.9773,-1.9717,-1.9321,-1.9065,-1.8346,-1.6503,-1.5417,-1.459,0.0,-1.2359,-1.1085,-1.0681,-0.9346,-0.8356,-0.8214,-0.8681,-0.9685,-1.144,-1.1847,-1.1009,-0.8532,-0.8314,-0.736,-0.5273,-0.2705,0.0319,0.3799,0.6792,1.0436,1.4876,1.6063,1.8515,2.2215,2.1633,2.0989,2.0339,2.0294,1.962,1.839,1.8084,1.7385,1.6417,1.6096,1.5069,1.3528,1.2425,1.1361,1.0162,0.6933,0.5503,0.507,-0.9528,-0.9074,-0.8679,-0.8365,-0.765,-0.7126,-0.717,-0.68,-0.6348,-0.5909,-0.3612,-0.3476,-0.734,-0.8442,-0.8486,-0.7483,-0.7444,-0.5568,-0.1081,-0.0225,0.2228,0.6878,0.8654,1.0191,1.1674,1.3887,1.5008,1.5008,1.6044,1.6869,1.7468,1.8165,1.9387,2.1029,2.238,2.351,2.4406,2.4946,2.5087,2.485,2.4312,2.384,2.335,2.2136,2.0632,1.8585,1.3987,1.1665,1.0481,0.8759,0.7801,0.7346,0.7276,0.1907,-0.4834,-0.7186,-1.0686,-1.4201,-1.62,0.0,0.0,-1.7928,-1.7907,-1.8007,-1.9177,-1.9392,-1.9272,-1.9067,-1.8437,-1.7325,-1.5441,-1.371,-1.2349,-1.1612,-0.9457,-0.7654,-0.7236,-0.5283,-0.4062,-0.4424,-0.3717,-0.4168,-0.6594,-0.7784,-0.711,-0.4007,-0.3323,-0.194,0.066,0.3625,0.7205,1.1491,1.4178,1.7257,2.0806,2.133,2.1691,2.1933,2.1988,2.2139,2.2393,2.2389,2.2182,2.1801,2.1697,2.1132,2.0247,1.9849,1.8765,1.7318,1.7028,1.5937,1.4226,1.1817,1.0427,0.9596,-0.9528,-0.9074,-0.8679,-0.8365,-0.765,-0.717,-0.7378,-0.704,-0.6714,-0.6499,-0.6215,-0.6449,-0.7577,-0.825,-0.8493,-0.8183,-0.6756,-0.4688,-0.1929,0.1335,0.4952,0.8915,1.1532,1.3696,1.5478,1.6568,1.7115,1.7115,1.7129,1.7314,1.7622,1.8537,1.9502,2.0512,2.2348,2.3615,2.435,2.5078,2.5306,2.5139,2.4535,2.4171,2.3835,2.2591,2.0988,1.9072,1.5764,1.3454,1.1707,1.0155,0.9113,0.8559,0.9127,0.0981,-0.9573,-1.3466,-1.5131,-1.569,0.0,0.0,-1.6343,-1.6381,-1.7181,-1.7997,-1.8039,-1.7576,-1.6893,-1.6173,-1.5184,-1.4062,-1.2741,-1.0828,-0.9089,-0.7949,-0.558,-0.3574,-0.2618,-0.0651,0.0285,-0.0929,0.0467,0.1269,0.0,-0.1503,-0.1693,0.1053,0.2864,0.4726,0.6891,0.9777,1.1991,1.3387,1.6022,1.8068,1.9433,2.0327,2.1411,2.2765,2.2968,2.3773,2.5068,2.4622,2.4407,2.4373,2.3995,2.3598,2.3265,2.3182,2.2191,2.0738,2.0511,1.9702,1.8541,1.7948,1.5542,1.2412,-0.9131,-0.8501,-0.8031,-0.7918,-0.7473,-0.7137,-0.7259,-0.676,-0.6478,-0.6737,-0.6711,0.0,0.0,0.0,0.0,0.0,-0.7178,-0.5174,-0.0888,0.1789,0.5348,1.0134,1.3182,1.5307,1.6403,1.7899,1.8591,1.8456,1.8767,1.9147,1.9604,1.9915,2.0634,2.1686,2.2318,2.2912,2.3438,2.3615,2.3622,2.3561,2.37,2.3529,2.3069,2.1833,2.033,1.8377,0.0,1.2719,1.1705,1.0638,0.9374,0.8437,0.9618,0.3791,-0.4726,-1.0999,-1.3103,-1.3491,-1.3935,0.0,-1.2991,-1.3611,-1.396,-1.399,-1.3499,-1.3382,-1.3031,-1.1685,-1.0676,-0.9733,-0.8652,-0.6847,-0.5074,-0.3763,-0.1758,0.0048,0.1318,0.2746,0.355,0.3149,0.3579,0.0,0.0,0.0,0.0,0.5895,0.7589,0.9623,1.2273,1.367,1.5191,1.6954,1.8156,1.9445,2.0829,2.1859,2.27,2.333,2.4119,2.478,2.5331,2.5164,2.5098,2.5084,2.4946,2.487,2.4759,2.4426,2.398,2.3441,2.2958,2.2451,2.1927,2.1421,2.0267,1.8475,-0.8617,-0.8145,-0.7811,-0.753,-0.7261,0.0,0.0,0.0,0.0,0.0,0.0,0.0,0.0,0.0,0.0,0.0,0.0,-0.4978,-0.0534,0.2079,0.5686,1.0709,1.3258,1.4996,1.598,1.6974,1.77,1.8165,1.8783,1.9609,2.0642,2.0952,2.1393,2.1971,2.2269,2.2437,2.2562,2.2759,2.2852,2.2872,2.2633,2.2333,2.185,2.0437,1.8785,0.0,1.3798,1.1627,1.0048,0.8883,0.7089,0.5337,0.5279,0.0938,0.0,0.0,-1.099,-1.114,-1.135,-1.0448,-0.9428,-0.9518,-0.942,-0.8929,-0.7715,-0.7423,-0.7105,-0.5755,-0.5108,-0.467,-0.4274,-0.3336,-0.2354,-0.1513,-0.0413,0.1186,0.3656,0.4548,0.5203,0.5892,0.6656,0.0,0.0,0.0,0.0,0.917,1.0899,1.2934,1.538,1.6222,1.7287,1.8769,1.9243,2.0088,2.1368,2.2207,2.296,2.3579,2.4584,2.5101,2.5182,2.52,2.5265,2.5325,2.5292,2.5388,2.5505,2.5182,2.5068,2.504,2.4543,2.4227,2.3969,2.3461,2.3034,2.2164,-0.8055,-0.8013,-0.8013,0.0,0.0,0.0,0.0,0.0,0.0,0.0,0.0,0.0,0.0,0.0,0.0,0.0,0.0,0.0,-0.1036,0.2119,0.5914,1.0552,1.1902,1.3158,1.4488,1.4165,1.4785,1.6376,1.7267,1.8651,2.047,2.1343,2.1519,2.1129,2.1956,2.202,2.1531,2.2298,2.2708,2.2719,2.1235,2.0528,2.0166,1.8444,1.6543,1.463,1.3034,1.0256,0.7059,0.5251,0.0,0.0,0.0,0.0,0.0,0.0,0.0,-0.8591,-0.783,-0.6853,-0.5668,-0.4146,-0.3679,-0.3061,-0.1094,-0.0201,0.0404,0.1138,0.1095,0.0752,0.0,0.0,-0.0611,-0.0706,-0.0802,0.0592,0.4849,0.5246,0.5809,0.0,0.0,0.0,0.0,0.0,0.0,1.0894,0.0,1.474,1.6268,1.7436,1.8302,1.8855,1.9332,2.0028,2.0991,2.143,2.2275,2.3515,2.4364,2.4771,2.4771,2.4865,2.5,2.5168,2.5112,2.5278,2.5586,2.5512,2.554,2.5586,2.5324,2.505,2.4758,2.4223,2.3926,2.3462,0.0,0.0,0.0,0.0,0.0,0.0,0.0,0.0,0.0,0.0,0.0,0.0,0.0,0.0,0.0,0.0,0.0,0.0,-0.267,0.1144,0.4558,0.7368,1.1093,1.3151,1.3249,1.3885,1.439,1.4718,1.5835,1.6648,1.7136,1.8075,1.8428,1.8337,1.8543,1.8623,1.8571,1.8732,1.86,1.8296,1.8426,1.7897,1.6959,1.6289,1.5095,1.3382,1.0414,0.8153,0.6295,0.0,0.0,0.0,0.0,0.0,-0.6111,0.0,0.0,-0.3737,-0.2708,-0.1687,-0.0402,0.1642,0.2045,0.2361,0.4023,0.3667,0.3476,0.4883,0.3685,0.2536,0.0,0.0,0.0,0.4104,0.6107,0.0,0.9641,1.028,0.0,0.0,0.0,1.0972,0.9831,1.1158,0.0,0.0,1.3828,1.5318,1.5784,1.687,1.7747,1.8302,1.906,1.9951,2.0991,2.1943,2.2785,2.3515,2.3971,2.4273,2.4436,2.4689,2.4861,2.4913,2.5039,2.52,2.5381,2.5469,2.5577,2.5664,2.5485,2.5284,2.5053,2.4723,2.4464,2.4174,0.0,0.0,0.0,0.0,0.0,0.0,0.0,0.0,0.0,0.0,0.0,0.0,0.0,0.0,0.0,0.0,0.0,0.0,0.0,0.0203,0.3072,0.6462,0.9433,1.1034,1.1038,1.1133,1.1683,1.2699,1.361,1.4634,1.5781,1.675,1.7015,1.6699,1.6755,1.6538,1.6145,1.6092,1.5894,0.0,0.0,1.4883,1.4132,1.3713,1.2821,1.1497,0.8947,0.6102,0.0,0.0,0.0,-0.364,-0.4034,-0.4054,-0.3717,-0.263,0.0,-0.0278,0.1187,0.2713,0.4306,0.6132,0.697,0.7662,0.899,0.8859,0.8546,0.8986,0.7326,0.0,0.0,0.0,0.0,0.0,0.0,0.0,1.1113,1.16,1.2159,0.0,1.2735,0.0,1.0991,1.1168,1.1434,0.0,1.4082,1.5648,1.5915,1.7024,1.7907,1.8419,1.8919,1.9773,2.0991,2.1955,2.2677,2.3152,2.348,2.3712,2.3836,2.4007,2.4155,2.4229,0.0,2.4771,2.5043,2.524,2.5459,2.5656,2.5542,2.5408,2.5214,2.5038,2.4832,2.4605,0.0,0.0,0.0,0.0,0.0,0.0,0.0,0.0,0.0,-0.6457,-0.6302,-0.6135,0.0,0.0,0.0,0.0,0.0,0.0,0.0,0.0,0.161,0.6109,0.7264,0.8069,0.8648,0.7569,0.8018,1.0124,1.0796,1.2308,1.4604,1.5647,1.5796,1.517,1.5294,1.4807,1.3887,1.3861,1.3748,1.3502,1.2357,1.1734,1.146,0.0,1.042,0.9431,0.7853,0.4141,-0.0241,0.0,-0.2688,-0.3344,-0.2057,-0.1835,-0.1585,0.0447,0.1512,0.2533,0.4588,0.6639,0.8493,0.9906,1.138,1.265,1.3462,1.3894,1.3741,1.2514,0.0,0.0,0.5786,0.0,0.4783,0.3815,0.0,0.7643,1.1322,1.1544,1.2178,1.4586,1.3777,1.2533,1.1348,1.0683,1.0554,1.1128,1.3627,1.5416,1.612,1.7177,1.8078,1.875,1.8916,1.9585,2.0878,2.1665,2.218,2.2495,2.293,2.3117,2.3052,2.3165,2.3298,2.3491,2.3835,0.0,2.4675,2.4968,2.5286,2.5591,2.5528,2.5429,2.533,2.524,2.5053,2.4862,0.0,0.0,0.0,0.0,0.0,0.0,0.0,0.0,0.0,0.0,-0.6773,-0.6245,0.0,0.0,0.0,0.0,0.0,0.0,0.0,0.0,0.0,0.2526,0.4925,0.673,0.7871,0.6616,0.5984,0.601,0.7446,0.8517,0.9265,1.0488,1.1161,1.1352,1.1382,1.1344,1.1244,1.1025,1.0559,0.9991,0.9805,0.9187,0.8507,0.9566,0.0,0.0,0.5642,0.2334,-0.0751,-0.0894,-0.1099,-0.106,0.0153,0.1351,0.267,0.4777,0.5505,0.6176,0.8887,1.061,1.2086,1.3906,1.562,1.6571,1.5651,1.4993,0.0,0.0,0.0,0.7639,0.6598,0.604,0.0,0.7001,0.0,0.0,0.0,0.0,1.4771,0.0,0.0,0.0,0.0,0.0,0.0,0.0,0.0,1.3752,1.4903,1.5652,1.6693,1.8087,1.9008,1.9768,2.0322,2.1241,2.1565,2.1321,2.2317,2.2626,2.23,2.293,2.3236,2.327,2.3792,0.0,2.4486,2.4853,2.5241,2.5592,2.5521,2.5525,2.5527,2.5344,2.5212,2.5132,0.0,0.0,0.0,0.0,0.0,0.0,0.0,-0.7933,-0.8612,-0.9044,-0.8559,-0.7915,-0.7245,-0.656,-0.6028,0.0,0.0,0.0,0.0,0.0,0.0,0.0,0.0,0.0,0.502,0.4309,0.0,0.0,0.0,0.5797,0.6455,0.7284,0.7783,0.8005,0.8227,0.8184,0.7934,0.781,0.7351,0.6728,0.6925,0.6637,0.6275,0.0,0.0,0.0,0.0,0.2466,-0.0188,0.0723,0.0854,0.0807,0.1889,0.2709,0.3819,0.6367,0.7348,0.817,1.092,1.2832,1.4452,1.6262,1.7665,1.8151,1.6571,0.0,0.0,0.0,0.0,0.8602,0.7627,0.0,0.0,0.0,0.0,0.0,0.0,0.0,0.0,0.0,0.0,0.0,0.0,0.0,0.0,0.0,0.0,1.2619,1.4606,1.584,1.6857,1.7612,1.8416,1.9156,1.9893,2.007,2.0438,2.0991,2.1285,2.145,2.1562,2.2096,2.2388,2.2398,2.3047,0.0,2.3952,2.4323,2.482,2.5332,2.5337,2.5456,2.5586,2.5527,2.5465,2.5408,0.0,0.0,0.0,0.0,0.0,0.0,0.0,-0.9028,-0.9717,-1.0378,-1.0199,-0.953,-0.8236,-0.6893,-0.5943,0.0,0.0,0.0,0.0,0.0,0.0,0.0,0.0,0.0,0.0,0.0,0.0,0.0,0.0,0.0,0.0,0.0,0.0,0.0,0.0,0.5625,0.5401,0.5272,0.4855,0.0,0.0,0.4542,0.0,0.0,0.0,0.0,0.0,0.0,0.1293,0.2371,0.2568,0.2496,0.3456,0.3918,0.4646,0.7379,0.8741,0.9892,1.2501,1.4529,1.633,1.7948,1.9132,1.9343,1.7214,1.7312,0.0,0.0,0.0,0.9895,0.8498,0.0,0.6091,0.0,0.0,0.0,0.0,0.0,0.0,0.0,0.0,0.0,0.0,0.0,0.0,0.0,0.0,0.0,1.456,1.6145,1.7008,1.7105,1.7666,1.8313,1.9082,1.8904,1.9345,2.0385,2.0255,2.0338,2.0552,2.129,2.1475,2.135,2.2307,0.0,0.0,2.3835,2.4417,2.5119,2.5161,2.534,2.5605,2.5664,2.5641,2.5593,0.0,0.0,0.0,0.0,0.0,0.0,0.0,-0.9052,-1.0086,-1.1222,-1.063,-0.9814,-0.9056,-0.7791,-0.6411,0.0,0.0,0.0,0.0,0.0,0.0,0.0,0.0,0.0,0.0,0.0,0.0,0.0,0.0,0.0,0.0,0.0,0.0,0.0,0.0,0.0,0.5097,0.4549,0.0,0.0,0.0,0.0,0.0,0.0,0.0,0.0,0.0,0.0,0.0,0.0,0.0,0.4271,0.4999,0.5872,0.7064,0.9111,0.0,0.0,1.4586,1.6411,1.8029,1.9439,2.1011,2.1366,1.8214,0.0,0.0,1.4186,1.2146,1.0524,0.8953,0.6827,0.0,0.0,0.4887,0.6044,0.0,0.0,0.0,0.0,0.0,0.0,0.0,0.0,0.0,0.0,0.0,0.0,1.4663,1.5365,1.5996,1.6552,1.7076,1.7435,1.7504,1.8387,1.8655,1.8391,1.9602,1.9778,1.9038,2.0814,2.1117,2.044,2.2079,0.0,0.0,2.3719,2.4433,2.5107,2.5119,2.5302,2.5605,2.5605,2.5605,2.5609,0.0,0.0,0.0,0.0,0.0,0.0,-0.9086,-0.9791,-1.0491,-1.1388,-1.0886,-0.9825,-0.8199,-0.7237,-0.628,-0.5148,0.0,0.0,0.0,0.0,0.0,0.0,0.0,0.0,0.0,0.0,0.0,0.0,0.0,0.0,0.0,0.0,0.0,0.0,0.0,0.0,0.0,0.0,0.0,0.0,0.0,0.0,0.0,0.0,0.0,0.0,0.0,0.0,0.0,0.0,0.0,0.0,0.464,0.5624,0.0,0.0,1.0786,1.2939,1.5138,1.7293,1.9338,2.1006,2.1522,2.1128,1.9338,0.0,0.0,1.4772,1.3267,1.219,1.1497,0.7975,0.4908,0.3947,0.3351,0.3642,0.5564,0.0,0.0,0.0,0.0,0.0,0.0,0.0,0.0,0.0,0.0,0.0,1.4641,1.5276,1.5864,1.6466,1.671,1.6951,1.7312,1.7368,1.7639,1.8106,1.8349,1.8412,1.8416,1.9773,2.0338,2.0273,2.1529,0.0,0.0,2.344,2.4063,2.4907,2.4929,2.5072,2.5315,2.5473,2.5541,2.5536,0.0,0.0,0.0,0.0,0.0,-0.8168,-0.9667,-1.0135,-1.042,-1.0806,-1.0295,-0.9169,-0.7104,-0.6226,-0.5526,-0.4911,-0.3768,0.0,0.0,0.0,0.0,0.0,0.0,0.0,0.0,0.0,-0.3968,-0.4188,-0.4031,0.0,0.0,0.0,0.0,0.0,0.0,0.0,0.0,0.0,0.0,0.0,0.0,0.0,0.0,0.0,0.0,0.0,0.0,0.0,0.0,0.0,0.0,0.0,0.3119,0.4292,0.5694,0.0,1.064,1.313,1.5259,1.7424,1.9591,2.142,2.1384,2.0661,0.0,0.0,0.0,1.4174,1.3381,1.3094,1.2631,0.8511,0.4487,0.2367,0.1579,0.1312,0.1472,0.185,0.0,0.0,0.0,0.0,0.0,0.0,0.0,0.0,0.0,0.0,1.4732,1.5283,1.5864,1.6466,1.6522,1.668,1.7076,1.668,1.6879,1.7626,1.7394,1.7435,1.7666,1.9008,1.9682,1.9847,2.1085,0.0,0.0,2.3136,2.3753,2.4785,2.4628,2.4752,2.503,2.5216,2.5335,2.5372,0.0,0.0,0.0,0.0,0.0,0.0,-0.9341,-0.9709,-0.9679,-0.9368,-0.8613,-0.7555,-0.6079,-0.4774,-0.4035,-0.4012,-0.2923,0.0,0.0,0.0,0.0,0.0,0.0,0.0,0.0,0.0,-0.9203,-0.7934,-0.8796,-0.9386,-0.9687,-0.8225,0.0,0.0,0.0,0.0,0.0,0.0,0.0,0.0,0.0,0.0,0.0,0.0,0.0,0.0,0.0,0.0,0.0,0.0,0.0,0.0,0.0,0.1957,0.3922,0.7464,1.043,1.3034,1.5078,1.6784,1.8442,2.0268,2.0662,2.0391,0.0,0.0,0.0,1.1903,1.2048,1.2716,1.1451,0.7932,0.423,0.1197,-0.0778,-0.1485,-0.0153,-0.0617,0.0,0.0,0.0,0.0,0.0,0.0,0.0,0.0,0.0,0.0,1.4923,1.5358,1.5864,1.6466,1.6522,1.6522,1.6522,1.6522,1.6522,1.6522,1.7034,1.7034,1.6595,1.8655,1.9302,0.0,0.0,0.0,0.0,2.276,2.353,2.4741,2.4227,2.4323,2.4797,2.481,2.4924,2.5108,0.0,0.0,0.0,0.0,0.0,0.0,0.0,-0.8503,-0.8289,-0.8098,-0.7357,-0.6463,-0.5351,-0.4873,-0.4355,-0.3792,-0.2414,0.0,0.0,0.0,0.0,0.0,0.0,0.0,0.0,0.0,-1.0166,-1.0735,-1.0077,-0.9922,-1.0196,-0.9124,-0.7893,-0.6514,0.0,0.0,0.0,0.0,0.0,0.0,0.0,0.0,0.0,0.0,0.0,0.0,0.0,0.0,0.0,0.0,0.0,0.0,0.0,0.0,0.0,0.2989,0.767,1.2306,1.441,1.6576,1.8561,2.0061,1.9757,1.8144,1.4552,0.0,0.6022,0.3018,0.0485,-0.0132,0.3326,0.1364,-0.1252,-0.2789,-0.3648,-0.4368,0.0,0.0,0.0,0.0,0.0,0.0,0.0,0.0,0.0,0.0,0.0,0.0,1.4697,1.5327,1.5864,1.6466,1.6522,1.6522,1.6522,1.6522,1.6522,1.6522,1.668,1.668,1.6552,1.792,1.8669,0.0,0.0,0.0,0.0,2.2778,2.3307,2.4244,2.4063,2.41,2.4292,2.4666,2.4842,2.4898,0.0,0.0,0.0,0.0,0.0,0.0,0.0,-0.8116,-0.7725,-0.7434,-0.6604,-0.5838,-0.528,-0.4949,-0.4642,-0.4349,-0.2995,0.0,0.0,0.0,0.0,0.0,0.0,0.0,-0.2667,-0.8159,-1.1087,-1.1399,-1.1315,-1.1459,-1.1775,-1.115,-0.995,-0.8246,-0.6713,0.0,0.0,0.0,0.0,0.0,0.0,0.0,-0.4144,0.0,0.0,0.0,0.0,0.0,0.0,0.0,0.0,0.0,0.0,0.0,0.0,0.0,0.2751,0.7289,1.1932,1.4432,1.5975,1.7011,1.5615,1.3244,0.0,0.0,-0.0433,-0.1901,-0.5559,-0.6905,-0.174,-0.3221,-0.5517,-0.6334,-0.6713,-0.7102,0.0,0.0,0.0,0.0,0.0,0.0,0.0,0.0,0.0,0.0,0.0,0.0,1.4384,1.5171,1.5864,1.6466,1.6522,1.6522,1.6522,1.6522,1.6522,1.6522,1.6522,1.6522,1.6522,1.7394,1.8182,0.0,0.0,0.0,0.0,2.2399,2.2891,2.3815,2.3731,2.3769,2.3947,2.4388,2.4623,2.4685,0.0,0.0,0.0,0.0,0.0,0.0,0.0,-0.8388,-0.7856,-0.7277,-0.6344,-0.5721,-0.5669,-0.5076,-0.4858,-0.5379,0.0,0.0,0.0,0.0,0.0,0.0,0.0,0.0,-0.0,-0.8339,-1.1996,-1.0666,-1.2595,-1.3778,-1.4168,-1.3899,-1.2323,-0.9629,-0.831,-0.6794,0.0,0.0,0.0,0.0,0.0,-0.6126,0.0,0.0,0.0,0.0,0.0,0.0,0.0,0.0,0.0,0.0,0.0,0.0,0.0,0.0,0.0,0.0,0.0,1.0226,1.0905,1.1421,0.8926,0.6376,0.6585,0.1729,0.0,-0.3974,-0.7294,-0.8816,-0.4715,-0.6534,-0.8851,-0.9512,-0.9934,-0.977,0.0,-0.7039,0.0,0.0,0.0,0.0,0.0,0.0,0.0,0.0,0.0,0.0,1.4103,1.5089,1.5893,1.6591,1.6635,1.6597,1.6522,1.6522,1.6522,1.6522,1.6522,1.6522,1.6522,1.7076,1.7866,0.0,0.0,0.0,0.0,2.1852,2.2382,2.3469,2.327,2.3392,2.3735,2.4074,2.4321,2.4478,0.0,0.0,0.0,0.0,0.0,0.0,0.0,0.0,0.0,0.0,-0.6362,-0.5739,-0.5444,-0.5246,-0.5005,0.0,0.0,0.0,0.0,0.0,0.0,0.0,0.0,0.0,-0.1042,-0.8403,-1.2597,-1.3311,-1.4456,-1.4978,-1.4942,-1.4616,-1.3443,-1.1474,-0.9538,-0.753,0.0,0.0,0.0,0.0,-0.5687,-0.6951,0.0,0.0,0.0,0.0,-1.405,-1.437,0.0,0.0,0.0,0.0,0.0,0.0,0.0,0.0,-0.7215,-0.5144,-0.1354,0.0,0.3925,0.4207,0.3413,0.1784,0.0,-0.3998,-0.6984,-1.0675,-1.3104,-1.4111,-1.2619,-1.3208,-1.3881,-1.3804,-1.3338,-1.2948,-1.2883,0.0,0.0,0.0,0.0,0.0,0.0,0.0,0.0,0.0,0.0,1.2214,1.5009,1.5391,1.6209,1.7743,1.7802,1.7388,1.6522,1.6522,1.6522,1.6522,1.6522,1.6522,1.6522,1.7463,1.8052,0.0,0.0,0.0,2.1711,2.201,2.2599,2.327,2.3236,2.3392,2.3735,2.4074,2.4228,2.4266,0.0,0.0,0.0,0.0,0.0,0.0,0.0,0.0,0.0,0.0,0.0,-0.5944,-0.5544,-0.5476,0.0,0.0,0.0,0.0,0.0,0.0,0.0,0.0,0.0,-0.4416,-0.5092,-0.9905,-1.297,-1.4103,-1.4836,-1.5554,-1.6227,-1.5195,-1.3866,-1.2251,-0.9511,-0.7534,0.0,0.0,0.0,0.0,-0.7194,0.0,0.0,0.0,0.0,0.0,-1.4552,-1.4802,0.0,-1.4897,-1.4836,-1.4781,0.0,0.0,0.0,0.0,-1.0732,-0.9521,-0.8019,-0.4492,-0.1287,-0.1376,-0.266,-0.4634,-0.7497,-0.9487,-1.1441,-1.4003,-1.5475,-1.6279,-1.6256,-1.6278,-1.6368,-1.6593,-1.6326,0.0,0.0,0.0,-0.4927,0.0,0.0,0.0,0.0,0.0,0.0,0.0,0.0,1.283,1.5653,1.6115,1.6884,1.8144,1.8204,1.7903,1.73,1.7036,1.6911,1.6911,1.6647,1.6522,1.6522,1.7353,1.7867,0.0,0.0,0.0,2.1319,2.1777,2.2309,2.2824,2.3087,2.3323,2.3522,2.4016,2.419,2.417,0.0,0.0,0.0,0.0,0.0,0.0,0.0,0.0,0.0,0.0,0.0,0.0,0.0,0.0,0.0,0.0,0.0,0.0,0.0,0.0,0.0,0.0,-0.7104,-0.8697,-1.0285,-1.1901,-1.3159,-1.4052,-1.4717,-1.5793,-1.7226,-1.5705,-1.4007,-1.2106,-0.9021,-0.734,0.0,0.0,0.0,-0.5999,-0.8882,0.0,0.0,0.0,0.0,0.0,0.0,0.0,0.0,-1.5453,-1.5435,-1.5405,-1.5603,0.0,0.0,0.0,0.0,0.0,-1.276,-0.9635,-0.6451,-0.6399,-0.8612,-1.1069,-1.2186,-1.3821,-1.5128,-1.5248,-1.5816,-1.6481,-1.7103,-1.7068,-1.7176,0.0,0.0,0.0,-1.4045,-0.9302,-0.5426,0.0,0.0,0.0,0.0,0.0,0.0,0.0,0.0,1.3792,1.6216,1.6892,1.7642,1.8442,1.8346,1.8298,1.8298,1.7693,1.7368,1.7352,1.6779,1.6559,1.6647,1.7115,1.7585,1.8185,0.0,0.0,2.1039,2.1658,2.2178,2.262,2.323,2.3512,2.3608,2.4197,2.4399,2.4358,0.0,0.0,0.0,0.0,0.0,0.0,0.0,0.0,0.0,0.0,0.0,0.0,0.0,0.0,0.0,0.0,0.0,0.0,0.0,0.0,0.0,-0.8263,-0.9103,-1.0964,-1.4004,-1.3001,-1.3073,-1.4351,-1.5505,-1.609,-1.6152,-1.6259,-1.4276,-1.0598,-0.9104,-0.7693,-0.6369,-0.6234,-0.6137,-0.6352,-0.9936,0.0,0.0,0.0,0.0,0.0,0.0,0.0,0.0,-1.4368,-1.4397,-1.438,-1.4573,0.0,0.0,0.0,0.0,0.0,-1.4527,-1.5087,-1.4835,-1.2327,-1.3076,-1.4332,-1.4101,-1.4551,-1.5044,-1.5108,-1.5226,-1.5457,-1.5879,-1.6306,-1.6642,-1.6837,0.0,-1.6853,0.0,0.0,0.0,0.0,0.0,0.0,0.0,0.0,0.0,0.0,0.0,0.0,1.674,1.6961,1.7831,1.9484,1.897,1.8646,1.8646,1.7807,1.7313,1.7135,1.672,1.6773,1.7269,1.731,1.7585,1.8198,0.0,2.0604,2.1119,2.272,2.3486,2.3739,2.4427,2.489,2.5173,2.5275,2.5301,2.5301,0.0,0.0,0.0,0.0,0.0,0.0,0.0,0.0,0.0,0.0,0.0,0.0,0.0,0.0,0.0,0.0,0.0,0.0,0.0,0.0,-0.9106,-1.0363,-1.1189,-1.2439,-1.4155,-1.3738,-1.4252,-1.579,-1.6059,-1.6668,-1.7538,-1.6042,-1.3252,-0.9437,-0.9139,-0.8353,-0.7207,-0.7113,-0.7383,-0.8142,0.0,0.0,0.0,0.0,0.0,0.0,0.0,0.0,0.0,0.0,-1.3902,-1.4011,-1.4018,0.0,0.0,0.0,0.0,0.0,-1.3259,-1.4031,-1.4526,-1.3567,-1.5501,-1.7579,-1.732,-1.7201,-1.7087,-1.6837,-1.7026,-1.7052,-1.6373,-1.7027,-1.7991,-1.8887,0.0,0.0,0.0,0.0,0.0,0.0,0.0,0.0,0.0,0.0,0.0,0.0,0.0,0.0,1.6655,1.7092,1.7721,1.8596,1.8274,1.7895,1.7523,1.722,1.7211,1.7523,1.705,1.7171,1.7861,1.8098,1.8551,1.9128,0.0,2.1427,2.2224,2.3292,2.3926,2.4298,2.4798,2.509,2.5257,2.5447,2.5393,2.5282,0.0,0.0,0.0,0.0,0.0,0.0,0.0,0.0,0.0,0.0,0.0,0.0,0.0,0.0,0.0,0.0,0.0,0.0,0.0,0.0,-1.1003,-1.192,-1.2805,-1.3503,-1.3999,-1.4103,-1.4859,-1.6208,-1.6149,-1.6903,-1.8301,-1.5588,-1.2601,-0.9545,-0.9792,-0.9411,-0.8581,-0.8515,-0.902,-1.0057,0.0,0.0,0.0,0.0,0.0,0.0,0.0,0.0,0.0,0.0,0.0,0.0,0.0,0.0,0.0,-1.3301,-1.2823,-1.2408,-1.2124,-1.2442,-1.3053,-1.3863,-1.6123,-1.8323,-1.8923,-1.8632,-1.8246,-1.8225,-1.8693,-1.8609,-1.6974,-1.7132,0.0,-1.9036,0.0,0.0,0.0,0.0,0.0,0.0,0.0,0.0,0.0,0.0,0.0,0.0,0.0,0.0,0.0,0.0,1.7413,1.7567,1.7413,1.709,1.6492,1.6667,1.7115,1.7798,1.7317,1.7545,1.8392,1.8652,1.9158,1.974,2.0838,2.1822,2.2765,2.3549,2.4131,2.4603,2.5067,2.5287,2.5424,2.5565,2.5524,2.545,0.0,0.0,0.0,0.0,0.0,0.0,0.0,0.0,0.0,0.0,0.0,0.0,0.0,0.0,0.0,0.0,0.0,0.0,0.0,0.0,-1.3267,-1.2739,-1.3434,-1.4268,-1.517,-1.412,-1.3672,-1.3829,-1.5407,-1.6313,-1.6468,-1.4987,-1.3493,-1.2001,-1.1612,-1.101,-1.0324,-1.051,-1.0814,-1.1387,-1.3855,0.0,0.0,0.0,0.0,0.0,0.0,0.0,0.0,0.0,0.0,0.0,0.0,0.0,-1.2769,-1.2533,-1.2269,-1.219,-1.2883,-1.3486,-1.4084,-1.4879,-1.4313,-1.4188,-1.6572,-1.6537,-1.6452,-1.7977,-1.8762,-1.8651,-1.6946,-1.5216,-1.3966,-1.3704,0.0,0.0,0.0,0.0,0.0,0.0,0.0,0.0,0.0,0.0,0.0,0.0,0.0,0.0,0.0,0.0,0.0,1.7578,1.6922,1.6539,1.6492,1.6507,1.6869,1.762,1.728,1.7738,1.8908,1.8478,1.8554,1.9152,2.0402,2.1155,2.1659,2.3573,2.4509,2.484,2.5655,2.6199,2.6522,2.613,2.6234,2.6455,0.0,0.0,0.0,0.0,0.0,0.0,0.0,0.0,0.0,0.0,0.0,0.0,0.0,0.0,0.0,0.0,0.0,0.0,0.0,-1.1893,-1.2916,-1.2871,-1.2568,-1.253,-1.2813,-1.2308,-1.2303,-1.2742,-1.4806,-1.612,-1.6655,-1.6145,-1.4746,-1.2628,-1.3303,-1.2887,-1.1745,-1.266,-1.3211,-1.361,-1.5345,-1.5536,0.0,0.0,0.0,0.0,0.0,0.0,0.0,0.0,-1.1258,-1.0986,-1.068,-1.0937,-1.1329,-1.1335,-1.1059,-1.08,-1.103,-1.2087,-1.3101,-1.309,-1.322,-1.4033,-1.6555,-1.7171,-1.7456,-1.8525,-1.9356,-1.9504,-1.8314,0.0,-1.5122,0.0,0.0,0.0,0.0,0.0,0.0,0.0,0.0,0.0,0.0,0.0,0.0,0.0,0.0,0.0,0.0,0.0,0.0,1.6244,1.5968,1.5816,1.5816,1.5816,1.6197,1.6922,1.7252,1.8123,1.9497,1.9296,1.953,2.0162,2.0615,2.1549,2.2787,2.3507,2.4309,2.5061,2.5373,2.5799,2.621,2.5689,2.5598,2.5709,0.0,0.0,0.0,0.0,0.0,0.0,0.0,0.0,0.0,0.0,0.0,0.0,0.0,0.0,0.0,0.0,0.0,0.0,-1.069,-1.1801,-1.2534,-1.2638,-1.1577,-1.0761,-1.0317,-0.9492,-0.9536,-1.0472,-1.3197,-1.5362,-1.6959,-1.7046,-1.6214,-1.4664,-1.5263,-1.5129,-1.4391,-1.4611,-1.4887,-1.5258,-1.6191,-1.6049,0.0,0.0,0.0,0.0,0.0,0.0,0.0,0.0,-0.9797,-0.9059,-0.8753,-0.913,-0.971,-0.9669,-0.9791,-0.9895,-0.9576,-1.0448,-1.1502,-1.1773,-1.214,-1.3173,-1.584,-1.6524,-1.6965,-1.8252,-1.8685,-1.8494,-1.7275,0.0,0.0,0.0,0.0,0.0,0.0,0.0,0.0,0.0,0.0,0.0,0.0,0.0,0.0,0.0,0.0,0.0,0.0,0.0,0.0,0.0,1.541,1.541,1.541,1.541,1.5748,1.6482,1.7257,1.8232,1.9475,1.9695,2.0055,2.0497,2.0696,2.152,2.2684,2.3069,2.393,2.4973,2.5128,2.5411,2.5689,2.5144,2.5051,2.5144,0.0,0.0,0.0,0.0,0.0,0.0,0.0,0.0,0.0,0.0,0.0,0.0,0.0,0.0,0.0,0.0,0.0,0.0,-1.0739,-1.1885,-1.2434,-1.2109,-1.0604,-0.9284,-0.8248,-0.5744,-0.5179,-0.6719,-1.038,-1.3868,-1.7101,-1.7377,-1.7896,-1.8526,-1.7627,-1.7745,-1.8534,-1.6334,-1.5653,-1.602,-1.6231,-1.5782,-1.5156,0.0,0.0,0.0,0.0,0.0,0.0,0.0,-0.8447,-0.6773,-0.6773,-0.7337,-0.7906,-0.7508,-0.8577,-0.9701,-0.8973,-0.8869,-0.9393,-1.1393,-1.1115,-1.1074,-1.3936,-1.4085,-1.4317,-1.6871,-1.6466,-1.5118,-1.3256,-1.2602,0.0,0.0,0.0,0.0,0.0,0.0,0.0,0.0,0.0,0.0,0.0,0.0,0.0,0.0,0.0,0.0,0.0,0.0,0.0,0.0,1.541,1.541,1.541,1.541,1.5758,1.6492,1.7246,1.795,1.8715,1.9475,1.9798,1.985,2.0497,2.0795,2.0894,2.2175,2.3376,2.443,2.4989,2.5182,2.5105,2.4576,2.4697,2.5012,0.0,0.0,0.0,0.0,0.0,0.0,0.0,0.0,0.0,0.0,0.0,0.0,0.0,0.0,0.0,0.0,0.0,0.0,-1.1547,-1.1016,-1.0866,-1.1245,-0.9642,-0.8991,-0.9521,-0.7598,-0.7331,-0.8793,-1.0242,-1.3007,-1.699,-1.7752,-1.7626,-1.674,-1.7651,-1.7449,-1.6447,-1.6255,-1.6165,-1.6212,-1.6976,-1.6419,-1.5274,0.0,0.0,0.0,0.0,0.0,0.0,0.0,0.0,0.0,-0.5444,-0.5928,-0.6797,-0.703,-0.7539,-0.7946,-0.7626,-0.9511,-1.1376,-1.0498,-1.1975,-1.3577,-1.338,-1.3234,-1.3466,-1.4791,-1.4943,-1.4212,-1.2272,0.0,0.0,0.0,0.0,0.0,0.0,0.0,0.0,0.0,0.0,0.0,0.0,0.0,0.0,0.0,0.0,0.0,0.0,0.0,0.0,0.0,1.541,1.541,1.541,1.541,1.5526,1.5758,1.6482,1.7468,1.8715,1.9475,1.9798,1.9798,2.0003,2.0346,2.0894,2.2175,2.2847,2.3112,2.3317,2.3374,2.3256,2.27,2.2579,2.27,0.0,0.0,0.0,0.0,0.0,0.0,0.0,0.0,0.0,0.0,-1.5169,-1.4841,0.0,0.0,0.0,0.0,0.0,0.0,-1.2074,-1.0677,-1.0191,-1.0959,-0.9262,-0.8357,-0.8467,-0.7903,-0.8215,-0.9423,-1.0421,-1.2795,-1.6415,-1.7852,-1.8183,-1.764,-1.8612,-1.8134,-1.6613,-1.6569,-1.6084,-1.5485,-1.6758,-1.6309,-1.5057,0.0,0.0,0.0,0.0,0.0,0.0,0.0,0.0,0.0,-0.4909,-0.5171,-0.5841,-0.6115,-0.6763,-0.7442,-0.7869,-0.9552,-1.1225,-1.1308,-1.2149,-1.2635,-1.1623,-1.1662,-1.1897,-1.1707,-1.1578,-1.1105,-0.9801,0.0,0.0,0.0,0.0,0.0,0.0,0.0,0.0,0.0,0.0,0.0,0.0,0.0,0.0,0.0,0.0,0.0,0.0,0.0,0.0,0.0,1.541,1.541,1.541,1.541,1.541,1.541,1.6151,1.6978,1.7841,1.8874,1.9527,1.9798,1.9798,2.0207,2.0845,2.1609,2.2025,2.2186,2.2271,2.2243,2.214,2.1824,2.1697,2.1697,0.0,0.0,0.0,0.0,0.0,0.0,0.0,0.0,0.0,-1.6244,-1.5899,-1.5652,0.0,0.0,0.0,-1.5803,-1.4297,-1.31,-1.2509,-1.0899,-1.0315,-1.107,-0.9662,-0.8113,-0.6559,-0.7781,-0.8708,-0.9248,-1.0817,-1.2931,-1.5523,-1.7557,-1.8973,-1.9836,-1.9806,-1.9115,-1.7918,-1.6822,-1.5451,-1.4175,-1.5777,-1.5637,-1.4641,-1.5982,0.0,0.0,0.0,0.0,0.0,0.0,0.0,0.0,-0.5197,-0.5016,-0.5257,-0.5029,-0.6171,-0.7703,-0.8785,-0.8989,-0.9649,-1.2608,-1.1402,-0.9389,-0.8816,-0.9301,-0.9446,-0.814,0.0,-0.667,0.0,0.0,0.0,0.0,0.0,0.0,0.0,0.0,0.0,0.0,0.0,0.0,0.0,0.0,0.0,0.0,0.0,0.0,0.0,0.0,0.0,1.5294,1.5352,1.541,1.541,1.541,1.541,1.541,1.6093,1.6425,1.6539,1.8015,1.9097,1.9798,1.9798,2.0156,2.0696,2.0746,2.1113,2.1506,2.1602,2.1554,2.1506,2.1506,2.1506,2.1506,0.0,0.0,0.0,0.0,0.0,0.0,0.0,0.0,-1.8205,-1.8124,-1.7317,-1.6888,-1.7249,-1.697,0.0,-1.7301,-1.5566,-1.4265,-1.3837,-1.2156,-1.1214,-1.1189,-1.2304,-1.2164,-1.0508,-1.2419,-1.2704,-1.1202,-1.0916,-1.2026,-1.4464,-1.6169,-1.7006,-1.7082,-1.7803,-1.7258,-1.5722,-1.4679,-1.4036,-1.3784,-1.4666,-1.4784,-1.4506,-1.5329,-1.5071,0.0,0.0,0.0,0.0,0.0,0.0,0.0,-0.6632,-0.6018,-0.5762,-0.492,-0.5617,-0.6523,-0.5824,-0.7341,-0.8901,-0.8281,-0.7651,-0.6827,-0.5455,-0.468,-0.4798,-0.6538,-0.5114,0.0,0.0,0.0,0.0,0.0,0.0,0.0,0.0,0.0,0.0,0.0,0.0,0.0,0.0,0.0,0.0,0.0,0.0,0.0,0.0,0.0,0.0,1.451,1.505,1.541,1.541,1.541,1.541,0.0,1.5584,1.5921,1.6539,1.8015,1.9097,1.9798,1.9798,1.9901,2.0055,2.0597,2.0597,2.0283,2.0782,2.0683,2.0232,2.0232,2.0232,2.0232,0.0,0.0,0.0,0.0,0.0,0.0,0.0,0.0,-1.9476,-1.8828,-1.8289,-1.7888,-1.7684,-1.7645,0.0,0.0,-1.5801,-1.4702,-1.4325,-1.2924,-1.209,-1.2023,-1.4004,-1.4314,-1.2559,-1.4251,-1.4128,-1.2028,-1.1389,-1.1932,-1.3557,-1.5116,-1.5921,-1.6105,-1.7062,-1.6407,-1.4539,-1.4724,-1.4133,-1.3206,-1.471,-1.4774,-1.4044,-1.4678,-1.4367,-1.3636,-1.3739,0.0,0.0,0.0,0.0,0.0,0.0,0.0,-0.6439,-0.5552,-0.5187,-0.5203,-0.5636,-0.6266,-0.66,-0.5585,-0.5283,-0.4944,-0.3659,-0.2327,-0.1724,-0.3175,0.0,0.0,0.0,0.0,0.0,0.0,0.0,0.0,0.0,0.0,0.0,0.0,0.0,0.0,0.0,0.0,0.0,0.0,0.0,0.0,0.0,1.5061,1.5235,1.4815,1.5167,1.541,1.541,1.541,1.541,1.541,1.541,1.5806,1.6539,1.7688,1.8382,1.8768,1.915,1.9254,1.9307,2.0042,2.0105,1.985,2.0194,2.0105,1.9798,1.9798,1.9798,1.9798,0.0,0.0,0.0,0.0,0.0,0.0,0.0,0.0,0.0,-1.9143,-1.9013,-1.8679,-1.7817,-1.8064,-1.7939,0.0,0.0,0.0,-1.4502,-1.3451,-1.2925,-1.316,-1.5185,-1.547,-1.3659,-1.4795,-1.4376,-1.2293,-1.1767,-1.1947,-1.2786,-1.4284,-1.5274,-1.5853,-1.6596,-1.5796,-1.3964,-1.4895,-1.4148,-1.2497,-1.4479,-1.4501,-1.3376,-1.3877,-1.3563,-1.2884,-1.2884,-1.3551,-1.4297,-1.3435,0.0,0.0,0.0,0.0,-0.753,-0.6424,-0.5161,-0.444,-0.5887,-0.5107,-0.3799,-0.3599,-0.3396,-0.3064,-0.2206,-0.0735,0.0534,0.0668,0.0,0.0,0.0,0.0,0.0,0.0,0.0,0.0,0.0,0.0,0.0,0.0,0.0,0.0,0.0,0.0,0.0,0.0,0.0,0.0,1.4608,1.506,1.5274,1.5167,1.5352,1.541,1.541,1.541,1.541,1.541,1.541,1.57,1.6322,1.6912,1.7357,1.7633,1.8232,1.8501,1.8555,1.9319,1.9592,1.9631,1.9747,1.9798,1.9798,1.9798,1.9798,1.9798,0.0,0.0,0.0,0.0,0.0,0.0,0.0,0.0,0.0,0.0,-1.9635,-1.9209,-1.8686,-1.8685,-1.8335,-1.7396,-1.6313,-1.541,-1.4791,0.0,0.0,-1.4176,-1.6129,-1.6392,-1.4576,-1.5384,-1.4656,-1.2293,-1.1322,-1.1295,-1.2244,-1.3714,-1.4792,-1.5442,-1.5177,-1.4628,-1.3812,-1.2567,-1.1881,-1.1646,-1.186,-1.2223,-1.2645,-1.2659,-1.2557,-1.2392,-1.2392,-1.2965,-1.3728,-1.3709,-1.3849,0.0,0.0,0.0,-0.9508,-0.7121,-0.6223,-0.5573,-0.3759,-0.249,-0.1717,-0.169,-0.1073,-0.0336,0.0536,0.0,0.2541,0.0,0.0,0.0,0.0,0.0,0.0,0.0,0.0,0.0,0.0,0.0,0.0,0.0,0.0,0.0,0.0,0.0,0.0,0.0,0.0,0.0,1.3789,1.4487,1.4744,1.4382,1.505,1.541,1.541,1.541,1.541,1.541,1.541,1.5468,1.5526,1.5633,1.6404,1.7633,1.7677,1.7743,1.7786,1.8543,1.8874,1.8927,1.9527,1.9798,1.9798,1.9798,1.9798,1.9798,0.0,0.0,0.0,0.0,0.0,0.0,0.0,0.0,0.0,0.0,0.0,-1.9503,-1.831,-1.8251,-1.7713,-1.624,-1.5514,-1.494,-1.4487,-1.4006,-1.4146,-1.5072,-1.6588,-1.6574,-1.4784,-1.4987,-1.3907,-1.1467,-1.0187,-0.98,-1.0212,-1.1438,-1.2895,-1.4458,-1.3831,-1.3285,-1.2844,-1.2154,-1.168,-1.1483,-1.1872,-1.3097,-1.4477,-1.2568,-1.295,-1.4241,-1.2366,-1.2268,-1.3035,-1.3067,-1.3504,-1.382,-1.2576,0.0,0.0,0.0,-0.595,-0.4244,-0.1436,-0.0604,-0.0353,0.0718,0.1206,0.161,0.2009,0.2811,0.3547,0.0,0.0,0.0,0.0,0.0,0.0,0.0,0.0,0.0,0.0,0.0,0.0,0.0,0.0,0.0,0.0,0.0,0.0,0.0,0.0,1.37,1.3563,1.4357,1.4694,1.4525,1.511,1.541,1.541,1.541,1.541,1.541,1.541,1.541,1.541,1.541,1.5748,1.6415,1.681,1.6978,1.7034,1.7797,1.8058,1.8167,1.8886,1.9202,1.9254,1.9643,1.9798,1.9747,0.0,0.0,0.0,0.0,0.0,0.0,0.0,0.0,0.0,0.0,0.0,-1.9526,-1.8215,0.0,0.0,0.0,-1.4973,-1.4524,-1.4144,-1.3988,-1.4326,-1.5252,-1.6381,-1.6184,-1.4452,-1.4272,-1.2955,-1.0404,-0.9112,-0.8459,-0.853,-0.92,-1.0686,-1.2791,-1.2456,-1.2207,-1.205,-1.1856,-1.158,-1.1369,-1.2535,-1.4216,-1.5763,-1.3609,-1.4355,-1.6109,-1.2773,-1.2176,-1.2881,-1.24,-1.2833,-1.3404,-1.2275,-1.149,0.0,0.0,0.0,-0.3213,-0.0485,0.0194,0.0491,0.2134,0.2591,0.2736,0.0,0.0,0.0,0.0,0.0,0.0,0.0,0.0,0.0,0.0,0.0,0.0,0.0,0.0,0.0,0.0,0.0,0.0,0.0,0.0,0.0,0.0,0.0,1.3389,1.3496,1.4111,1.4561,1.4775,1.5088,1.5303,1.541,1.541,1.541,1.541,1.541,1.541,1.541,1.541,1.541,1.541,1.5979,1.6208,1.6265,1.7034,1.7413,1.7688,1.8394,1.8821,1.9044,1.9592,1.9798,1.9695,0.0,0.0,0.0,0.0,0.0,0.0,0.0,0.0,0.0,0.0,0.0,-1.9214,-1.9136,-1.8381,-1.7487,-1.6409,-1.5446,-1.4616,-1.3963,-1.39,-1.3989,-1.4166,-1.5291,0.0,-1.3417,-1.3365,-1.2056,-0.9383,-0.8274,-0.7848,-0.8042,-0.7778,-0.8527,-1.0143,-1.1074,-1.1655,-1.1938,-1.0993,-1.0725,-1.1112,-1.3269,-1.4413,-1.5005,-1.6176,-1.6946,-1.7009,-1.3777,0.0,-1.3664,-1.2015,-1.2042,-1.2742,-1.2599,-1.2175,-1.1436,0.0,0.0,0.0,-0.1936,-0.0553,0.0646,0.1768,0.2358,0.2895,0.0,0.0,0.0,0.0,0.0,0.0,0.0,0.0,0.0,0.0,0.0,0.0,0.0,0.0,0.0,0.0,0.0,0.0,0.0,0.0,0.0,0.0,0.0,1.3086,1.3486,1.3545,1.3945,1.4756,1.4805,1.501,1.541,1.541,1.541,1.541,1.541,1.541,1.541,1.541,1.541,1.541,1.5468,1.5468,1.5526,1.6255,1.6978,1.7688,1.8394,1.915,1.9747,1.9798,1.9798,1.9695,0.0,0.0,0.0,0.0,0.0,0.0,0.0,0.0,0.0,0.0,0.0,0.0,0.0,-1.8086,-1.7298,-1.5812,-1.5087,-1.4476,-1.3938,-1.3903,-1.3851,-1.3787,-1.4873,-1.4699,-1.3017,-1.2761,-1.1499,-0.9108,-0.7482,-0.6565,-0.633,-0.6522,-0.6886,-0.7442,-0.8758,-1.0,-1.1009,-0.9664,0.0,-1.0722,-1.2913,-1.5343,-1.7573,-1.7079,0.0,0.0,0.0,0.0,0.0,-1.3866,-1.2812,-1.1693,-1.1051,-1.1126,-1.1034,-0.9096,-0.7313,-0.545,-0.3119,-0.1428,0.0143,0.2002,0.3169,0.4026,0.4673,0.0,0.0,0.0,0.0,0.0,0.0,0.0,0.0,0.0,0.0,0.0,0.0,0.0,0.0,0.0,0.0,0.0,0.0,0.0,0.0,0.0,0.0,0.0,1.4522,1.4427,1.4346,1.4365,1.4639,1.4863,1.501,1.5273,1.541,1.541,1.541,1.541,1.541,1.541,1.541,1.541,1.541,1.541,1.541,1.57,1.5979,1.6244,1.7024,1.7743,1.8447,1.8927,1.9371,1.9643,0.0,0.0,0.0,0.0,0.0,0.0,0.0,0.0,-1.8649,-1.8956,0.0,0.0,0.0,0.0,-1.7167,-1.5365,-1.4897,-1.4478,-1.3941,-1.3752,-1.3552,-1.3292,-1.411,-1.3985,-1.2723,-1.2281,-1.11,-0.9139,-0.7287,-0.6056,-0.5415,-0.568,-0.5844,-0.5978,-0.6888,-0.8286,0.0,0.0,0.0,-1.0366,0.0,0.0,-1.8291,0.0,0.0,0.0,0.0,0.0,0.0,0.0,0.0,0.0,0.0,0.0,0.0,0.0,-0.8113,-0.7056,-0.4853,-0.3112,-0.1421,0.0763,0.2482,0.3752,0.4441,0.0,0.0,0.0,0.0,0.0,0.0,0.0,0.0,0.0,0.0,0.0,0.0,0.0,0.0,0.0,0.0,0.0,0.0,0.0,0.0,0.0,0.0,0.0,1.5163,1.4817,1.4502,1.4355,1.4912,1.5215,1.5215,1.5644,1.5859,1.585,1.5703,1.5625,1.5625,1.5478,1.541,1.5352,1.5108,1.5167,1.541,1.541,1.5526,1.5806,1.6322,1.6922,1.7688,1.8447,1.898,1.9267,0.0,0.0,0.0,0.0,0.0,0.0,0.0,0.0,-1.8502,-1.8755,0.0,0.0,0.0,0.0,0.0,-1.5201,-1.4977,-1.4629,-1.3955,-1.3468,-1.3023,-1.2614,-1.292,-1.2914,-1.2523,-1.1909,-1.0882,-0.9405,-0.7791,-0.6442,-0.5399,-0.5256,-0.5415,-0.5797,-0.563,-0.6737,-0.8796,0.0,-0.9962,-1.0145,0.0,-1.771,-1.6849,0.0,0.0,0.0,-1.8437,-1.7868,0.0,0.0,0.0,0.0,0.0,0.0,0.0,0.0,-0.931,-0.8382,0.0,0.0,0.0,-0.2008,0.0,0.0,0.0,0.0,0.0,0.0,0.0,0.0,0.0,0.0,0.0,0.0,0.0,0.0,0.0,0.0,0.0,0.0,0.0,0.0,0.0,0.0,0.0,0.0,0.0,1.5257,1.5268,1.4566,1.4346,1.4775,1.5605,1.6105,1.6105,1.6504,1.6665,1.6728,1.6289,1.6135,1.6105,1.5625,1.542,1.5352,1.4569,1.4688,1.5352,1.5352,1.5806,1.6425,1.6436,1.6922,1.7633,1.8394,1.8661,1.8555,0.0,0.0,0.0,0.0,0.0,-1.9847,-1.8919,-1.8513,-1.839,0.0,0.0,0.0,-1.833,-1.745,-1.6631,-1.6003,-1.5838,-1.5237,-1.3973,-1.3591,-1.3143,-1.2552,-1.2842,-1.2987,-1.2858,-1.2036,-1.0955,-0.9617,-0.7914,-0.651,-0.541,-0.5408,-0.5547,-0.5815,-0.6292,-0.6771,-0.7244,-0.7656,0.0,0.0,-1.4159,-1.6471,0.0,0.0,0.0,0.0,0.0,-2.2123,0.0,0.0,-1.9323,-1.5407,0.0,0.0,-1.0089,0.0,-0.9902,-0.955,-0.8615,0.0,0.0,0.0,0.0,0.0,0.0,0.0,0.0,0.0,0.0,0.0,0.0,0.0,0.0,0.0,0.0,0.0,0.0,0.0,0.0,0.0,0.0,0.0,0.0,0.0,0.0,0.0,1.6707,1.6638,1.6927,1.5464,1.4658,1.4785,1.5312,1.5586,1.5586,1.6348,1.6665,1.6665,1.6602,1.6377,1.6115,1.5998,1.5703,1.541,1.5167,1.4874,1.451,1.451,1.4619,1.4914,1.5459,1.614,1.681,1.7034,1.7468,1.7797,0.0,0.0,-2.223,-2.1258,-2.072,-2.0146,-1.9254,-1.9081,-1.9029,0.0,0.0,0.0,-1.8189,-1.8103,-1.7606,-1.6435,-1.6218,-1.5555,-1.4201,-1.3807,-1.3403,-1.2864,-1.3019,-1.3144,-1.3214,-1.2472,-1.1458,-1.0149,-0.872,-0.7323,-0.5991,-0.5941,-0.5972,-0.6109,-0.6549,-0.6727,-0.6742,0.0,0.0,0.0,-1.3721,0.0,0.0,-2.0097,-2.1827,0.0,0.0,0.0,-2.1541,-2.3805,-2.0896,0.0,0.0,0.0,0.0,0.0,-1.017,-1.0096,-0.9629,-0.8932,-0.802,-0.6773,0.0,0.0,0.0,0.0,0.0,0.0,0.0,0.0,0.0,0.0,0.0,0.0,0.0,0.0,0.0,0.0,0.0,0.0,0.0,0.0,0.0,0.0,0.0,1.8239,1.7942,1.7546,1.718,1.5782,1.5049,1.5049,1.5459,1.5771,1.5967,1.666,1.709,1.7266,1.709,1.6865,1.6602,1.6292,1.5928,1.5674,1.5126,1.4451,1.3726,1.3726,1.3726,1.3786,1.4569,1.5157,1.5613,1.6255,1.6754,1.709,0.0,0.0,-2.2249,-2.0994,-2.0803,-2.0526,-1.9613,-1.9777,-1.9921,0.0,-1.9708,-1.9567,-1.9207,-1.983,-1.9332,-1.6903,-1.6495,-1.5839,-1.4626,-1.4111,-1.3725,-1.3378,-1.3362,-1.3421,-1.3557,-1.3105,-1.2162,-1.0717,-0.9771,-0.8437,-0.6786,-0.6596,-0.6516,-0.6579,-0.6613,-0.6759,-0.6986,-0.7178,0.0,-0.8497,-1.3964,-1.5208,0.0,0.0,-1.9782,0.0,-2.125,-2.126,-2.056,-2.462,-2.3012,0.0,0.0,0.0,0.0,0.0,-1.0449,-1.0662,-1.0293,-1.0056,-0.9722,-0.8869,0.0,0.0,-0.4077,-0.0513,0.0,0.0,0.0,0.0,0.0,0.0,0.0,0.0,0.0,0.0,0.0,0.0,0.0,0.0,0.0,0.0,0.0,0.0,1.8702,1.9709,1.9093,1.8018,1.6606,1.5806,1.541,1.541,1.584,1.6279,1.6728,1.7168,1.7598,1.8008,1.7637,1.7356,1.7212,1.6427,1.6049,1.5921,1.4629,1.3726,1.3066,1.2895,1.2887,1.2948,1.3726,1.4145,1.4382,1.5728,1.6312,1.6379,-2.2513,-2.272,-2.2753,-2.2482,-2.1301,-2.0467,-2.0568,-1.982,-1.9545,-2.0441,-2.042,-2.042,-2.0715,-2.0478,-1.9821,-1.8665,-1.781,-1.6797,-1.5533,-1.4722,-1.4124,-1.3795,-1.3632,-1.3693,-1.3981,-1.3585,-1.2344,-1.0249,-0.9656,-0.8443,-0.6629,-0.6534,-0.6715,-0.7069,-0.7286,-0.7408,-0.7454,0.0,0.0,-0.9648,-1.2412,0.0,-1.4883,-1.8663,-2.0055,-2.0298,-2.2488,-2.3006,-2.2725,0.0,-2.2078,-2.0564,0.0,0.0,0.0,0.0,0.0,0.0,0.0,0.0,0.0,0.0,0.0,0.0,0.0,-0.2856,0.0,0.0,0.0,0.0,0.0,0.0,0.0,0.0,0.0,0.0,0.0,0.0,0.0,0.0,0.0,0.0,0.0,0.0,1.9583,1.9798,1.901,1.7957,1.656,1.5806,1.541,1.541,1.584,1.6279,1.6728,1.7168,1.7598,1.8008,1.793,1.7273,1.6172,1.6008,1.5761,1.5378,1.4093,1.3555,1.3413,1.2437,1.2012,1.2143,1.294,1.3614,1.4273,1.456,1.504,1.5633,-2.3417,-2.2952,-2.2546,-2.2544,-2.1306,-2.0286,-2.0274,-2.008,-2.0086,-2.0442,-2.0823,-2.1082,-2.1138,-2.0611,-1.9785,-1.8609,-1.7612,-1.6582,-1.5472,-1.4869,-1.4278,-1.3624,-1.3792,-1.381,-1.3606,-1.3823,-1.2818,-1.0504,-1.0305,-0.9077,-0.6888,-0.687,-0.7384,-0.8333,-0.7818,-0.8029,-0.8697,0.0,-0.8281,-0.9365,-1.1825,0.0,-1.5004,-1.8017,-1.9579,-2.0254,-2.1186,-2.2119,-2.2801,-2.1962,-2.0763,0.0,0.0,-1.7221,-1.6042,0.0,-1.3208,-1.3994,0.0,0.0,0.0,-1.0383,0.0,0.0,0.0,0.0,0.0,0.0,0.0,0.0,0.0,0.0,0.0,0.0,0.0,0.0,0.0,0.0,0.0,0.0,0.0,0.0,0.0,0.0,1.9643,1.9254,1.8373,1.7438,1.657,1.5806,1.5508,1.5732,1.5947,1.6387,1.7051,1.7275,1.7598,1.8008,1.7501,1.6958,1.6251,1.5512,1.5119,1.4846,1.3841,1.3219,1.2869,1.2087,1.1593,1.1288,1.2081,1.2634,1.3053,1.3425,1.3846,1.4213,-2.372,-2.2866,-2.2131,-2.2042,-2.1081,-2.0164,-1.9799,-2.0218,-2.0559,-2.046,-2.1327,-2.1844,-2.1573,-2.1253,-2.0611,-1.9405,-1.8593,-1.7634,-1.6415,-1.5952,-1.5244,-1.4165,-1.4224,-1.4148,-1.3853,-1.4096,-1.3131,-1.0912,-1.0748,-0.9465,-0.7152,-0.7053,-0.7662,-0.8846,-0.8338,-0.8562,0.0,0.0,0.0,-0.9218,0.0,-1.2938,-1.4205,-1.7093,-1.8362,-1.8645,-1.8961,-2.0368,-2.1953,-2.1226,0.0,-1.8178,-1.9336,-1.789,0.0,0.0,0.0,0.0,0.0,0.0,0.0,0.0,0.0,-1.0002,0.0,0.0,0.0,0.0,0.0,0.0,0.0,0.0,0.0,0.0,0.0,0.0,0.0,0.0,0.0,0.0,0.0,0.0,0.0,0.0,1.9113,1.8814,1.7522,1.6649,1.6446,1.5878,1.5693,1.6115,1.6213,1.6582,1.7373,1.7383,1.7598,1.8008,1.707,1.6498,1.6271,1.4919,1.438,1.4271,1.3439,1.2806,1.2325,1.1814,1.122,1.0681,1.1351,1.1648,1.1896,1.2512,1.2887,1.3009,-2.2698,-2.2319,-2.1894,-2.1458,-2.0792,-2.0283,-2.0239,-1.9745,-1.9853,-2.1179,-2.2491,-2.3234,-2.3074,-2.3784,-2.4304,-2.4374,0.0,0.0,-2.0918,0.0,-1.8757,-1.7105,-1.5429,-1.5189,-1.6533,-1.4616,-1.2742,-1.0993,-0.9986,-0.8644,-0.7014,-0.6536,-0.6415,-0.6674,-0.8904,0.0,0.0,0.0,-1.0547,0.0,-1.0555,-1.0822,0.0,-1.5294,-1.5829,-1.4932,-1.6935,-1.9025,-2.0624,0.0,-1.9326,-1.9122,0.0,-1.7792,0.0,0.0,0.0,0.0,0.0,0.0,0.0,0.0,-1.0622,0.0,0.0,0.0,0.0,0.0,0.0,0.0,0.0,0.0,0.0,0.0,0.0,0.0,0.0,0.0,0.0,0.0,0.0,0.0,0.0,0.0,0.0,1.8951,1.66,1.5373,1.6088,1.6047,1.6066,1.6125,1.6445,1.6894,1.7373,1.7383,1.7598,1.8008,1.707,1.614,1.5296,1.4268,1.3757,1.3742,1.2537,1.2372,1.2758,1.1584,1.0918,1.0624,1.0681,1.1163,1.1834,1.1896,1.2389,1.3009,-2.2393,-2.239,-2.1976,-2.1144,-2.0793,-2.0379,-1.9754,-1.9999,-2.0712,-2.2031,-2.2036,-2.201,-2.2234,0.0,0.0,0.0,0.0,-2.2017,0.0,0.0,-1.8594,-1.5598,-1.5018,-1.4844,-1.5017,-1.4133,-1.2911,-1.1345,-1.0242,-0.8838,-0.7168,-0.6674,-0.6766,-0.7419,-0.8779,0.0,-0.9354,0.0,0.0,0.0,0.0,0.0,0.0,-1.3313,-1.4005,-1.3642,-1.5455,-1.6994,-1.809,0.0,-1.7424,0.0,0.0,0.0,0.0,0.0,0.0,0.0,0.0,0.0,0.0,0.0,0.0,0.0,-1.0562,0.0,-0.9092,0.0,0.0,0.0,0.0,0.0,0.0,0.0,0.0,0.0,0.0,0.0,0.0,0.0,0.0,0.0,0.0,0.0,0.0,0.0,0.0,1.5265,1.6377,1.6455,1.6562,1.6826,1.7012,1.7314,1.7744,1.7744,1.7832,1.8008,1.6507,1.5587,1.5163,1.3593,1.2879,1.2865,1.2206,1.2079,1.2283,1.1499,1.1069,1.0815,1.0815,1.0958,1.1108,1.1108,1.1296,1.1608,-2.1633,-2.1868,-2.1606,-2.0841,-2.0526,-2.0034,-1.8944,-1.9815,-2.0868,0.0,0.0,0.0,-2.1425,-2.0699,0.0,0.0,0.0,-2.268,0.0,0.0,-1.9657,-1.7143,-1.5744,0.0,0.0,-1.4356,-1.2959,-1.1816,-1.0352,-0.893,-0.7533,-0.675,-0.6765,-0.7476,-0.8308,-0.9238,-1.0154,0.0,0.0,-1.0867,-0.9848,-0.9677,-1.0202,-1.1997,-1.2947,-1.3476,-1.4508,-1.5397,-1.6088,-1.6583,-1.5922,0.0,-1.8847,0.0,0.0,0.0,0.0,0.0,-1.1433,0.0,0.0,0.0,0.0,0.0,0.0,0.0,0.0,0.0,0.0,0.0,0.0,0.0,0.0,0.0,0.0,0.0,0.0,0.0,0.0,0.0,0.0,0.0,0.0,0.0,0.0,0.0,0.0,0.0,1.6807,1.6914,1.7061,1.7373,1.75,1.7705,1.8008,1.7725,1.7647,1.7579,1.5658,1.4807,1.4736,1.3091,1.2305,1.2291,1.2078,1.1944,1.185,1.1637,1.1376,1.1102,1.1022,1.0862,1.0668,1.0651,1.0624,1.0624,-2.0009,-2.0245,-2.046,-2.0424,-1.9823,-1.9006,-1.7923,0.0,0.0,0.0,0.0,0.0,0.0,0.0,0.0,0.0,0.0,-2.818,-2.5636,0.0,-2.3654,0.0,0.0,0.0,0.0,0.0,-1.2628,-1.2363,-0.9933,-0.8541,-0.8139,-0.6561,-0.5709,-0.5573,-0.754,-0.8192,-0.798,-1.0594,-1.227,-1.303,-1.2242,-1.1756,-1.163,0.0,-1.2719,-1.4145,-1.4204,0.0,0.0,-1.5064,-1.5521,0.0,0.0,0.0,0.0,0.0,0.0,0.0,0.0,0.0,0.0,-1.0249,0.0,0.0,0.0,0.0,-1.1042,0.0,0.0,0.0,0.0,0.0,0.0,0.0,0.0,0.0,0.0,0.0,0.0,0.0,0.0,0.0,0.0,0.0,0.0,0.0,0.0,0.0,1.7158,1.7363,1.7373,1.7383,1.7773,1.7998,1.8008,1.707,1.6636,1.6636,1.4665,1.3745,1.3745,1.2732,1.2305,1.2305,1.2291,1.2131,1.187,1.1857,1.1683,1.1383,1.1102,1.0982,1.0949,1.0732,1.0624,1.0624,-1.9462,-1.9298,-1.9255,-1.9325,-1.935,-1.9082,0.0,-1.8691,0.0,0.0,0.0,0.0,0.0,0.0,-2.3716,0.0,0.0,-2.6663,-2.4017,-2.3351,0.0,0.0,0.0,-1.7656,0.0,0.0,-1.3773,-1.2477,-1.0657,-0.9094,-0.7771,-0.6565,-0.5614,-0.5017,0.0,-0.794,0.0,0.0,0.0,0.0,0.0,-1.1363,-1.1592,0.0,0.0,-1.2562,-1.257,-1.3459,0.0,-1.4482,-1.5154,-1.6261,-1.7705,-1.7768,-1.7395,-1.8055,-1.7646,0.0,0.0,0.0,-1.6501,-1.209,0.0,0.0,0.0,0.0,0.0,0.0,0.0,0.0,0.0,0.0,0.0,0.0,0.0,0.0,0.0,0.0,0.0,0.0,0.0,0.0,0.0,0.0,0.0,0.0,0.0,0.0,0.0,1.7803,1.7803,1.7803,1.7939,1.7716,1.707,1.6775,1.6289,1.5649,1.4307,1.3673,1.3673,1.2739,1.2305,1.2305,1.2305,1.2245,1.2151,1.2151,1.1984,1.169,1.1396,1.1162,1.0955,1.0668,1.0624,1.0624,-1.9079,-1.8717,-1.8522,-1.8759,-1.8839,0.0,0.0,0.0,0.0,0.0,-2.0679,0.0,-2.2619,0.0,-2.3081,0.0,-2.5476,-2.5323,-2.2976,-2.292,0.0,-2.2678,-1.9978,0.0,0.0,0.0,0.0,-1.4706,-1.1693,-0.9522,-0.8104,-0.6642,-0.5488,-0.4705,0.0,-0.7026,-0.8643,0.0,-1.117,0.0,0.0,-1.1846,0.0,0.0,-1.1643,-1.1802,0.0,-1.3537,-1.4264,-1.4855,-1.5529,-1.6537,-1.8845,-1.8424,-1.7469,-1.9407,-1.862,-1.6956,-1.5903,-1.7363,0.0,-1.3748,-1.4779,0.0,-1.1304,0.0,0.0,0.0,0.0,0.0,0.0,0.0,0.0,0.0,0.0,0.0,0.0,0.0,0.0,0.0,0.0,0.0,0.0,0.0,0.0,0.0,0.0,0.0,0.0,0.0,1.8008,1.8008,1.7647,1.7217,1.6636,1.593,1.5296,1.4665,1.3665,1.3164,1.3164,1.2592,1.2305,1.2305,1.1922,1.1996,1.2224,1.1552,1.1365,1.1473,1.1192,1.0974,1.0757,1.0677,1.0692,1.0715,-1.8857,-1.8418,0.0,0.0,-1.8257,0.0,0.0,0.0,-1.8111,0.0,-1.9513,-2.0337,-2.2013,-2.269,-2.3112,-2.3331,-2.4478,0.0,-2.2863,-2.2963,0.0,0.0,-2.3012,-2.3518,-2.7402,0.0,0.0,0.0,0.0,-0.9769,-0.9,-0.6751,-0.5274,-0.4518,-0.4087,0.0,-0.8261,-0.9345,-1.1472,-1.4078,-1.37,-1.3266,-1.2812,-1.2579,0.0,-1.1971,-1.4439,-1.4864,-1.4501,-1.5958,-1.6482,-1.6912,-1.8907,-1.908,-1.8979,-2.0908,-2.0992,-2.004,-1.8225,-1.7882,-1.7468,-1.4971,0.0,0.0,0.0,0.0,-1.5263,0.0,0.0,0.0,0.0,0.0,0.0,0.0,0.0,0.0,0.0,0.0,0.0,0.0,0.0,0.0,0.0,0.0,0.0,0.0,0.0,0.0,0.0,0.0,0.0,1.8008,1.7139,1.6636,1.6636,1.4736,1.3738,1.3593,1.2732,1.2305,1.2224,1.2224,1.2224,1.215,1.1242,1.1316,1.2077,1.0121,0.997,1.076,1.0501,1.0395,1.0438,1.0574,1.0768,1.0995,-1.908,-1.8906,-1.8741,0.0,-1.7661,-1.6657,0.0,0.0,0.0,0.0,-1.9738,-2.0546,-2.3511,-2.357,-2.3553,-2.3994,-2.4728,0.0,0.0,0.0,0.0,-2.5798,-2.3157,-2.3472,-2.7402,-2.178,0.0,-1.8695,0.0,0.0,-0.8308,-0.6386,-0.4866,-0.378,0.0,0.0,-0.6798,-0.7866,-0.9974,-1.2583,-1.2938,-1.2622,0.0,0.0,-1.3195,-1.2729,-1.4044,-1.4746,-1.5167,-1.5526,-1.6384,-1.7258,-1.7181,-1.7752,-1.8394,-1.8494,-1.8401,-1.8031,-1.7017,-1.7157,-1.6961,-1.4303,-1.4339,-1.4809,0.0,0.0,0.0,0.0,0.0,0.0,0.0,0.0,0.0,0.0,0.0,0.0,0.0,0.0,0.0,0.0,0.0,0.0,0.0,0.0,0.0,0.0,0.0,0.0,0.0,0.0,0.0,1.7959,1.7794,1.7285,1.6636,1.5438,1.4068,1.2604,1.2352,1.1922,1.1168,1.1168,1.1168,1.1162,1.0938,1.0938,1.1162,1.064,1.0565,1.076,1.0501,1.0716,1.1158,1.1147,1.1116,1.0995,-1.8873,0.0,0.0,-1.8375,0.0,0.0,-1.7457,0.0,0.0,-1.981,-1.9717,0.0,-2.2881,-2.3302,-2.3573,-2.3885,-2.4507,0.0,0.0,0.0,0.0,-2.5171,-2.4251,-2.5134,-2.8128,-2.4279,0.0,-2.0758,0.0,0.0,-0.8789,-0.6571,-0.4858,-0.3668,0.0,-0.466,0.0,-0.8749,-1.0365,-1.1438,-1.2867,0.0,0.0,-1.3489,-1.3635,-1.3123,-1.4304,-1.4815,-1.4874,-1.4874,-1.5158,-1.5484,-1.5387,-1.5612,-1.6022,-1.6322,-1.6231,-1.5848,-1.5452,-1.5572,-1.5577,-1.4417,-1.4758,-1.5222,-1.466,-1.5828,-1.6855,0.0,0.0,0.0,0.0,0.0,0.0,0.0,0.0,0.0,0.0,0.0,0.0,0.0,0.0,0.0,0.0,0.0,0.0,0.0,0.0,0.0,0.0,0.0,0.0,1.6457,1.5818,1.5578,1.5992,1.3292,1.1824,1.1575,1.1114,1.0609,1.0115,1.0079,1.009,1.0115,0.9664,0.9739,1.0115,0.9205,0.9059,0.9497,0.9818,1.0707,1.181,1.181,1.1543,1.1182,0.0,0.0,0.0,0.0,0.0,0.0,0.0,-1.7071,0.0,-1.9169,0.0,-1.9903,-2.1246,-2.2401,-2.3146,-2.3228,0.0,-2.3902,-2.2768,-2.4222,-2.4885,-2.4298,-2.5581,-2.7127,-2.8858,-2.6954,0.0,0.0,0.0,0.0,-0.9609,-0.7026,-0.5176,-0.4032,0.0,0.0,0.0,-1.0283,-1.1288,0.0,-1.2903,-1.2959,-1.1847,-1.336,-1.3561,-1.3191,-1.4569,-1.4628,-1.4085,-1.4154,-1.3597,-1.2923,-1.3588,-1.3253,-1.2907,-1.4227,-1.411,-1.3536,-1.3202,-1.3109,-1.3227,-1.3852,-1.4487,-1.4924,-1.4489,-1.6137,-1.7245,-1.5348,-1.6193,-1.765,0.0,0.0,0.0,0.0,0.0,0.0,0.0,0.0,0.0,0.0,0.0,0.0,0.0,0.0,0.0,0.0,0.0,0.0,0.0,0.0,0.0,0.0,1.3388,0.0,1.4776,0.0,0.912,1.0392,0.9631,0.9252,0.9064,0.8946,0.8966,0.9074,0.8161,0.8313,0.8993,0.7253,0.7099,0.8084,0.8993,1.0501,1.2305,1.2305,1.1957,1.1476,0.0,0.0,0.0,0.0,0.0,-1.7696,-1.8434,-1.7467,-1.7227,-1.8649,-1.8453,-1.8821,-2.0592,-2.1264,-2.1767,-2.2223,-2.3058,0.0,0.0,0.0,0.0,-2.5117,-2.5326,-2.6228,-2.7912,-2.639,-2.4358,0.0,0.0,0.0,-0.886,-0.7209,-0.5866,-0.481,0.0,0.0,-0.7922,-0.8675,0.0,-1.0806,-1.1772,-1.195,-1.1792,-1.2814,-1.3134,-1.307,-1.3312,-1.3312,-1.3304,-1.3965,-1.3201,-1.1951,-1.2174,-1.1618,-1.0982,-1.1265,-1.1203,-1.0809,-0.9262,-0.8874,-0.8748,-0.8133,-0.864,-0.9678,-1.1368,-1.3211,-1.4607,-1.484,-1.6081,-1.6854,-1.6075,0.0,0.0,0.0,0.0,0.0,0.0,0.0,0.0,0.0,0.0,0.0,0.0,0.0,0.0,0.0,0.0,0.0,0.0,0.0,0.0,0.0,0.0,0.0,0.0,0.0,1.1121,0.8176,0.9752,0.9622,0.8084,0.8049,0.8053,0.8084,0.7859,0.7936,0.8012,0.7706,0.8161,0.9074,0.9221,1.0501,1.2305,1.2305,1.2084,1.1757,0.0,0.0,0.0,0.0,0.0,0.0,0.0,-1.7538,0.0,-1.8114,-1.7975,-1.8324,-1.9622,-2.0842,-2.1844,-2.2543,-2.3341,-2.4028,-2.4353,-2.4154,-2.444,-2.5334,-2.5246,0.0,-2.7604,-2.7612,-2.5589,-2.1403,0.0,0.0,-0.9084,-0.7523,-0.6373,-0.5599,0.0,-0.7314,0.0,0.0,0.0,-1.0716,-1.1914,-1.1886,-1.1279,-1.2506,-1.2458,-1.1779,-1.2174,-1.1804,-1.1205,-1.1981,-1.1148,-0.9775,-0.9793,-0.9545,-0.9227,-0.9227,-0.8884,-0.8217,-0.6845,-0.5849,-0.524,-0.5686,-0.5804,-0.6404,-0.8813,-1.065,-1.1905,-1.1913,-1.3793,-1.5595,-1.62,-1.6256,0.0,0.0,0.0,0.0,0.0,0.0,0.0,0.0,0.0,0.0,0.0,0.0,0.0,0.0,0.0,0.0,0.0,0.0,0.0,0.0,0.0,0.0,0.0,0.0,0.0,0.848,0.8337,0.7828,0.7019,0.6931,0.6939,0.7022,0.7022,0.7022,0.7099,0.7557,0.8389,0.9372,0.9895,1.1019,1.2305,1.2305,1.2118,1.1824,0.0,-1.6996,0.0,0.0,-1.6642,0.0,-1.6287,-1.6869,-1.7461,-1.7722,-1.7759,-1.8102,-1.8946,-2.0617,-2.1939,-2.275,-2.359,-2.4118,-2.4292,-2.4132,-2.434,-2.493,-2.4872,-2.55,-2.6908,-2.8595,-2.6958,0.0,0.0,0.0,0.0,-0.8367,-0.7175,0.0,0.0,0.0,0.0,0.0,-1.1433,-1.0794,-1.2016,-1.1725,-1.0744,-1.1779,-1.1406,-1.0358,-1.0788,-0.9971,-0.8801,-0.9273,-0.8639,-0.7767,-0.7962,-0.7762,-0.7432,-0.7432,-0.6616,-0.5549,-0.4449,-0.2981,-0.2046,-0.3213,-0.3136,-0.3316,-0.5357,-0.7235,-0.8443,-0.7823,-1.0465,-1.3451,-1.5497,-1.5845,0.0,0.0,0.0,0.0,0.0,0.0,0.0,0.0,0.0,0.0,0.0,0.0,0.0,0.0,0.0,0.0,0.0,0.0,0.0,0.0,0.0,0.0,1.1985,0.0,0.7677,0.0,0.7123,0.6366,0.6257,0.6135,0.6146,0.6338,0.6338,0.6416,0.6718,0.7706,0.8689,0.9669,1.0484,1.1391,1.2305,1.2305,1.2297,1.2196,0.0,0.0,0.0,0.0,0.0,0.0,0.0,-1.4916,-1.6096,-1.7764,-1.7955,-1.8268,-1.9167,-2.0158,-2.1037,-2.1939,-2.275,-2.3531,-2.4234,-2.3239,-2.2936,-2.3742,-2.3699,-2.399,-2.4771,-2.752,-2.7216,0.0,0.0,0.0,0.0,-1.0244,-0.876,0.0,0.0,0.0,0.0,-1.1163,-1.1013,-1.16,-1.1066,-1.0744,-1.0561,-0.9907,-0.9524,-0.9332,-0.8603,-0.7757,-0.6846,-0.6044,-0.6244,-0.6981,-0.7767,-0.6902,-0.5522,-0.5522,-0.4306,-0.2644,-0.0932,0.02,0.1131,0.1799,0.1397,0.073,0.053,-0.1515,-0.3285,-0.3224,-0.6527,-0.9702,-1.0748,-1.3334,-1.5565,0.0,0.0,0.0,0.0,0.0,0.0,0.0,0.0,0.0,0.0,0.0,0.0,0.0,0.0,0.0,0.0,0.0,0.0,0.0,0.0,0.8726,0.6263,0.9023,0.0,0.651,0.729,0.7161,0.6261,0.6247,0.6247,0.6338,0.6338,0.6795,0.7706,0.877,0.9744,1.0634,1.0783,1.1391,1.2305,1.2305,1.2785,1.3367,0.0,0.0,0.0,0.0,0.0,0.0,0.0,-1.5013,-1.5658,-1.7001,-1.7139,-1.7687,-1.9166,-2.0074,-2.0719,-2.1101,-2.231,-2.3005,-2.2847,-2.2923,-2.3093,-2.342,-2.337,-2.4084,-2.5585,-2.6745,-2.6225,0.0,0.0,0.0,0.0,0.0,0.0,0.0,0.0,-1.1743,-1.2384,-1.1564,-1.1464,-1.171,-1.0345,-0.9849,-0.9722,-0.8871,-0.8549,-0.835,-0.6902,-0.6183,-0.5654,-0.4201,-0.4337,-0.5067,-0.486,-0.4331,-0.3602,-0.306,-0.1993,-0.0664,0.1061,0.2588,0.3786,0.4177,0.3982,0.359,0.3058,0.126,-0.0398,-0.093,-0.4449,-0.8011,-0.9756,-1.1268,-1.2924,0.0,0.0,0.0,0.0,0.0,0.0,0.0,0.0,0.0,0.0,0.0,0.0,0.0,0.0,0.0,0.0,0.0,0.0,0.5301,0.0,0.8518,0.6498,0.8184,0.8403,0.7139,0.6995,0.6721,0.6338,0.6338,0.6641,0.7176,0.7176,0.7783,0.877,0.982,1.0415,1.0858,1.1465,1.1922,1.2372,1.2952,1.3382,1.3723,-1.4233,0.0,-1.3679,0.0,-1.3835,-1.3917,-1.4301,-1.4593,-1.5092,-1.607,-1.6428,-1.7316,-1.91,-2.0074,-2.0719,-2.0974,-2.231,-2.2884,-2.2322,-2.2748,-2.3002,-2.3002,-2.3008,0.0,-2.551,-2.5821,-2.5558,-2.4678,-2.1812,0.0,0.0,-1.4145,0.0,0.0,-1.316,-1.272,-1.2237,-1.1644,-1.1267,-1.0954,-0.9512,-0.8737,-0.8404,-0.7558,-0.7033,-0.6633,-0.5058,-0.4326,-0.3924,-0.2403,-0.2138,-0.2401,-0.2338,-0.1936,-0.1401,-0.0733,0.0266,0.1467,0.2654,0.4315,0.5716,0.569,0.5705,0.5522,0.492,0.3392,0.1666,0.0267,-0.2444,-0.5474,-0.8393,-0.9061,-0.9984,-1.2411,0.0,0.0,0.0,0.0,0.0,0.0,0.0,0.0,0.0,0.0,0.0,0.0,0.0,0.0,0.0,0.0,0.0,0.0,0.0,0.0,0.0,0.7385,0.7783,0.7783,0.6795,0.6338,0.6338,0.6338,0.6872,0.7783,0.8089,0.8841,0.982,1.0864,1.1236,1.1316,1.1996,1.2305,1.2378,1.3025,1.3455,1.3745,-1.2547,-1.3243,-1.3745,-1.2844,-1.3114,-1.3187,-1.2417,-1.3098,-1.4099,-1.5092,-1.6,-1.7316,-1.91,-2.0074,-2.0974,-2.1815,-2.2628,-2.3078,-2.3078,-2.2623,-2.2309,0.0,0.0,-2.2734,-2.3424,-2.4665,-2.5646,-2.6289,0.0,0.0,-2.0799,-1.6086,-1.3947,-1.4037,-1.335,-1.2941,-1.2764,-1.121,-1.0066,-0.9274,-0.835,-0.7483,-0.6542,-0.5647,-0.4791,-0.3924,-0.3072,-0.2136,-0.1198,-0.0334,0.0533,0.0932,-0.0799,-0.0133,0.1265,0.1265,0.2534,0.3949,0.3949,0.5332,0.6654,0.6654,0.6654,0.6654,0.6654,0.5269,0.3207,0.0534,-0.0067,-0.1393,-0.5773,-0.6548,-0.712,-0.881,0.0,0.0,0.0,0.0,0.0,0.0,-0.0934,-0.294,-0.5351,0.0,0.0,0.0,0.0,0.0,0.0,0.0,0.0,0.3911,0.4907,0.0,0.5494,0.7021,0.7783,0.7783,0.6795,0.6338,0.6338,0.6338,0.6872,0.7859,0.8841,0.982,1.0864,1.1848,1.2298,1.2298,1.2305,1.2305,1.2305,1.2298,1.2879,1.36,-1.214,-1.2586,-1.2817,-1.1974,-1.2298,-1.2562,-1.2345,-1.3098,-1.4027,-1.5092,-1.6,-1.6949,-1.7919,-1.9566,-2.0462,0.0,-2.1928,-2.2884,0.0,-2.2091,-2.2007,-2.2007,-2.164,-2.1977,-2.3089,-2.3111,-2.3655,-2.4817,0.0,0.0,0.0,-1.5648,-1.4779,-1.4928,-1.3534,-1.2298,-1.1217,-1.0123,-0.9186,-0.8285,-0.6772,-0.5978,-0.5577,-0.4066,-0.334,-0.2937,-0.1402,-0.0668,-0.02,0.1336,0.2406,0.307,0.2468,0.227,0.2338,0.2937,0.4002,0.513,0.6379,0.7562,0.8613,0.9186,0.8935,0.8291,0.7697,0.5727,0.3747,0.2872,0.1268,-0.04,-0.1788,-0.357,-0.4751,-0.4639,-0.3836,0.0,0.0,0.0,0.0,0.0,0.0,-1.0341,0.0,0.0,0.0,0.0,0.0,0.0,0.0,0.0,0.0,0.0,0.4235,0.0,0.4461,0.6012,0.6795,0.6795,0.649,0.6338,0.6338,0.7022,0.7859,0.8841,0.989,1.0864,1.1848,1.215,1.2305,1.2305,1.2305,1.2305,1.2378,1.3025,1.3455,1.3745,-1.1469,-1.1797,-1.2037,-1.1491,-1.1911,-1.2445,-1.2732,-1.3665,-1.4593,-1.5587,-1.6381,-1.7034,-1.7346,-1.8977,0.0,-1.9533,-2.1747,-2.2884,-2.2384,-2.1872,-2.1737,-2.1877,-2.1049,-2.104,-2.2091,0.0,0.0,-2.2505,-1.9991,-1.8129,-1.686,-1.6036,-1.5025,-1.3917,-1.2848,-1.1379,-0.9476,-0.8667,-0.7827,-0.6837,-0.5394,-0.44,-0.3666,-0.2608,-0.1944,-0.1542,-0.0402,0.0468,0.1202,0.2341,0.3742,0.5005,0.5005,0.4866,0.4728,0.4935,0.5397,0.6117,0.7632,0.8613,0.9402,0.9977,0.9722,0.9005,0.7762,0.6187,0.4806,0.4146,0.2671,0.1267,0.06,-0.0864,-0.1923,-0.1654,-0.0733,0.0067,0.0453,0.0,0.0,0.0,0.0,0.0,0.0,-1.1762,0.0,0.0,0.0,0.0,0.0,0.0,0.0,0.1463,0.4237,0.0,0.4262,0.561,0.6103,0.5709,0.6103,0.649,0.6868,0.748,0.8537,0.9895,1.0565,1.1391,1.2305,1.2305,1.2519,1.2806,1.2806,1.3098,1.3448,1.4027,1.4027,1.3818,-1.0624,-1.1029,0.0,0.0,-1.1911,0.0,-1.3528,-1.4522,-1.5517,-1.6498,-1.7101,-1.7478,-1.7448,-1.8477,-1.9336,-1.9884,0.0,0.0,0.0,-2.1849,-2.1307,-2.1744,-2.0534,-1.999,-2.0459,-2.047,-2.0161,-1.9599,-1.8796,-1.8096,-1.7543,-1.6771,-1.464,-1.1492,-1.1492,-1.0177,-0.7852,-0.7051,-0.6121,-0.5127,-0.4276,-0.2878,-0.1273,-0.1207,-0.0739,0.0,0.0067,0.1208,0.2678,0.2744,0.4466,0.6588,0.6588,0.7177,0.7762,0.6981,0.685,0.7046,0.7897,0.8748,0.9402,0.9402,0.9338,0.8877,0.7242,0.685,0.6322,0.4544,0.4146,0.354,0.1798,0.1465,0.1263,0.0464,0.1647,0.1919,-0.0238,0.0,0.0,0.0,0.0,0.0,0.0,-0.6417,-0.6762,0.0,0.0,0.0,0.0,0.0,-0.0785,0.4421,0.4686,0.4688,0.4688,0.5786,0.5786,0.4844,0.5786,0.6795,0.7783,0.7859,0.8983,1.0783,1.0858,1.1465,1.2305,1.2305,1.2806,1.36,1.3673,1.4243,1.5092,1.5163,1.4522,1.3673,0.0,0.0,-1.1423,-1.1423,-1.1911,-1.2592,-1.3528,-1.4522,-1.5517,-1.6498,-1.7347,-1.7992,-1.8274,-1.9057,-1.9742,-2.0217,-2.1636,-2.251,-2.251,-2.108,-2.0216,-2.0268,-1.9408,-1.8966,-1.9073,-1.9084,-1.8257,-1.6533,-1.6351,-1.5492,-1.4069,-1.4077,-1.2709,-1.0278,-1.0429,-0.9218,-0.7131,-0.6845,-0.5796,-0.4212,-0.3345,-0.2344,-0.1207,-0.0538,-0.0202,0.0067,0.0739,0.1742,0.2811,0.348,0.4616,0.5686,0.5686,0.6334,0.7111,0.7567,0.8156,0.8748,0.8941,0.9658,1.0301,1.0301,0.9786,0.9204,0.8748,0.8156,0.7372,0.6256,0.5463,0.4668,0.354,0.3332,0.3522,0.3985,0.3612,0.3202,0.2876,0.0388,0.0,0.0,-0.5534,-0.6373,-0.5544,-0.6685,-0.6614,0.0,0.0,0.0,0.0,-0.2303,-0.0472,0.3343,0.4295,0.4688,0.4688,0.5786,0.618,0.5944,0.618,0.6795,0.7859,0.8618,0.9593,1.0858,1.162,1.2077,1.2305,1.2305,1.2445,1.2739,1.3455,1.3818,1.4171,1.495,1.4522,1.3673,-1.0624,-1.1029,-1.1423,-1.1423,-1.1911,-1.2806,-1.4163,-1.4879,-1.5598,-1.6819,-1.7197,-1.7441,-1.748,-1.7899,-1.8456,-1.9009,-2.0485,-2.1448,-2.1448,-1.9938,-1.9026,-1.8975,-1.8176,-1.7543,-1.7194,-1.7194,-1.6427,-1.4932,-1.4757,-1.4055,-1.2923,-1.3179,-1.188,-0.9324,-0.9515,-0.8388,-0.6257,-0.5748,-0.4727,-0.3345,-0.241,-0.1542,-0.0672,-0.0202,0.0,0.0067,0.0538,0.1542,0.2744,0.3278,0.4544,0.6075,0.647,0.7181,0.8091,0.8935,0.9262,0.9402,0.9786,1.0238,1.0624,1.0624,1.0238,0.9786,0.9402,0.8941,0.8355,0.7502,0.6907,0.6375,0.592,0.5844,0.5971,0.6441,0.5181,0.3831,0.2939,-0.0376,0.0,-0.325,-0.491,-0.5381,-0.3713,-0.4344,-0.4454,-0.3459,0.0,0.0,-0.1245,-0.0212,0.1031,0.2341,0.3437,0.3984,0.3984,0.5002,0.5786,0.6338,0.6338,0.7099,0.8542,0.9074,1.0121,1.1539,1.207,1.2305,1.2305,1.2305,1.2519,1.3025,1.3528,1.3954,1.4522,1.5508,1.4942,1.3745,-1.0624,-1.1029,-1.1423,-1.1423,-1.2053,-1.3091,-1.495,-1.5255,-1.5817,-1.7224,-1.7002,-1.6645,-1.6384,-1.653,-1.6859,-1.753,-1.893,-1.9876,-2.0132,-1.8714,-1.788,-1.7891,-1.6924,-1.6097,-1.5433,-1.5241,-1.4757,-1.3917,-1.3539,-1.3043,-1.2572,-1.2824,-1.1375,-0.8564,-0.8893,-0.778,-0.555,-0.4755,-0.3778,-0.2609,-0.1809,-0.0873,0.0,0.0,0.0,0.0,0.0135,0.1276,0.2744,0.2878,0.4535,0.6654,0.7502,0.842,0.9268,1.0174,0.9977,0.9658,1.0428,1.0624,1.0624,1.0624,1.0624,1.0428,0.9658,0.9466,0.9268,0.8355,0.8221,0.8156,0.8027,0.8091,0.804,0.7628,0.5791,0.3623,0.1326,0.0,-0.3021,-0.2644,-0.2884,-0.2518,-0.1064,-0.1099,-0.1408,-0.2015,-0.0666,0.0304,0.0,0.2102,0.2735,0.188,0.2657,0.3202,0.3357,0.4062,0.5079,0.6338,0.649,0.748,0.9296,0.9448,1.0645,1.2519,1.2519,1.2592,1.2732,1.2732,1.3091,1.3745,1.3882,1.4378,1.5092,1.607,1.5226,1.381,-1.0624,-1.1029,-1.1423,-1.1423,-1.2537,-1.3882,-1.5021,-1.5515,-1.6187,-1.7251,-1.7002,-1.6941,-1.7646,-1.735,-1.7451,-1.8269,-1.7571,-1.7606,-1.8714,-1.7973,-1.7455,-1.7347,-1.595,-1.5095,-1.5023,-1.3951,-1.298,-1.2172,-1.2119,-1.1696,-1.0958,-1.1252,-1.0325,-0.8408,-0.8589,-0.758,-0.5759,-0.5497,-0.4327,-0.2678,-0.2544,-0.1476,0.0,0.0,0.0,0.0067,0.0806,0.1809,0.2811,0.3547,0.4616,0.5752,0.6658,0.7502,0.835,0.9268,0.9919,1.0428,1.0561,1.0624,1.0624,1.0624,1.0624,1.0561,1.0428,1.0428,1.0174,0.9268,0.9075,0.8877,0.8156,0.8613,0.8375,0.609,0.377,0.1578,-0.0492,0.0,-0.3236,-0.2678,-0.0759,0.0594,0.087,0.0754,0.0975,0.1753,0.1389,0.1503,0.2424,0.2858,0.3046,0.289,0.3046,0.3513,0.4453,0.3748,0.4373,0.6338,0.7176,0.8161,0.9296,1.019,1.1601,1.3455,1.3455,1.3954,1.4736,1.4736,1.4314,1.3818,1.4665,1.4522,1.4027,1.5021,1.4665,1.3745,-1.0762,-1.1136,-1.1423,-1.1423,-1.2678,-1.3966,-1.4689,-1.547,-1.6092,-1.6655,-1.6494,-1.6463,-1.6567,-1.6355,-1.6399,-1.6796,-1.6263,-1.6175,-1.6785,-1.6742,-1.6347,-1.5624,-1.5111,-1.4391,-1.3248,-1.2228,-1.1538,-1.1163,-1.1163,-1.073,-0.9919,-1.0196,-0.9366,-0.7712,-0.7892,-0.7223,-0.5842,-0.5259,-0.4418,-0.3417,-0.2357,-0.1475,-0.0672,-0.0202,0.0,0.0135,0.1006,0.1876,0.2811,0.368,0.4619,0.562,0.6985,0.7372,0.7632,0.946,1.0301,1.0624,1.0624,1.0624,1.0624,1.0624,1.0624,1.0624,1.0624,1.0624,1.0498,1.011,0.9977,0.9849,0.9454,0.9716,0.9086,0.6228,0.4064,0.0,0.0814,-0.1243,-0.1849,0.0,0.0854,0.1474,0.2009,0.2429,0.2664,0.2717,0.3873,0.4559,0.4572,0.5746,0.621,0.5681,0.3977,0.3593,0.4686,0.4217,0.4766,0.6338,0.7326,0.8313,0.9296,1.034,1.189,1.3673,1.3673,1.4243,1.5234,1.5234,1.4593,1.3745,1.4243,1.381,1.3098,1.4027,1.381,1.3025,-1.1035,-1.1329,-1.1599,-1.1799,-1.2946,-1.4104,-1.4728,-1.5477,-1.6002,-1.6082,-1.6037,-1.5781,-1.5449,-1.541,-1.5294,-1.5108,-1.5294,-1.5294,-1.5108,-1.5475,-1.5204,-1.4222,-1.4197,-1.3343,-1.1538,-1.0926,-1.0624,-1.0624,-1.0624,-1.0174,-0.9274,-0.9539,-0.8711,-0.7086,-0.7296,-0.6873,-0.5946,-0.5128,-0.4569,-0.4037,-0.2303,-0.1474,-0.1207,-0.0337,0.0135,0.0404,0.1274,0.2209,0.3145,0.4015,0.4951,0.5947,0.7246,0.7502,0.7697,0.9709,1.0428,1.0624,1.0624,1.0744,1.0863,1.0863,1.0863,1.0863,1.0863,1.0863,1.0863,1.0863,1.1052,1.1115,1.0926,1.0863,0.9797,0.6515,0.0,0.3082,0.1883,-0.012,-0.05,0.206,0.2142,0.2275,0.3207,0.413,0.4431,0.3986,0.6209,0.7313,0.6657,0.8305,0.8761,0.7464,0.4595,0.3593,0.4686,0.4453,0.5076,0.6641,0.7633,0.8689,0.9669,1.0714,1.2191,1.4027,1.4027,1.4736,1.5807,1.5587,1.495,1.4027,1.3818,1.3098,1.2372,1.3091,1.2952,1.2372,-1.1336,-1.1637,-1.2114,-1.302,-1.3877,-1.478,-1.5627,-1.5935,-1.6072,-1.6074,-1.5713,-1.5449,-1.542,-1.541,-1.5108,-1.4323,-1.4991,-1.505,-1.4332,-1.43,-1.43,-1.4213,-1.2834,-1.1615,-1.0681,-1.0618,-1.0624,-1.0624,-1.0624,-1.0174,-0.9274,-0.9291,-0.8554,-0.7078,-0.7091,-0.6691,-0.602,-0.5795,-0.5145,-0.4107,-0.3046,-0.2075,-0.1207,-0.0337,0.0471,0.1341,0.2277,0.3145,0.4015,0.4957,0.5877,0.6654,0.6785,0.7827,0.9139,0.9338,0.9977,1.0624,1.0624,1.117,1.171,1.171,1.171,1.171,1.171,1.171,1.171,1.171,1.2328,1.2581,1.1834,1.171,1.0308,0.6036,0.0,0.0,0.0559,-0.0176,0.0,0.1263,0.2811,0.4143,0.4995,0.592,0.6785,0.7582,0.8171,0.8488,0.8433,0.8985,0.8367,0.6364,0.4203,0.3593,0.4686,0.3748,0.4753,0.7706,0.8694,0.9744,1.0714,1.1694,1.323,1.5092,1.5092,1.6088,1.7725,1.6853,1.593,1.5021,1.4027,1.3098,1.2305,1.2378,1.2372,1.2305,-1.161,-1.1643,-1.1867,-1.2763,-1.3797,-1.4664,-1.5065,-1.5694,-1.6027,-1.5693,-1.5508,-1.541,-1.541,-1.4932,-1.451,-1.4213,-1.4025,-1.3786,-1.3485,-1.2992,-1.2679,-1.2679,-1.1655,-1.0926,-1.0624,-1.0624,-1.0624,-1.0624,-1.0624,-0.9907,-0.8484,-0.8484,-0.7731,-0.6297,-0.6297,-0.6229,-0.6156,-0.5908,-0.5552,-0.5053,-0.3406,-0.2477,-0.2009,-0.0538,0.0202,0.0672,0.2143,0.2945,0.3413,0.4891,0.562,0.6009,0.6523,0.7177,0.7897,0.9005,0.9913,1.0624,1.0624,1.117,1.1834,1.1834,1.2205,1.2512,1.2512,1.2512,1.2512,1.2512,1.2389,1.2328,1.2512,1.1717,1.0065,0.7074,0.0,0.4476,0.1758,0.1911,0.2659,0.3654,0.4851,0.5971,0.6902,0.7762,0.8528,0.9094,1.0466,1.1381,1.1597,1.1282,1.0157,0.821,0.613,0.4905,0.4688,0.4295,0.5378,0.7783,0.8846,0.982,1.0858,1.1842,1.3375,1.5234,1.5234,1.5939,1.707,1.6775,1.5649,1.4243,1.3818,1.3098,1.2305,1.2305,1.2305,1.2305,-1.165,-1.1771,-1.2098,-1.2975,-1.3931,-1.4706,-1.5076,-1.5575,-1.5752,-1.5449,-1.5167,-1.4991,-1.4991,-1.4332,-1.3726,-1.3476,-1.3183,-1.2879,-1.2634,-1.2143,-1.171,-1.1406,-1.0863,-1.0624,-1.0624,-1.0624,-1.0624,-1.0624,-1.0624,-0.9709,-0.8027,-0.8291,-0.743,-0.5735,-0.6065,-0.6236,-0.6173,-0.5962,-0.5844,-0.5633,-0.3591,-0.2765,-0.2477,-0.0672,0.0202,0.0605,0.2144,0.2878,0.3345,0.4888,0.5554,0.5881,0.6203,0.6654,0.7437,0.9198,1.0288,1.0989,1.0989,1.1779,1.2504,1.2258,1.2757,1.3364,1.3364,1.3364,1.3364,1.3364,1.2931,1.2626,1.2948,1.1903,1.0347,0.8331,0.7451,0.6233,0.3915,0.4313,0.5042,0.5643,0.649,0.7469,0.865,0.9308,1.0046,1.092,1.2402,1.3481,1.3948,1.2834,1.1415,0.9798,0.7744,0.6224,0.5237,0.5148,0.6227,0.8313,0.9291,1.0271,1.1316,1.1996,1.3375,1.5163,1.4879,1.5587,1.6991,1.607,1.5084,1.4099,1.3528,1.2879,1.2305,1.2305,1.2305,1.2305,-1.1423,-1.2105,-1.2975,-1.395,-1.4426,-1.4994,-1.5933,-1.5684,-1.541,-1.541,-1.4688,-1.4204,-1.4204,-1.3485,-1.2696,-1.1896,-1.2512,-1.2634,-1.1826,-1.1764,-1.1406,-1.0618,-1.0624,-1.0624,-1.0624,-1.0624,-1.0624,-1.0624,-1.0624,-0.9709,-0.8027,-0.8877,-0.7956,-0.5665,-0.6651,-0.668,-0.603,-0.603,-0.5942,-0.5643,-0.3666,-0.2814,-0.2477,-0.0672,0.0538,0.1407,0.2342,0.328,0.4148,0.509,0.5943,0.6527,0.5686,0.6597,0.835,1.0104,1.1163,1.1834,1.1834,1.2992,1.4034,1.3191,1.3606,1.4213,1.4213,1.4213,1.4213,1.4213,1.4213,1.3965,1.3191,1.2328,1.1274,0.9582,0.8516,0.7579,0.6737,0.6607,0.6607,0.6607,0.7478,0.8656,1.0355,1.0488,1.1367,1.3441,1.3949,1.4479,1.5192,1.3324,1.1771,1.0718,0.8817,0.7326,0.6338,0.6224,0.7287,0.9301,1.034,1.1316,1.2305,1.2305,1.3375,1.5163,1.4099,1.5305,1.7725,1.4879,1.4314,1.5021,1.3018,1.2305,1.2305,1.2305,1.2305,1.2305,-1.1423,-1.1914,-1.2603,-1.3445,-1.4182,-1.4903,-1.5536,-1.5008,-1.4569,-1.4569,-1.3846,-1.3373,-1.3373,-1.2634,-1.2081,-1.1834,-1.1476,-1.1233,-1.0982,-1.0989,-1.0863,-1.0624,-1.0624,-1.0624,-1.0624,-1.0624,-1.0624,-1.0624,-1.0624,-0.9709,-0.8027,-0.8877,-0.7956,-0.5665,-0.6651,-0.668,-0.603,-0.603,-0.5568,-0.4773,-0.3453,-0.2403,-0.1608,-0.0471,0.0135,0.0605,0.2144,0.2878,0.3345,0.4888,0.5557,0.5947,0.6924,0.7572,0.8474,1.0766,1.1586,1.1896,1.2512,1.3425,1.4145,1.3906,1.4451,1.505,1.505,1.505,1.505,1.505,1.4569,1.4154,1.3914,1.2749,1.1648,1.1149,0.9812,0.8796,0.8533,0.8954,0.9134,0.8592,0.9799,1.0878,1.1384,1.1658,1.2693,1.4795,1.612,1.6683,1.6201,1.5624,1.4165,1.1844,1.0513,0.9034,0.7403,0.7314,0.7999,0.9301,1.034,1.1316,1.2305,1.2305,1.2945,1.4099,1.3818,1.4171,1.495,1.4027,1.3528,1.3091,1.2519,1.2305,1.2305,1.2305,1.2305,1.2372,-1.1102,-1.1567,-1.219,-1.2696,-1.3447,-1.424,-1.4843,-1.4273,-1.3846,-1.4154,-1.3243,-1.2512,-1.2512,-1.1841,-1.1351,-1.1351,-1.0863,-1.0624,-1.0624,-1.0624,-1.0624,-1.0624,-1.0624,-1.0624,-1.0624,-1.0624,-1.0624,-1.0624,-1.0624,-0.9709,-0.8027,-0.9262,-0.8299,-0.5576,-0.6966,-0.6997,-0.5872,-0.561,-0.5092,-0.4342,-0.2924,-0.1942,-0.1207,-0.0337,0.0,0.0269,0.2078,0.2678,0.2945,0.4821,0.5428,0.569,0.7442,0.8027,0.8468,1.1073,1.202,1.2451,1.3243,1.4085,1.4688,1.4688,1.505,1.541,1.541,1.541,1.541,1.541,1.4746,1.4213,1.4213,1.2862,1.1834,1.1834,1.0961,1.0268,1.0268,1.1003,1.1308,1.0829,1.164,1.2498,1.3005,1.3225,1.4209,1.6123,1.7341,1.7725,1.7207,1.6428,1.5043,1.2788,1.147,1.0013,0.8389,0.8761,0.9064,0.9296,1.0714,1.1694,1.2305,1.2305,1.2806,1.3673,1.331,1.3593,1.4243,1.3455,1.3025,1.2806,1.2445,1.2305,1.2305,1.2305,1.2519,1.2952,-1.0678,-1.1226,-1.1834,-1.1834,-1.2451,-1.3252,-1.3965,-1.3425,-1.3183,-1.3906,-1.2626,-1.171,-1.171,-1.1045,-1.0624,-1.0624,-1.0624,-1.0624,-1.0624,-1.0624,-1.0624,-1.0624,-1.0624,-1.0624,-1.0624,-1.0624,-1.0624,-1.0624,-1.0624,-0.9709,-0.8027,-0.9779,-0.8801,-0.5572,-0.7527,-0.7491,-0.5892,-0.5047,-0.4561,-0.4217,-0.2331,-0.1413,-0.1078,-0.027,0.0068,0.0337,0.2078,0.2744,0.3078,0.4821,0.5425,0.5818,0.7507,0.8086,0.872,1.119,1.2512,1.3312,1.4094,1.4815,1.541,1.541,1.541,1.541,1.541,1.541,1.541,1.541,1.4815,1.4273,1.4145,1.2931,1.1896,1.1834,1.1834,1.1834,1.1896,1.2573,1.3078,1.305,1.3119,1.3629,1.4817,1.5086,1.5759,1.7307,1.7793,1.8008,1.8008,1.6298,1.4846,1.3777,1.1931,1.0484,0.9448,1.034,1.034,0.9448,1.1397,1.2305,1.2305,1.2305,1.2732,1.3528,1.2659,1.3302,1.4807,1.3018,1.2806,1.3455,1.2666,1.2305,1.2305,1.2305,1.2879,1.3745,-1.0678,-1.1226,-1.1834,-1.1834,-1.2451,-1.307,-1.3243,-1.2573,-1.2135,-1.232,-1.1476,-1.0863,-1.0863,-1.0681,-1.0624,-1.0624,-1.0624,-1.0624,-1.0624,-1.0624,-1.0624,-1.0624,-1.0624,-1.0624,-1.0624,-1.0624,-1.0624,-1.0624,-1.0624,-0.9709,-0.8027,-0.9779,-0.9122,-0.6478,-0.7798,-0.7845,-0.6746,-0.5272,-0.4225,-0.3291,-0.2096,-0.1091,-0.0278,-0.007,0.0411,0.1141,0.2277,0.3145,0.3882,0.5024,0.5881,0.6593,0.7632,0.8913,1.0299,1.2189,1.3304,1.4145,1.4932,1.5294,1.541,1.541,1.541,1.541,1.541,1.541,1.541,1.541,1.5235,1.4746,1.3485,1.3009,1.2512,1.1896,1.1834,1.202,1.2634,1.3425,1.3839,1.3514,1.4046,1.4711,1.5287,1.6288,1.7108,1.7832,1.7959,1.8008,1.8008,1.6932,1.5852,1.4846,1.2954,1.1434,1.0484,1.0714,1.0714,1.0484,1.1694,1.2305,1.2305,1.2305,1.2445,1.2586,1.2372,1.2519,1.2872,1.2445,1.2445,1.2592,1.2378,1.2305,1.2305,1.2305,1.2879,1.3954,-1.0651,-1.0926,-1.1226,-1.1226,-1.16,-1.1965,-1.2389,-1.1717,-1.1351,-1.1772,-1.1108,-1.0624,-1.0624,-1.0624,-1.0624,-1.0624,-1.0624,-1.0624,-1.0624,-1.0624,-1.0624,-1.0624,-1.0624,-1.0624,-1.0624,-1.0624,-1.0624,-1.0624,-1.0624,-0.9907,-0.8678,-0.997,-0.9186,-0.6732,-0.7867,-0.7703,-0.6391,-0.5199,-0.4085,-0.302,-0.2039,-0.0954,0.0,0.0,0.0551,0.1407,0.2342,0.3547,0.4755,0.5226,0.6009,0.685,0.7697,0.9163,1.0801,1.2504,1.3554,1.4392,1.5167,1.541,1.541,1.541,1.541,1.541,1.541,1.541,1.541,1.541,1.541,1.5108,1.4332,1.3846,1.3425,1.2992,1.2931,1.3172,1.3795,1.4614,1.5074,1.5106,1.5485,1.5905,1.6383,1.7148,1.7773,1.7988,1.8008,1.8008,1.8008,1.7139,1.6149,1.5234,1.3708,1.2478,1.1539,1.1539,1.1539,1.1539,1.2077,1.2305,1.2305,1.2305,1.2305,1.2305,1.2305,1.2305,1.2305,1.2305,1.2305,1.2305,1.2305,1.2305,1.2305,1.2305,1.3237,1.4665,-1.0624,-1.0624,-1.0624,-1.0624,-1.0624,-1.0807,-1.1469,-1.1052,-1.0863,-1.1531,-1.0982,-1.0624,-1.0624,-1.0624,-1.0624,-1.0624,-1.0624,-1.0624,-1.0624,-1.0624,-1.0624,-1.0624,-1.0624,-1.0624,-1.0624,-1.0624,-1.0624,-1.0624,-1.0434,-0.9913,-0.9075,-0.9843,-0.8924,-0.6732,-0.7692,-0.7324,-0.596,-0.4874,-0.3925,-0.2961,-0.1824,-0.0815,0.0,0.0,0.0629,0.1698,0.2432,0.383,0.5428,0.5557,0.6203,0.7046,0.7962,0.9482,1.1176,1.2565,1.3674,1.4569,1.5235,1.541,1.543,1.5508,1.5469,1.543,1.5508,1.5469,1.541,1.541,1.541,1.5352,1.5235,1.4628,1.4231,1.4303,1.4312,1.4517,1.5111,1.5794,1.6348,1.6787,1.6904,1.71,1.7451,1.7803,1.8008,1.8008,1.8008,1.8008,1.8008,1.7139,1.621,1.5446,1.4307,1.331,1.2519,1.2519,1.2519,1.2519,1.2519,1.2445,1.2305,1.2305,1.2305,1.2305,1.2305,1.2305,1.2305,1.2305,1.2305,1.2305,1.2305,1.2305,1.2372,1.2659,1.3947,1.5658,-1.0624,-1.0624,-1.0624,-1.0624,-1.0624,-1.0624,-1.0744,-1.0688,-1.0624,-1.0744,-1.0688,-1.0624,-1.0624,-1.0624,-1.0624,-1.0624,-1.0624,-1.0624,-1.0624,-1.0624,-1.0624,-1.0624,-1.0624,-1.0624,-1.0624,-1.0624,-1.0624,-1.0624,-0.9849,-0.9005,-0.8156,-0.8285,-0.7762,-0.6728,-0.7013,-0.7068,-0.6734,-0.4184,-0.3139,-0.2953,-0.1014,-0.0154,0.0,0.0,0.1104,0.2651,0.2729,0.3893,0.5491,0.6268,0.7111,0.7962,0.8877,1.0759,1.2696,1.294,1.4085,1.5235,1.5352,1.541,1.5498,1.5879,1.5693,1.5508,1.5889,1.5684,1.541,1.541,1.541,1.5177,1.451,1.4264,1.4321,1.4735,1.4789,1.5182,1.6321,1.6578,1.6807,1.7246,1.7617,1.7861,1.792,1.7978,1.8008,1.8008,1.8008,1.8008,1.8008,1.7139,1.6567,1.6419,1.4657,1.3673,1.3528,1.3528,1.3528,1.3528,1.3528,1.3098,1.2305,1.2305,1.2305,1.2305,1.2305,1.2305,1.2305,1.2305,1.2305,1.2305,1.2305,1.2305,1.2519,1.4163,1.5508,1.6567,-1.0624,-1.0624,-1.0624,-1.0624,-1.0624,-1.0624,-1.0624,-1.0624,-1.0624,-1.0624,-1.0624,-1.0624,-1.0624,-1.0624,-1.0624,-1.0624,-1.0624,-1.0624,-1.0624,-1.0624,-1.0624,-1.0624,-1.0624,-1.0624,-1.0624,-1.0624,-1.0624,-1.0624,-0.9722,-0.9075,-0.8742,-0.8221,-0.7502,-0.6732,-0.6894,-0.6792,-0.6241,-0.4613,-0.3559,-0.2968,-0.1488,-0.0541,0.0076,0.0681,0.1709,0.304,0.3946,0.5064,0.6203,0.6588,0.7632,0.8812,0.9204,1.1017,1.3009,1.3009,1.4145,1.541,1.541,1.5586,1.594,1.6646,1.6857,1.69,1.7093,1.6991,1.6657,1.594,1.5977,1.602,1.5643,1.5581,1.5647,1.5889,1.5927,1.6205,1.6967,1.709,1.7256,1.7686,1.79,1.8008,1.8008,1.8008,1.8008,1.8008,1.8008,1.8008,1.8008,1.7579,1.7139,1.6636,1.579,1.4799,1.3745,1.4243,1.4243,1.3745,1.4243,1.4027,1.3098,1.2519,1.2305,1.2305,1.2305,1.2305,1.2305,1.2305,1.2305,1.2305,1.2305,1.2592,1.331,1.5296,1.621,1.6706]},{"header":{"parameterUnit":"m.s-1","parameterCategory":1,"la1":30.6,"la2":28.766,"lo1":-90.7593,"lo2":-88.6598,"dx":0.0162,"dy":0.0183,"nx":116,"ny":114,"refTime":"2022-12-08T18:00:00:Z","depth":0,"parameterNumber":3,"parameterNumberName":"V-component_of_WINDS"},"data":[0.0,0.0,0.0,0.0,0.0,0.0,0.0,0.0,0.0,0.0,0.0,0.0,0.0,0.0,0.0,0.0,0.0,0.0,0.0,0.0,0.0,0.0,0.0,0.0,0.0,0.0,0.0,0.0,0.0,0.0,0.0,0.0,0.0,0.0,0.0,0.0,0.0,0.0,0.0,0.0,0.0,0.0,0.0,0.0,0.0,0.0,0.0,0.0,0.0,0.0,0.0,0.0,0.0,0.0,0.0,0.0,0.0,0.0,0.0,0.0,0.0,0.0,0.0,0.0,0.0,0.0,0.0,0.0,0.0,0.0,0.0,0.0,0.0,0.0,0.0,0.0,0.0,0.0,0.0,0.0,0.0,0.0,0.0,0.0,0.0,0.0,0.0,0.0,0.0,0.0,0.0,0.0,0.0,0.0,0.0,0.0,0.0,0.0,0.0,0.0,0.0,0.0,0.0,0.0,0.0,0.0,0.0,0.0,0.0,0.0,0.0,0.0,0.0,0.0,0.0,0.0,0.0,0.0,0.0,0.0,0.0,0.0,0.0,0.0,0.0,0.0,0.0,0.0,0.0,0.0,0.0,0.0,0.0,0.0,0.0,0.0,0.0,0.0,0.0,0.0,0.0,0.0,0.0,0.0,0.0,0.0,0.0,0.0,0.0,0.0,0.0,0.0,0.0,0.0,0.0,0.0,0.0,0.0,0.0,0.0,0.0,0.0,0.0,0.0,0.0,0.0,0.0,0.0,0.0,0.0,0.0,0.0,0.0,0.0,0.0,0.0,0.0,0.0,0.0,0.0,0.0,0.0,0.0,0.0,0.0,0.0,0.0,0.0,0.0,0.0,0.0,0.0,0.0,0.0,0.0,0.0,0.0,0.0,0.0,0.0,0.0,0.0,0.0,0.0,0.0,0.0,0.0,0.0,0.0,0.0,0.0,0.0,0.0,0.0,0.0,0.0,0.0,0.0,0.0,0.0,0.0,0.0,0.0,0.0,0.0,0.0,0.0,0.0,0.0,0.0,0.0,0.0,0.0,0.0,0.0,0.0,0.0,0.0,0.0,0.0,0.0,0.0,0.0,0.0,0.0,0.0,0.0,0.0,0.0,0.0,0.0,0.0,0.0,0.0,0.0,0.0,0.0,0.0,0.0,0.0,0.0,0.0,0.0,0.0,0.0,0.0,0.0,0.0,0.0,0.0,0.0,0.0,0.0,0.0,0.0,0.0,0.0,0.0,0.0,0.0,0.0,0.0,0.0,0.0,0.0,0.0,0.0,0.0,0.0,0.0,0.0,0.0,0.0,0.0,0.0,0.0,0.0,0.0,0.0,0.0,0.0,0.0,0.0,0.0,0.0,0.0,0.0,0.0,0.0,0.0,0.0,0.0,0.0,0.0,0.0,0.0,0.0,0.0,0.0,0.0,0.0,0.0,0.0,0.0,0.0,0.0,0.0,0.0,0.0,0.0,0.0,0.0,0.0,0.0,0.0,0.0,0.0,0.0,0.0,0.0,0.0,0.0,0.0,0.0,0.0,0.0,0.0,0.0,0.0,0.0,0.0,0.0,0.0,0.0,0.0,0.0,0.0,0.0,0.0,0.0,0.0,0.0,0.0,0.0,0.0,0.0,0.0,0.0,0.0,0.0,0.0,0.0,0.0,0.0,0.0,0.0,0.0,0.0,0.0,0.0,0.0,0.0,0.0,0.0,0.0,0.0,0.0,0.0,0.0,0.0,0.0,0.0,0.0,0.0,0.0,0.0,0.0,0.0,0.0,0.0,0.0,0.0,0.0,0.0,0.0,0.0,0.0,0.0,0.0,0.0,0.0,0.0,0.0,0.0,0.0,0.0,0.0,0.0,0.0,0.0,0.0,0.0,0.0,0.0,0.0,0.0,0.0,0.0,0.0,0.0,0.0,0.0,0.0,0.0,0.0,0.0,0.0,0.0,0.0,0.0,0.0,0.0,0.0,0.0,0.0,0.0,0.0,0.0,0.0,0.0,0.0,0.0,0.0,0.0,0.0,0.0,0.0,0.0,0.0,0.0,0.0,0.0,0.0,0.0,0.0,0.0,0.0,0.0,0.0,0.0,0.0,0.0,0.0,0.0,0.0,0.0,0.0,0.0,0.0,0.0,0.0,0.0,0.0,0.0,0.0,0.0,0.0,0.0,0.0,0.0,0.0,0.0,0.0,0.0,0.0,0.0,0.0,0.0,0.0,0.0,0.0,0.0,0.0,0.0,0.0,0.0,0.0,0.0,0.0,0.0,0.0,0.0,0.0,0.0,0.0,0.0,0.0,0.0,0.0,0.0,0.0,0.0,0.0,0.0,0.0,0.0,0.0,0.0,0.0,0.0,0.0,0.0,0.0,0.0,0.0,0.0,0.0,0.0,0.0,0.0,0.0,0.0,0.0,0.0,0.0,0.0,0.0,0.0,0.0,0.0,0.0,0.0,0.0,0.0,0.0,0.0,0.0,0.0,0.0,0.0,0.0,0.0,0.0,0.0,0.0,0.0,0.0,0.0,0.0,0.0,0.0,0.0,0.0,0.0,0.0,0.0,0.0,0.0,0.0,0.0,0.0,0.0,0.0,0.0,0.0,0.0,0.0,0.0,0.0,0.0,0.0,0.0,0.0,0.0,0.0,0.0,0.0,0.0,0.0,0.0,0.0,0.0,0.0,0.0,0.0,0.0,0.0,0.0,0.0,0.0,0.0,0.0,0.0,0.0,0.0,0.0,0.0,0.0,0.0,0.0,0.0,0.0,0.0,0.0,0.0,0.0,0.0,0.0,0.0,0.0,0.0,0.0,0.0,0.0,0.0,0.0,0.0,0.0,0.0,0.0,0.0,0.0,0.0,0.0,0.0,0.0,0.0,0.0,0.0,0.0,0.0,0.0,0.0,0.0,0.0,0.0,0.0,0.0,0.0,0.0,0.0,0.0,0.0,0.0,0.0,0.0,0.0,0.0,0.0,0.0,0.0,0.0,0.0,0.0,0.0,0.0,0.0,0.0,0.0,0.0,0.0,0.0,0.0,0.0,0.0,0.0,0.0,0.0,0.0,0.0,0.0,0.0,0.0,0.0,0.0,0.0,0.0,0.0,0.0,0.0,0.0,0.0,0.0,0.0,0.0,0.0,0.0,0.0,0.0,0.0,0.0,0.0,0.0,0.0,0.0,0.0,0.0,0.0,0.0,0.0,0.0,0.0,0.0,0.0,0.0,0.0,0.0,0.0,0.0,0.0,0.0,0.0,0.0,0.0,0.0,0.0,0.0,0.0,0.0,0.0,0.0,0.0,0.0,0.0,0.0,0.0,0.0,0.0,0.0,0.0,0.0,0.0,0.0,0.0,0.0,0.0,0.0,0.0,0.0,0.0,0.0,0.0,0.0,0.0,0.0,0.0,0.0,0.0,0.0,0.0,0.0,0.0,0.0,0.0,0.0,0.0,0.0,0.0,0.0,0.0,0.0,0.0,0.0,0.0,0.0,0.0,0.0,0.0,0.0,0.0,0.0,0.0,0.0,0.0,0.0,0.0,0.0,0.0,0.0,0.0,0.0,0.0,0.0,0.0,0.0,0.0,0.0,0.0,0.0,0.0,0.0,0.0,0.0,0.0,0.0,0.0,0.0,0.0,0.0,0.0,0.0,0.0,0.0,0.0,0.0,0.0,0.0,0.0,0.0,0.0,0.0,0.0,0.0,0.0,0.0,0.0,0.0,0.0,0.0,0.0,0.0,0.0,0.0,0.0,0.0,0.0,0.0,0.0,0.0,0.0,0.0,0.0,0.0,0.0,0.0,0.0,0.0,0.0,0.0,0.0,0.0,0.0,0.0,0.0,0.0,0.0,0.0,0.0,0.0,0.0,0.0,0.0,0.0,0.0,0.0,0.0,0.0,0.0,0.0,0.0,0.0,0.0,0.0,0.0,0.0,0.0,0.0,0.0,0.0,0.0,0.0,0.0,0.0,0.0,0.0,0.0,0.0,0.0,0.0,0.0,0.0,0.0,0.0,0.0,0.0,0.0,0.0,0.0,0.0,0.0,0.0,0.0,0.0,0.0,0.0,0.0,0.0,0.0,0.0,0.0,0.0,0.0,0.0,0.0,0.0,0.0,0.0,0.0,0.0,0.0,0.0,0.0,0.0,0.0,0.0,0.0,0.0,0.0,0.0,0.0,0.0,0.0,0.0,0.0,0.0,0.0,0.0,0.0,0.0,0.0,0.0,0.0,0.0,0.0,0.0,0.0,0.0,0.0,0.0,0.0,0.0,0.0,0.0,0.0,0.0,0.0,0.0,0.0,0.0,0.0,0.0,0.0,0.0,0.0,0.0,0.0,0.0,0.0,0.0,0.0,0.0,0.0,0.0,0.0,0.0,0.0,0.0,0.0,0.0,0.0,0.0,0.0,0.0,0.0,0.0,0.0,0.0,0.0,0.0,0.0,0.0,0.0,0.0,0.0,0.0,0.0,0.0,0.0,0.0,0.0,0.0,0.0,0.0,0.0,0.0,0.0,0.0,0.0,0.0,0.0,0.0,0.0,0.0,0.0,0.0,0.0,0.0,0.0,0.0,0.0,0.0,0.0,0.0,0.0,0.0,0.0,0.0,0.0,0.0,0.0,0.0,0.0,0.0,0.0,0.0,0.0,0.0,0.0,0.0,0.0,0.0,0.0,0.0,0.0,0.0,0.0,0.0,0.0,0.0,0.0,0.0,0.0,0.0,0.0,0.0,0.0,0.0,0.0,0.0,0.0,0.0,0.0,0.0,0.0,0.0,0.0,0.0,0.0,0.0,0.0,0.0,0.0,0.0,0.0,0.0,0.0,0.0,0.0,0.0,0.0,0.0,0.0,0.0,0.0,0.0,0.0,0.0,0.0,0.0,0.0,0.0,0.0,0.0,0.0,0.0,0.0,0.0,0.0,0.0,0.0,0.0,0.0,0.0,0.0,0.0,0.0,0.0,0.0,0.0,0.0,0.0,0.0,0.0,0.0,0.0,0.0,0.0,0.0,0.0,0.0,0.0,0.0,0.0,0.0,0.0,0.0,0.0,0.0,0.0,0.0,0.0,0.0,0.0,0.0,0.0,0.0,0.0,0.0,0.0,0.0,0.0,0.0,0.0,0.0,0.0,0.0,0.0,0.0,0.0,0.0,0.0,0.0,0.0,0.0,0.0,0.0,0.0,0.0,0.0,0.0,0.0,0.0,0.0,0.0,0.0,0.0,0.0,0.0,0.0,0.0,0.0,0.0,0.0,0.0,0.0,0.0,0.0,0.0,0.0,0.0,0.0,0.0,0.0,0.0,0.0,0.0,0.0,0.0,0.0,0.0,0.0,0.0,0.0,0.0,0.0,0.0,0.0,0.0,0.0,0.0,0.0,0.0,0.0,0.0,0.0,0.0,0.0,0.0,0.0,0.0,0.0,0.0,0.0,0.0,0.0,0.0,0.0,0.0,0.0,0.0,0.0,0.0,0.0,0.0,0.0,0.0,0.0,0.0,0.0,0.0,0.0,0.0,0.0,0.0,0.0,0.0,0.0,0.0,0.0,0.0,0.0,0.0,0.0,0.0,0.0,0.0,0.0,0.0,0.0,0.0,0.0,0.0,0.0,0.0,0.0,0.0,0.0,0.0,0.0,0.0,0.0,0.0,0.0,0.0,0.0,0.0,0.0,0.0,0.0,0.0,0.0,0.0,0.0,0.0,0.0,0.0,0.0,0.0,0.0,0.0,0.0,0.0,0.0,0.0,0.0,0.0,0.0,0.0,0.0,0.0,0.0,0.0,0.0,0.0,0.0,0.0,0.0,0.0,0.0,0.0,0.0,0.0,0.0,0.0,0.0,0.0,0.0,0.0,0.0,0.0,0.0,0.0,0.0,0.0,0.0,0.0,0.0,0.0,0.0,0.0,0.0,0.0,0.0,0.0,0.0,0.0,0.0,0.0,0.0,0.0,0.0,0.0,0.0,0.0,0.0,0.0,0.0,0.0,0.0,0.0,0.0,0.0,0.0,0.0,0.0,0.0,0.0,0.0,0.0,0.0,0.0,0.0,0.0,0.0,0.0,0.0,0.0,0.0,0.0,0.0,0.0,0.0,0.0,0.0,0.0,0.0,0.0,0.0,0.0,0.0,-0.979,0.0,0.0,0.0,0.0,0.0,0.0,0.0,0.0,0.0,0.0,0.0,0.0,0.0,0.0,0.0,0.0,0.0,0.0,0.0,0.0,0.0,0.0,0.0,0.0,-0.6121,-0.6352,-0.6242,-0.6294,0.0,0.0,0.0,0.0,0.0,0.0,0.0,0.0,0.0,-0.5001,-0.4156,-0.2669,-0.1692,-0.1233,-0.163,-0.2711,-0.4378,0.0,0.0,0.0,0.0,0.0,0.0,0.0,0.0,0.0,0.0,0.0,0.0,0.0,0.0,0.0,0.0,0.0,0.0,0.0,0.0,0.0,0.0,0.0,0.0,0.0,0.0,0.0,0.0,0.0,0.0,0.0,0.0,0.0,0.0,0.0,0.0,0.0,0.0,0.0,0.0,0.0,0.0,0.0,0.0,0.0,0.0,0.0,0.0,0.0,0.0,0.0,0.0,0.0,0.0,0.0,0.0,0.0,0.0,0.0,0.0,0.0,0.0,0.0,0.0,0.0,0.0,0.0,0.0,0.0,0.0,0.0,-1.0406,0.0,0.0,0.0,0.0,0.0,0.0,0.0,0.0,0.0,0.0,0.0,0.0,0.0,0.0,0.0,0.0,0.0,0.0,0.0,0.0,0.0,-0.5263,-0.5019,-0.55,-0.5724,-0.5422,-0.5714,-0.596,-0.6142,-0.6104,0.0,0.0,0.0,0.0,-0.6347,-0.5383,-0.4444,-0.3548,-0.1302,-0.0099,0.0072,-0.028,-0.1705,-0.407,-0.5257,0.0,0.0,0.0,0.0,0.0,0.0,0.0,0.0,0.0,0.0,0.0,0.0,0.0,0.0,0.0,0.0,0.0,0.0,0.0,0.0,0.0,0.0,0.0,0.0,0.0,0.0,0.0,0.0,0.0,0.0,0.0,0.0,0.0,0.0,0.0,0.0,0.0,0.0,0.0,0.0,0.0,0.0,0.0,0.0,0.0,0.0,0.0,0.0,0.0,0.0,0.0,0.0,0.0,0.0,0.0,0.0,0.0,0.0,0.0,0.0,0.0,0.0,0.0,-0.9659,-1.0351,-1.0897,-1.1172,-1.1785,-1.2695,-1.2382,-1.1697,-1.0919,-1.2038,0.0,0.0,0.0,0.0,0.0,0.0,0.0,0.0,0.0,0.0,0.0,0.0,0.0,0.0,0.0,0.0,0.0,0.0,0.0,-0.4746,-0.46,-0.4456,-0.4549,-0.4941,-0.4813,-0.5077,-0.5888,-0.5719,0.0,0.0,0.0,-0.5804,-0.5307,-0.4712,-0.3378,-0.1319,0.0795,0.1564,0.1062,0.0,-0.1192,-0.2525,-0.3679,-0.5227,-0.6971,0.0,0.0,0.0,0.0,0.0,0.0,0.0,0.0,0.0,0.0,0.0,0.0,0.0,0.0,0.0,0.0,0.0,0.0,0.0,0.0,0.0,0.0,0.0,0.0,0.0,0.0,0.0,0.0,0.0,0.0,0.0,0.0,0.0,0.0,0.0,0.0,0.0,0.0,0.0,0.0,0.0,0.1658,-0.0342,0.0,0.0,0.0,0.0,0.0,0.0,0.0,0.0,0.0,0.0,0.0,0.0,0.0,-0.6433,-0.7092,-0.7734,-0.8346,-0.8935,-1.0782,-1.1813,-1.2112,-1.3357,-1.4062,-1.4378,-1.4367,0.0,-1.3594,-1.2873,0.0,0.0,0.0,0.0,0.0,0.0,0.0,0.0,0.0,0.0,0.0,0.0,0.0,0.0,0.0,0.0,0.0,0.0,0.0,0.0,0.0,-0.3325,-0.3429,-0.3861,-0.4234,-0.4796,-0.5624,-0.5751,0.0,0.0,-0.5859,-0.5422,-0.4885,-0.3353,-0.1074,0.1957,0.2688,0.2939,0.2679,0.2054,0.0768,-0.1029,-0.2205,-0.4108,-0.6482,-0.7306,0.0,0.0,0.0,0.0,0.0,0.0,0.0,0.0,0.0,0.0,0.0,0.0,0.0,0.0,0.0,0.0,0.0,0.0,0.0,0.0,0.0,0.0,0.0,0.0,0.0,0.0,0.0,0.0,0.0,0.0,0.0,0.0,0.0,0.0,0.0,0.0,0.0,0.0,0.0,0.3291,0.3346,0.164,-0.0492,-0.2327,0.0,0.0,0.0,0.0,0.0,0.0,0.0,0.0,0.0,-0.5677,-0.611,-0.6626,-0.7268,-0.8029,-0.8905,-0.9893,-1.0992,-1.2092,-1.3176,-1.3778,-1.4741,-1.5911,-1.535,-1.5567,-1.6087,-1.4437,-1.3705,-1.3611,0.0,0.0,0.0,0.0,-1.3422,-1.2751,0.0,0.0,0.0,0.0,0.0,0.0,0.0,0.0,0.0,0.0,0.0,0.0,-0.2182,-0.2043,-0.2225,-0.2783,-0.3686,-0.4605,-0.5524,-0.5769,-0.5953,-0.6072,-0.5511,-0.4943,-0.4412,-0.1587,0.1496,0.4807,0.4758,0.4655,0.4389,0.3947,0.2475,0.0178,-0.119,-0.3243,-0.5807,-0.7459,-0.8008,-0.7837,0.0,0.0,0.0,0.0,0.0,0.0,0.0,0.0,0.0,0.0,0.0,0.0,0.0,0.0,0.0,0.0,0.0,0.0,0.0,0.0,0.0,0.0,0.0,0.0,0.0,0.0,0.0,0.0,0.0,0.0,0.0,0.0,0.0,0.0,0.0,0.0,0.0,0.468,0.4483,0.3172,0.1424,-0.0252,0.0,0.0,0.0,0.0,0.0,0.0,-0.5097,-0.4877,-0.4996,-0.5677,-0.6476,-0.7146,-0.7722,-0.87,-0.974,-1.0775,-1.1259,-1.2367,-1.4026,-1.4192,-1.5171,-1.6645,-1.5934,-1.6338,-1.734,-1.5446,-1.4479,-1.421,-1.4269,-1.4296,-1.4294,-1.4324,-1.3762,-1.3044,0.0,0.0,0.0,0.0,0.0,0.0,0.0,0.0,0.0,0.0,0.0,-0.1244,-0.0835,-0.0502,-0.0801,-0.1937,-0.3072,-0.4314,-0.5709,-0.5672,-0.5646,-0.572,-0.4856,-0.4111,-0.3577,0.0602,0.3978,0.6385,0.7277,0.7113,0.5962,0.4885,0.3087,0.0797,-0.1012,-0.3037,-0.5215,-0.6449,-0.78,-0.9036,-0.8185,0.0,0.0,0.0,0.0,0.0,0.0,0.0,0.0,0.0,0.0,0.0,0.0,0.0,0.0,0.0,0.0,0.0,0.0,0.0,0.0,0.0,0.0,0.0,0.0,0.0,0.0,0.0,0.0,0.0,0.0,0.0,0.0,0.0,0.0,0.0,0.0,0.0,0.0,0.3503,0.2368,0.0,0.0,0.0,0.0,-0.4339,-0.3928,-0.3633,-0.3725,-0.4355,-0.4996,-0.5677,-0.6912,-0.7903,-0.8626,-0.9868,-1.0775,-1.1267,-1.1923,-1.3065,-1.458,-1.5231,-1.5736,-1.6132,-1.6222,-1.6358,-1.6465,-1.5162,-1.4853,-1.512,-1.421,-1.379,-1.3744,-1.3816,-1.4068,-1.442,0.0,0.0,0.0,-0.7585,-0.7093,-0.663,-0.6165,-0.5257,-0.415,-0.2774,-0.1196,0.0,0.0542,0.1217,0.0873,-0.1133,-0.2107,-0.3403,-0.5297,-0.53,-0.5296,-0.5504,-0.4186,-0.2054,0.0935,0.3741,0.6216,0.8371,0.8358,0.7944,0.7093,0.5652,0.3931,0.1993,0.0177,-0.1924,-0.4235,-0.6832,-0.8038,-0.8363,-0.9643,-0.9503,0.0,0.0,0.0,0.0,0.0,0.0,0.0,0.0,0.0,0.0,0.0,0.0,0.0,0.0,0.0,0.0,0.0,0.0,0.0,0.0,0.0,0.0,0.0,0.0,0.0,0.0,0.0,0.0,0.0,0.0,0.0,0.0,0.0,0.0,0.0,0.0,0.0,0.3811,0.289,0.0,0.0186,-0.0897,-0.2033,-0.3199,-0.32,-0.3523,-0.4393,-0.491,-0.555,-0.6236,-0.728,-0.807,-0.868,-0.9476,-1.0296,-1.1125,-1.1344,-1.244,-1.4212,-1.445,-1.5102,-1.6022,-1.6103,-1.6105,-1.601,-1.556,-1.5743,-1.62,-1.5621,-1.5544,-1.5683,-1.5474,-1.5316,-1.5285,0.0,0.0,0.0,-0.7692,-0.7345,-0.6963,-0.6416,-0.5242,-0.3789,-0.2019,0.0,0.1552,0.2261,0.2892,0.2406,0.0212,-0.1005,-0.2499,-0.4551,-0.4584,-0.4552,-0.4649,-0.2414,0.0761,0.4922,0.6435,0.8184,1.0195,0.9476,0.8816,0.8214,0.6403,0.4621,0.2865,0.066,-0.1781,-0.4446,-0.7456,-0.8735,-0.8878,-1.0645,-1.0646,-0.9568,0.0,0.0,0.0,0.0,0.0,0.0,0.0,0.0,0.0,0.0,0.0,0.0,0.0,0.0,0.0,0.0,0.0,0.0,0.0,0.0,0.0,0.0,0.0,0.0,0.0,0.0,0.0,0.0,0.0,0.0,0.0,0.0,0.0,0.0,0.0,0.4063,0.3961,0.3405,0.2467,0.1164,0.0045,-0.1197,-0.2583,-0.2976,-0.3527,-0.4397,-0.5079,-0.5665,-0.6158,-0.7454,-0.8357,-0.8675,-0.9588,-1.0437,-1.1282,-1.1583,-1.2686,-1.4533,-1.4772,-1.5463,-1.6436,-1.656,-1.6486,-1.6313,-1.6313,-1.668,-1.7207,-1.6538,-1.6501,-1.6763,-1.6554,-1.6266,-1.6123,0.0,0.0,-0.7841,-0.765,-0.7605,-0.7377,-0.6718,-0.5185,-0.3393,-0.1415,0.1313,0.3419,0.4411,0.4527,0.3799,0.2017,0.0264,-0.1582,-0.3487,-0.3482,-0.3285,-0.2988,0.0593,0.4323,0.8042,0.8579,0.9849,1.1929,1.0829,1.0012,0.9382,0.7231,0.529,0.3453,0.0435,-0.2726,-0.5889,-0.829,-0.9914,-1.0873,-1.1104,-1.1618,-1.2099,0.0,0.0,0.0,0.0,0.0,0.0,0.0,0.0,0.0,0.0,0.0,0.0,0.0,0.0,0.0,0.0,0.0,0.0,0.0,0.0,0.0,0.0,0.0,0.0,0.0,0.0,0.0,0.0,0.0,0.0,0.0,0.0,0.0,0.3009,0.3571,0.4007,0.3856,0.3924,0.3212,0.1119,0.04,-0.071,-0.2536,-0.3214,-0.3578,-0.3581,-0.4661,-0.5303,-0.5303,-0.7495,-0.8675,-0.8716,-1.0234,-1.1282,-1.187,-1.2753,-1.3991,-1.5566,-1.6298,-1.6864,-1.7306,-1.763,-1.7581,-1.7296,-1.7304,-1.7653,-1.8086,-1.6818,-1.6554,-1.685,-1.6825,-1.6857,-1.7065,-0.7899,-0.7899,-0.7885,-0.7827,-0.7694,-0.747,-0.7098,-0.5361,-0.3166,-0.052,0.2346,0.4832,0.6597,0.7156,0.6356,0.3757,0.2659,0.0946,-0.1775,-0.1423,-0.0159,0.2002,0.5069,0.7946,1.0543,1.1538,1.2913,1.4618,1.3174,1.2551,1.2737,1.0152,0.7627,0.5056,0.0528,-0.3272,-0.6524,-1.0248,-1.2657,-1.3993,-1.3632,-1.3025,-1.2399,0.0,0.0,0.0,0.0,0.0,0.0,0.0,0.0,0.0,0.0,0.0,0.0,0.0,0.0,0.0,0.0,0.0,0.0,0.0,0.0,0.0,0.0,0.0,0.0,0.0,0.0,0.0,0.0,0.0,0.0,0.0,0.0,0.4783,0.4675,0.4905,0.4918,0.4493,0.455,0.3875,0.1907,0.1158,0.0,-0.1914,-0.2627,-0.3126,-0.3578,-0.4268,-0.5029,-0.5871,-0.7293,-0.8431,-0.9279,-1.074,-1.1997,-1.2984,-1.4188,-1.5296,-1.6329,-1.6863,-1.7036,-1.6945,-1.7228,-1.7322,-1.7245,-1.7388,-1.7757,-1.8202,-1.7575,-1.7648,-1.8073,-1.7829,-1.7923,-1.8253,-0.7885,-0.7899,-0.7928,-0.7969,-0.7841,-0.7665,-0.7472,-0.5614,-0.2924,0.0723,0.3813,0.6774,0.9631,1.0404,0.9737,0.7427,0.5911,0.4044,0.1577,0.2255,0.4217,0.7521,0.9891,1.1989,1.383,1.4742,1.5741,1.6872,1.5667,1.5247,1.5579,1.2826,0.9827,0.6532,0.0393,-0.4342,-0.8079,-1.2835,-1.5751,-1.7161,-1.6464,-1.528,-1.4051,-1.4621,-1.374,-1.2135,-1.1943,-1.1465,-1.0919,-1.0775,0.0,0.0,0.0,0.0,0.0,0.0,0.0,0.0,0.0,0.0,0.0,0.0,0.0,0.0,0.0,0.0,0.0,0.0,0.0,0.0,0.0,0.0,0.0,0.0,0.5389,0.618,0.6651,0.6142,0.5529,0.5006,0.502,0.4427,0.2804,0.1879,0.0727,-0.0934,-0.1825,-0.2586,-0.317,-0.3949,-0.5014,-0.6359,-0.7335,-0.8651,-1.03,-1.1376,-1.2554,-1.3971,-1.5244,-1.6305,-1.7174,-1.7548,-1.7771,0.0,-1.831,-1.8513,-1.8568,-1.9055,-1.9527,0.0,0.0,0.0,0.0,0.0,-1.872,-1.9235,-0.7856,-0.7899,-0.7941,-0.8077,-0.8011,-0.7913,-0.7839,-0.5994,-0.2846,0.2061,0.5227,0.8592,1.2681,1.3503,1.3127,1.153,0.9309,0.7395,0.5934,0.7017,0.9342,1.2981,1.4645,1.6112,1.7515,1.7961,1.84,1.8968,1.8214,1.7971,1.8098,1.5435,1.2283,0.8528,0.1073,-0.466,-0.9078,-1.5288,-1.8506,-1.9415,-1.8843,-1.784,-1.6696,-1.6626,-1.5602,-1.4102,-1.3853,-1.2966,-1.1872,-1.1587,0.0,0.0,0.0,0.0,0.0,0.0,0.0,0.0,0.0,0.0,0.0,0.0,0.0,0.0,0.0,0.0,0.0,0.0,0.0,0.0,0.0,0.0,0.0,0.0,0.6869,0.7646,0.8691,0.7646,0.6434,0.5679,0.5539,0.5101,0.3974,0.2827,0.168,0.0575,-0.0755,-0.1781,-0.2355,0.0,0.0,0.0,0.0,-0.8962,-1.1355,-1.2126,-1.3357,-1.5052,-1.6302,-1.7298,-1.8081,-1.8364,-1.8753,-1.9272,-1.9997,-2.0359,-2.0478,-2.1389,-2.1959,-2.2001,-1.9668,-1.9028,-1.9361,-1.9219,-1.9542,-2.0148,-0.787,-0.7899,-0.7941,-0.8077,-0.8077,-0.8063,-0.8034,-0.6789,-0.3645,0.2521,0.4937,0.79,1.2736,1.3819,1.3384,1.141,1.0392,0.9823,0.9721,1.2007,1.4266,1.6392,1.8092,1.9595,2.0849,2.0542,2.0865,2.1806,2.066,2.0172,2.0345,1.8715,1.6322,1.305,0.6448,0.0844,-0.4301,-1.472,-1.8268,-1.6934,-1.8125,-1.9085,-1.9731,-1.8867,-1.8361,-1.8033,-1.7434,-1.6353,-1.5176,-1.5117,-1.3927,-1.2478,-1.2704,-1.186,0.0,0.0,0.0,0.0,0.0,0.0,0.0,0.0,0.0,0.0,0.0,0.0,0.0,0.0,0.0,0.0,0.0,0.0,0.0,0.6665,0.8035,0.9099,0.9742,1.0311,0.9866,0.7604,0.7015,0.6662,0.6271,0.4905,0.3898,0.3509,0.153,0.0132,-0.0483,-0.1638,-0.2882,-0.4101,-0.6338,-0.8455,-1.0522,-1.3463,-1.5698,-1.7228,0.0,0.0,-1.9118,-1.9507,-1.9335,-1.8789,-1.9966,-2.0474,-2.0578,-2.1712,-2.2313,-2.2464,-2.1899,-2.1702,-2.1725,-2.154,-2.1511,-2.1541,-0.8855,-0.8425,-0.82,-0.8834,-0.8855,-0.8841,-0.8925,-0.7886,-0.5399,-0.0672,0.2605,0.5624,0.8565,1.0898,1.1754,1.0509,1.1318,1.2207,1.2947,1.5714,1.8219,2.0305,2.1416,2.2227,2.2841,2.2293,2.2381,2.3203,2.218,2.1795,2.1973,2.0541,1.794,1.4193,0.7345,0.1433,-0.4018,-1.3581,-1.7121,-1.6313,-1.7052,-1.8393,-1.9961,-2.0168,-2.0116,-1.9894,-1.9699,-1.9033,-1.8153,-1.7779,-1.691,-1.5945,-1.564,-1.4604,-1.3161,0.0,0.0,0.0,0.0,0.0,0.0,0.0,0.0,0.0,0.0,0.0,0.0,0.0,0.0,0.372,0.0,0.0,0.7129,0.8921,1.0348,1.1529,1.234,1.307,1.2473,0.9721,0.9232,0.8963,0.8535,0.7061,0.593,0.5594,0.4228,0.3119,0.2547,0.2483,0.1,-0.2188,-0.25,-0.5712,-1.225,-1.3891,-1.5356,-1.6653,-1.7917,-1.8131,-1.7478,-1.8273,-1.8381,-1.8058,-1.9963,-2.0822,-2.097,-2.2501,-2.3114,-2.3085,-2.3495,-2.3201,-2.2485,-2.1979,-2.1978,-2.2214,-0.9875,-0.9203,-0.8863,-0.9784,-0.9851,-0.9821,-0.9996,-0.9062,-0.7168,-0.3855,-0.0111,0.2776,0.4145,0.7278,0.93,0.9321,1.2216,1.4488,1.5597,1.8712,2.1428,2.3487,2.3775,2.3864,2.3786,2.3227,2.3121,2.3564,2.2929,2.2673,2.2737,2.1232,1.8474,1.4565,0.8805,0.2808,-0.3465,-1.0883,-1.4383,-1.4967,-1.5472,-1.6691,-1.8401,-2.0286,-2.0915,-2.0821,-2.0975,-2.0532,-1.9878,-1.9485,-1.9157,-1.88,-1.8236,-1.7323,-1.6013,-1.353,-1.2746,0.0,0.0,0.0,0.0,0.0,0.0,0.0,0.0,0.0,0.4139,0.4531,0.5327,0.6363,0.7729,0.8712,0.993,1.1748,1.315,1.4328,1.5096,1.5595,1.4929,1.2512,1.1735,1.1263,1.0901,0.9503,0.8481,0.8211,0.7485,0.6831,0.6378,0.6861,0.5151,0.0749,0.1691,-0.2169,-1.1422,-1.238,-1.3377,-1.4502,-1.5802,-1.601,-1.5278,-1.6289,-1.6798,-1.7011,-1.9392,-2.0628,-2.1078,-2.2593,-2.3264,-2.3347,-2.3881,-2.3618,-2.2848,-2.2202,-2.2196,-2.2498,-0.999,-1.0158,-1.0255,-1.0399,-1.0601,-1.0752,-1.0766,-1.0119,-0.7968,-0.3402,-0.1841,0.0064,0.3265,0.5058,0.6654,0.8214,1.3191,1.6543,1.7284,2.1157,2.3662,2.4179,2.4004,2.3722,2.3367,2.2886,2.2667,2.274,2.2473,2.2198,2.189,2.055,1.8594,1.6257,1.6087,1.1116,0.2399,-0.4665,-0.8395,-0.9836,-1.2951,-1.4382,-1.4965,-1.8276,-2.0377,-2.149,-2.094,-1.9831,-1.8756,-1.963,-1.9001,-1.8067,-1.9276,-1.9147,-1.7947,-1.485,-1.313,-1.1463,-0.7684,0.0,0.0,-0.0335,0.1593,0.3326,0.0,0.0,0.6362,0.827,0.8294,0.8616,1.0801,1.2165,1.3386,1.448,1.6004,1.6955,1.6771,1.7555,1.7749,1.6727,1.4433,1.3142,1.3595,1.2794,1.2472,1.3067,1.1817,1.1084,1.1214,0.97,0.8175,0.6755,0.4004,0.1221,-0.1575,-0.6711,-0.9809,-1.0876,-1.2775,-1.3871,-1.4361,-1.4588,-1.4945,-1.5439,-1.7221,-1.8794,-2.0153,-2.036,-2.127,-2.2458,-2.1828,-2.2482,-2.3759,-2.3669,-2.3189,-2.2497,-1.1224,-1.153,-1.1765,-1.1921,-1.181,-1.1716,-1.1716,-1.1047,-0.9894,-0.8018,-0.6558,-0.5188,-0.3814,-0.069,0.2324,0.4831,1.1107,1.5566,1.7101,2.1737,2.4305,2.4028,2.3564,2.3034,2.2429,2.1613,2.119,2.1204,2.0809,2.0162,1.9287,1.8447,1.6599,1.3902,1.3226,0.9276,0.2904,-0.2241,-0.5481,-0.7297,-0.9872,-1.1116,-1.176,-1.4854,-1.703,-1.8559,-1.9783,-1.9917,0.0,-1.985,-1.9677,-1.9672,-2.1667,-2.0102,-1.7297,-1.5991,-1.2908,-0.9145,-0.5525,0.0,0.0,0.0,0.4793,0.6448,0.805,0.8649,0.9247,1.0545,1.1118,1.1914,1.3664,1.5019,1.6062,0.0,1.8497,1.9692,1.9469,1.9929,2.0174,1.9831,1.8407,1.7118,1.6262,1.565,1.5153,1.4853,1.4257,1.3916,1.3917,1.4078,1.3297,1.1436,1.0213,0.868,0.6779,0.3524,0.0081,-0.3568,-0.5746,-0.8427,-1.1449,-1.1249,-1.1905,-1.33,-1.4002,-1.498,-1.6203,-1.7036,-1.7644,-1.8199,-1.9132,-1.9579,-1.9943,-2.2327,-2.2702,-2.1961,-1.2086,-1.2431,-1.2687,-1.2942,-1.2607,-1.2281,-1.2233,-1.1544,-1.0994,-1.0882,-0.9471,-0.8391,-0.8188,-0.4631,-0.108,0.1796,0.8304,1.3359,1.5959,2.0604,2.3135,2.2854,2.197,2.1128,2.0323,1.9291,1.8783,1.8783,1.8376,1.7622,1.6577,1.593,1.4021,1.1122,0.9558,0.6797,0.2997,-0.0871,-0.3917,-0.6253,-0.7782,-0.8795,-0.9672,-1.2397,-1.4048,-1.5253,-1.7823,-1.8759,-1.862,-1.7762,-1.7521,-1.7844,-1.9591,-1.7769,-1.4879,-1.4335,-1.0274,-0.5239,-0.1882,0.0,0.0,0.6703,0.8686,1.0136,1.158,1.2236,1.2816,1.3663,1.447,1.5464,1.6925,1.8111,1.8925,1.9135,2.0631,2.1614,2.1016,2.1388,2.1653,2.1503,2.1081,2.0259,1.8882,1.8338,1.7708,1.6854,1.6704,1.6704,1.6803,1.7619,1.7077,1.4841,1.4682,1.3727,1.1892,1.0751,0.7788,0.3082,0.0432,-0.3161,-0.7493,-0.7983,-0.9018,-1.0457,-1.0583,-1.1177,-1.2226,-1.3706,-1.4205,-1.4149,-1.6019,-1.6431,-1.6437,-1.9764,-2.0575,-2.0005,-1.2086,-1.2431,-1.2687,-1.2942,-1.2607,-1.2233,-1.204,-1.1377,-1.059,-0.9681,-0.8714,-0.7719,-0.6674,-0.4811,-0.2617,-0.0036,0.5374,1.0227,1.3949,1.7449,1.9679,2.0382,1.8818,1.753,1.6598,1.5654,1.5142,1.5142,1.5155,1.4853,1.427,1.3161,1.126,0.876,0.7804,0.6272,0.4184,0.0164,-0.35,-0.6619,-0.7326,-0.8088,-0.903,-1.176,-1.2549,-1.2445,-1.5025,-1.5477,-1.4521,-1.2156,-1.0812,-1.0155,-1.0362,-1.0678,-1.0539,-0.8415,-0.4125,0.0651,0.0,0.0,0.7883,1.2011,1.3728,1.4769,1.6101,1.6606,1.719,1.8523,1.8667,1.9091,2.0894,2.1838,2.2217,2.184,2.2381,2.2254,2.0576,2.1299,2.1795,2.1269,2.1421,2.1525,0.0,2.0844,2.0379,2.009,1.9754,1.9876,2.0596,1.9503,1.8202,1.6754,1.5405,1.399,1.2499,1.2093,1.0501,0.7672,0.4257,0.0882,-0.2524,-0.5346,-0.6711,-0.6759,-0.7222,-0.7953,-0.8989,-1.0687,-1.1429,-1.1495,-1.2507,-1.3541,-1.4748,-1.6232,-1.6378,-1.603,-1.234,-1.2783,-1.3106,-1.3243,-1.3208,-1.268,-1.1285,-1.0561,-0.9976,-0.9445,-0.8437,0.0,0.0,0.0,0.0,0.0,0.3638,0.8121,1.0686,1.6014,1.8805,1.8188,1.7896,1.7151,1.591,1.3859,1.3017,1.3409,1.2658,1.1965,1.1318,1.0926,0.9403,0.689,0.6558,0.5713,0.4291,0.0928,-0.2639,-0.6093,-0.6628,-0.7475,-0.8682,-1.1185,-1.1856,-1.1539,0.0,-1.2499,-1.1911,-0.7141,-0.4572,-0.3029,-0.116,-0.1287,-0.191,-0.089,0.2046,0.5554,0.8168,0.0,1.387,1.6293,1.7471,1.8315,1.9279,1.9289,1.941,2.0654,2.0292,2.0178,2.1551,2.1883,2.176,2.1073,2.1726,2.1914,2.0798,2.0855,2.0932,2.0759,2.0828,0.0,0.0,0.0,0.0,1.9744,1.9514,1.9514,1.9737,1.899,1.8104,1.7103,1.6205,1.4988,1.3398,1.193,1.0888,1.0265,0.5958,0.2659,0.0221,-0.0769,-0.1975,-0.3247,-0.3395,-0.4385,-0.5887,-0.5415,-0.5261,-0.552,-0.813,-1.0173,-1.172,-1.243,-1.242,-1.2462,-1.2776,-1.3035,-1.3261,-1.3445,-1.3304,0.0,0.0,0.0,0.0,0.0,0.0,0.0,0.0,0.0,0.0,0.0,0.0,0.4366,0.7403,1.1791,1.491,1.6334,1.5052,1.4046,1.3468,1.0761,0.9312,0.9306,0.9161,0.8731,0.8027,0.8518,0.7576,0.5529,0.5707,0.518,0.3978,0.1243,-0.2503,-0.6612,-0.6383,-0.7364,-0.9107,-1.0526,-1.09,0.0,-1.054,-0.9843,-0.8137,-0.3059,-0.0108,0.1838,0.4124,0.4233,0.0,0.0,0.7103,0.9899,1.3114,1.571,1.8014,1.9956,2.067,2.1035,2.1489,2.1406,2.139,2.2054,2.1692,2.151,2.2249,2.1994,2.1493,2.0981,2.1012,2.0884,2.0219,2.0097,2.0119,2.0214,2.0037,0.0,0.0,0.0,0.0,1.9666,1.9461,1.9358,1.9336,1.8661,1.7979,1.7274,1.6654,1.5624,1.4143,1.2628,1.151,1.0808,0.6876,0.4313,0.3092,0.3262,0.2321,0.0608,0.0221,-0.1053,-0.285,-0.2369,-0.1863,-0.1696,-0.4438,-0.6776,-0.8783,-0.9658,-1.0015,-1.0513,-1.3274,-1.314,-1.314,0.0,0.0,0.0,0.0,0.0,0.0,0.0,0.0,0.0,0.0,0.0,0.0,0.0,0.0,0.0,0.3969,0.5147,0.8329,1.4326,1.0392,0.8463,0.9319,0.6455,0.4415,0.3369,0.4829,0.5173,0.4491,0.5769,0.5716,0.4491,0.4918,0.443,0.3266,0.1071,-0.304,-0.8045,-0.6695,-0.7726,-1.011,-0.991,-0.9744,-0.9638,-0.9867,-0.7282,-0.3254,0.016,0.0,0.0,0.0,0.0,0.0,0.0,0.0,1.3816,1.8446,1.9763,2.0439,2.2929,2.3226,2.2862,2.2767,2.3007,2.3121,2.2667,2.2806,2.2976,0.0,0.0,2.1554,2.1551,2.0414,1.9366,1.892,1.9077,1.9301,0.0,0.0,0.0,0.0,0.0,0.0,2.0065,0.0,1.956,1.9647,1.8698,1.7907,1.7353,1.6731,1.586,1.4698,1.405,1.2347,0.968,0.7217,0.6004,0.6004,0.6431,0.5887,0.4608,0.3473,0.1934,0.0112,-0.1337,-0.1171,-0.0112,-0.1549,-0.3632,-0.6058,-0.7929,-0.9065,-0.9959,0.0,0.0,0.0,0.0,0.0,0.0,0.0,0.0,0.0,0.0,0.0,0.0,0.0,0.0,0.0,0.0,0.0,0.0,-0.1661,0.1795,0.4909,0.7465,0.6831,0.6273,0.5968,0.3721,0.2635,0.2794,0.2261,0.2229,0.2676,0.3106,0.2754,0.1725,0.1826,0.1343,0.0365,-0.1187,-0.4081,-0.7532,-0.6935,-0.8156,-1.0342,-1.0527,-1.0278,-0.9457,-0.7157,-0.3335,0.0955,0.0,0.0,0.0,0.0,0.0,1.26,0.0,0.0,1.8573,1.9579,2.1438,2.3043,2.2773,2.2799,2.2945,2.3109,2.3485,2.3257,2.1363,2.2018,2.2258,0.0,0.0,0.0,2.087,2.0292,0.0,1.852,1.8263,0.0,0.0,0.0,1.8721,1.9191,2.0233,0.0,0.0,2.031,2.0053,2.0112,1.9236,1.8458,1.7907,1.6863,1.5799,1.4698,1.312,1.1423,0.968,0.8547,0.7712,0.718,0.6789,0.6603,0.6559,0.4867,0.3822,0.3229,0.1725,0.067,-0.0056,-0.0389,-0.2323,-0.5097,-0.7031,-0.7949,-0.8383,0.0,0.0,0.0,0.0,0.0,0.0,0.0,0.0,0.0,0.0,0.0,0.0,0.0,0.0,0.0,0.0,0.0,0.0,0.0,-0.2727,-0.0296,0.0736,0.1494,0.1871,0.1847,-0.0073,-0.1486,-0.2325,-0.1491,-0.0991,-0.0793,0.0512,0.0743,0.0109,-0.0292,-0.0903,-0.1661,-0.3092,-0.5434,0.0,0.0,-0.8636,-1.0649,-1.0618,-0.9401,-0.7289,-0.4244,0.2251,0.0,0.0,0.0,1.4874,1.5459,1.5817,1.626,1.7597,0.0,2.1248,2.1745,2.2926,2.3813,2.2884,2.2622,2.2253,2.0924,2.1255,2.1151,1.863,1.9593,0.0,0.0,0.0,0.0,0.0,0.0,0.0,1.9743,1.9211,1.8723,0.0,1.888,0.0,2.0035,2.1004,2.1505,0.0,2.0586,2.0119,2.0008,1.9074,1.8302,1.7787,1.7109,1.6083,1.4698,1.3062,1.1679,1.0612,0.9967,0.94,0.8971,0.8619,0.8435,0.8343,0.0,0.5662,0.4416,0.3099,0.2339,0.185,0.0502,-0.1054,-0.2817,-0.5265,-0.6712,-0.7699,0.0,0.0,0.0,0.0,0.0,0.0,0.0,0.0,0.0,-0.8339,-0.8212,-0.8216,0.0,0.0,0.0,0.0,0.0,0.0,0.0,0.0,-0.5857,-0.5357,-0.4215,-0.3281,-0.2644,-0.411,-0.6042,-0.8383,-0.5353,-0.4148,-0.4605,-0.2199,-0.1174,-0.1394,-0.2183,-0.2845,-0.3398,-0.4739,-0.6743,-0.8937,-0.8295,-0.925,-1.1019,0.0,-0.8141,-0.4498,-0.0773,0.8215,1.8416,0.0,1.8537,1.7615,1.7713,1.8228,1.9075,2.0503,2.1627,2.2671,2.388,2.394,2.3492,2.2783,2.2216,2.095,1.7465,1.7945,1.8234,1.5046,0.0,0.0,1.8634,0.0,2.0925,2.1916,0.0,2.1141,2.152,2.0934,2.0572,2.0831,2.0815,2.1065,2.1683,2.2148,2.2253,2.184,2.0983,2.0273,1.9818,1.891,1.8078,1.7409,1.7258,1.6434,1.4824,1.3538,1.2677,1.215,1.1308,1.0965,1.1057,1.0864,1.0434,0.979,0.903,0.0,0.4796,0.3787,0.3779,0.4225,0.1394,0.0166,-0.0332,-0.2932,-0.5097,-0.6895,0.0,0.0,0.0,0.0,0.0,0.0,0.0,0.0,0.0,0.0,-0.8786,-0.8402,0.0,0.0,0.0,0.0,0.0,0.0,0.0,0.0,0.0,-0.9109,-0.7233,-0.6386,-0.6903,-0.6587,-0.6675,-0.7195,-0.6587,-0.6188,-0.5959,-0.5315,-0.5086,-0.5233,-0.5399,-0.5656,-0.5978,-0.6333,-0.7223,-0.8421,-0.9103,-1.0204,-1.1393,-1.1299,0.0,0.0,0.4609,1.1603,1.721,1.9491,2.0967,2.2064,2.332,2.379,2.3894,2.3743,2.3845,2.3882,2.3304,2.3282,2.2972,2.101,2.0265,1.8979,1.4917,1.6724,0.0,0.0,0.0,1.8441,1.6229,1.8451,0.0,2.2204,0.0,0.0,0.0,0.0,2.1392,0.0,0.0,0.0,0.0,0.0,0.0,0.0,0.0,2.1483,2.0797,2.0215,1.9287,1.793,1.704,1.6151,1.5384,1.4193,1.3805,1.4179,1.2434,1.1904,1.2425,1.1308,1.0712,1.0543,0.9252,0.0,0.6791,0.5567,0.4849,0.434,0.2514,0.1059,-0.0056,-0.0608,-0.1763,-0.3476,0.0,0.0,0.0,0.0,0.0,0.0,0.0,-0.881,-0.9195,-1.0589,-1.0155,-0.9951,-1.0591,-1.0549,-1.0547,0.0,0.0,0.0,0.0,0.0,0.0,0.0,0.0,0.0,-0.8829,-0.8502,0.0,0.0,0.0,-0.8052,-0.8043,-0.7189,-0.6825,-0.6867,-0.6692,-0.6867,-0.727,-0.7347,-0.778,-0.8573,-0.9982,-1.0937,-1.1617,0.0,0.0,0.0,0.0,1.3983,1.7245,1.8404,2.0588,2.3111,2.4693,2.5246,2.5181,2.462,2.4222,2.3896,2.3419,2.2451,2.1326,2.0081,1.8778,1.6415,1.0916,0.0,0.0,0.0,0.0,1.4677,1.5381,0.0,0.0,0.0,0.0,0.0,0.0,0.0,0.0,0.0,0.0,0.0,0.0,0.0,0.0,0.0,0.0,2.219,2.1055,2.0093,1.9222,1.8478,1.7706,1.6873,1.5966,1.568,1.5262,1.4698,1.4021,1.3731,1.3737,1.2822,1.2346,1.2288,1.0931,0.0,0.8541,0.7553,0.6131,0.4353,0.2775,0.1278,0.0,0.0,-0.0444,-0.1054,0.0,0.0,0.0,0.0,0.0,0.0,0.0,-0.9147,-0.959,-1.1628,-1.1889,-1.2035,-1.2443,-1.2122,-1.1855,0.0,0.0,0.0,0.0,0.0,0.0,0.0,0.0,0.0,0.0,0.0,0.0,0.0,0.0,0.0,0.0,0.0,0.0,0.0,0.0,-0.7743,-0.816,-0.8197,-0.8451,0.0,0.0,-1.1604,0.0,0.0,0.0,0.0,0.0,0.0,1.6904,1.7141,1.9184,2.1909,2.3477,2.4394,2.4763,2.3948,2.338,2.3024,2.2904,2.1439,1.9722,1.8914,1.7455,1.4378,0.713,0.5751,0.0,0.0,0.0,1.1038,1.5097,0.0,2.1416,0.0,0.0,0.0,0.0,0.0,0.0,0.0,0.0,0.0,0.0,0.0,0.0,0.0,0.0,0.0,2.1086,1.9849,1.914,1.908,1.8535,1.784,1.6957,1.7096,1.6596,1.5431,1.5472,1.5395,1.5207,1.4226,1.3946,1.4064,1.2492,0.0,0.0,0.903,0.7175,0.4656,0.3257,0.1605,0.0,0.0,0.0392,0.1285,0.0,0.0,0.0,0.0,0.0,0.0,0.0,-0.9878,-1.0864,-1.3198,-1.3853,-1.4347,-1.4997,-1.4127,-1.3366,0.0,0.0,0.0,0.0,0.0,0.0,0.0,0.0,0.0,0.0,0.0,0.0,0.0,0.0,0.0,0.0,0.0,0.0,0.0,0.0,0.0,-0.901,-0.9124,0.0,0.0,0.0,0.0,0.0,0.0,0.0,0.0,0.0,0.0,0.0,0.0,0.0,1.8137,1.9506,2.1538,2.3104,2.1594,0.0,0.0,2.0639,2.0086,1.8999,1.6456,1.6123,1.4075,0.4923,0.0,0.0,0.1931,0.5793,1.0524,1.49,1.7902,0.0,0.0,2.3242,2.4017,0.0,0.0,0.0,0.0,0.0,0.0,0.0,0.0,0.0,0.0,0.0,0.0,2.1039,2.0483,2.0019,1.9639,1.9132,1.8779,1.8688,1.7679,1.7396,1.776,1.623,1.6016,1.6918,1.4778,1.4378,1.5194,1.2812,0.0,0.0,0.9224,0.7528,0.5681,0.4656,0.2548,0.0,0.0,0.1734,0.4113,0.0,0.0,0.0,0.0,0.0,0.0,-1.0733,-1.0685,-1.15,-1.4126,-1.4711,-1.5347,-1.6536,-1.6447,-1.5642,-1.4047,0.0,0.0,0.0,0.0,0.0,0.0,0.0,0.0,0.0,0.0,0.0,0.0,0.0,0.0,0.0,0.0,0.0,0.0,0.0,0.0,0.0,0.0,0.0,0.0,0.0,0.0,0.0,0.0,0.0,0.0,0.0,0.0,0.0,0.0,0.0,0.0,1.6732,1.8541,0.0,0.0,2.072,2.0311,2.0457,1.9121,1.7109,1.4846,1.2488,0.886,0.1479,0.0,0.0,-0.2605,0.1394,0.6932,1.4389,1.7807,1.9871,2.1039,2.2091,2.2995,2.3631,0.0,0.0,0.0,0.0,0.0,0.0,0.0,0.0,0.0,0.0,0.0,2.1007,2.055,2.0124,1.9711,1.9479,1.9244,1.8893,1.8788,1.8507,1.8106,1.7719,1.7625,1.7706,1.6083,1.5395,1.5416,1.3716,0.0,0.0,1.001,0.8521,0.6268,0.5584,0.4252,0.2605,0.167,0.2066,0.3249,0.0,0.0,0.0,0.0,0.0,-1.0223,-1.147,-1.1557,-1.2418,-1.5011,-1.5554,-1.6288,-1.792,-1.7955,-1.7262,-1.5817,-1.5546,0.0,0.0,0.0,0.0,0.0,0.0,0.0,0.0,0.0,-1.1606,-1.1508,-1.1543,0.0,0.0,0.0,0.0,0.0,0.0,0.0,0.0,0.0,0.0,0.0,0.0,0.0,0.0,0.0,0.0,0.0,0.0,0.0,0.0,0.0,0.0,0.0,1.4832,1.6158,1.8479,0.0,1.9803,1.965,1.9976,1.8522,1.6366,1.4312,0.9689,0.4345,0.0,0.0,0.0,-0.5583,-0.123,0.4798,1.3724,1.7644,1.963,1.9997,2.125,2.2246,2.2452,2.3501,0.0,0.0,0.0,0.0,0.0,0.0,0.0,0.0,0.0,0.0,2.0464,2.0374,2.0124,1.9711,1.969,1.953,1.9132,1.953,1.9332,1.8574,1.8817,1.8779,1.8535,1.704,1.6225,1.5929,1.4424,0.0,0.0,1.0788,0.9297,0.6583,0.6714,0.6,0.4809,0.3712,0.3279,0.3453,0.0,0.0,0.0,0.0,0.0,0.0,-1.1536,-1.254,-1.3823,-1.5903,-1.6545,-1.748,-1.9279,-1.8294,-1.783,-1.8675,-1.7234,0.0,0.0,0.0,0.0,0.0,0.0,0.0,0.0,0.0,-1.1993,-1.1987,-1.067,-1.0288,-1.0805,-1.0527,0.0,0.0,0.0,0.0,0.0,0.0,0.0,0.0,0.0,0.0,0.0,0.0,0.0,0.0,0.0,0.0,0.0,0.0,0.0,0.0,0.0,1.4616,1.5729,1.6667,1.7974,1.9054,1.8703,1.8317,1.7424,1.5066,0.8348,0.1784,0.0,0.0,0.0,-0.5935,-0.0737,0.5332,1.3,1.7205,1.9687,2.0297,2.0962,2.1922,2.3378,2.3547,0.0,0.0,0.0,0.0,0.0,0.0,0.0,0.0,0.0,0.0,1.9273,1.9924,2.0124,1.9711,1.969,1.969,1.969,1.969,1.969,1.969,1.9169,1.9169,1.9603,1.7396,1.6705,0.0,0.0,0.0,0.0,1.1472,0.9746,0.6745,0.8106,0.7553,0.5896,0.5842,0.5869,0.5854,0.0,0.0,0.0,0.0,0.0,0.0,0.0,-1.2969,-1.3727,-1.5071,-1.5598,-1.662,-1.8662,-1.851,-1.8679,-1.9737,-1.8338,0.0,0.0,0.0,0.0,0.0,0.0,0.0,0.0,0.0,-0.9113,-0.7552,-0.7593,-0.8107,-0.902,-0.9489,-1.0241,-1.1169,0.0,0.0,0.0,0.0,0.0,0.0,0.0,0.0,0.0,0.0,0.0,0.0,0.0,0.0,0.0,0.0,0.0,0.0,0.0,0.0,0.0,1.4859,1.599,1.7252,1.7559,1.6432,1.4502,1.1582,0.5712,-0.0079,-0.2928,0.0,-1.2013,-0.9718,-0.4427,0.2086,0.9658,1.3545,1.6358,1.866,1.9446,2.0117,0.0,0.0,0.0,0.0,0.0,0.0,0.0,0.0,0.0,0.0,0.0,0.0,2.0416,2.034,2.0124,1.9711,1.969,1.969,1.969,1.969,1.969,1.969,1.953,1.953,1.9639,1.8235,1.741,0.0,0.0,0.0,0.0,1.1481,1.0316,0.8053,0.8521,0.8357,0.7717,0.6725,0.6367,0.6381,0.0,0.0,0.0,0.0,0.0,0.0,0.0,-1.3375,-1.4007,-1.4669,-1.5189,-1.6373,-1.8723,-1.847,-1.8791,-2.0461,-1.9458,0.0,0.0,0.0,0.0,0.0,0.0,0.0,-0.8149,-0.8303,-0.6728,-0.3188,-0.4259,-0.5374,-0.6594,-0.844,-0.9993,-1.1246,-1.1865,0.0,0.0,0.0,0.0,0.0,0.0,0.0,-1.662,0.0,0.0,0.0,0.0,0.0,0.0,0.0,0.0,0.0,0.0,0.0,0.0,0.0,1.399,1.5111,1.6727,1.6099,1.4511,1.2473,0.6993,0.1421,0.0,0.0,-1.044,-1.0255,-0.5321,0.0817,0.6853,1.0534,1.3485,1.5978,1.7151,1.8383,0.0,0.0,0.0,0.0,0.0,0.0,0.0,0.0,0.0,0.0,0.0,0.0,2.0543,2.0409,2.0124,1.9711,1.969,1.969,1.969,1.969,1.969,1.969,1.969,1.969,1.969,1.8817,1.7946,0.0,0.0,0.0,0.0,1.2162,1.1165,0.9082,0.9408,0.9363,0.8954,0.7865,0.7235,0.702,0.0,0.0,0.0,0.0,0.0,0.0,0.0,-1.3621,-1.447,-1.4595,-1.513,-1.6497,-1.9139,-1.8151,-1.8292,-2.08,0.0,0.0,0.0,0.0,0.0,0.0,0.0,0.0,-0.7402,-0.7346,-0.4665,0.0886,-0.0743,-0.2275,-0.3796,-0.739,-0.989,-1.1425,-1.2675,-1.3701,0.0,0.0,0.0,0.0,0.0,-1.8443,0.0,0.0,0.0,0.0,0.0,0.0,0.0,0.0,0.0,0.0,0.0,0.0,0.0,0.0,0.0,0.0,0.0,1.6525,1.6321,1.6012,1.0638,0.5004,0.3337,-0.1806,0.0,-0.7927,-0.3797,0.1121,0.4593,0.8104,1.1028,1.2739,1.4454,1.6754,0.0,2.0588,0.0,0.0,0.0,0.0,0.0,0.0,0.0,0.0,0.0,0.0,2.0048,2.0299,2.025,1.9861,1.9824,1.9779,1.969,1.969,1.969,1.969,1.969,1.969,1.969,1.9132,1.826,0.0,0.0,0.0,0.0,1.3195,1.2153,0.9841,1.0543,1.0415,0.971,0.9061,0.8374,0.7777,0.0,0.0,0.0,0.0,0.0,0.0,0.0,0.0,0.0,0.0,-1.4207,-1.5349,-1.7534,-1.7431,-1.8049,0.0,0.0,0.0,0.0,0.0,0.0,0.0,0.0,0.0,-0.5488,-0.4539,-0.1575,0.3598,0.2484,0.0294,-0.2871,-0.6355,-0.9025,-1.1033,-1.289,-1.4312,0.0,0.0,0.0,0.0,-1.8746,-1.7098,0.0,0.0,0.0,0.0,0.1601,0.4019,0.0,0.0,0.0,0.0,0.0,0.0,0.0,0.0,0.975,1.0725,1.2367,0.0,1.1991,1.0749,0.6591,0.2422,0.0,-0.2004,-0.445,-0.434,-0.2163,0.0524,0.3234,0.5573,0.8259,1.1686,1.3455,1.5294,1.7896,0.0,0.0,0.0,0.0,0.0,0.0,0.0,0.0,0.0,0.0,2.2148,2.1535,2.1577,2.151,2.124,2.1216,2.0722,1.969,1.969,1.969,1.969,1.969,1.969,1.969,1.8727,1.8131,0.0,0.0,0.0,1.324,1.316,1.208,1.0543,1.0712,1.0415,0.971,0.9061,0.8699,0.8533,0.0,0.0,0.0,0.0,0.0,0.0,0.0,0.0,0.0,0.0,0.0,-1.5187,-1.6331,-1.7237,0.0,0.0,0.0,0.0,0.0,0.0,0.0,0.0,0.0,-0.9578,-0.3275,-0.1635,0.1736,0.6993,0.5145,0.2429,-0.117,-0.5121,-0.8208,-1.0556,-1.3151,-1.4706,0.0,0.0,0.0,0.0,-1.8263,0.0,0.0,0.0,0.0,0.0,0.3027,0.4561,0.0,0.5718,0.5769,0.5748,0.0,0.0,0.0,0.0,0.8087,0.9035,1.0217,1.0845,1.1078,1.0634,0.7408,0.4136,0.3377,0.0914,-0.1202,-0.1287,-0.0642,0.0568,0.2611,0.3983,0.6079,0.9774,1.1485,0.0,0.0,0.0,2.449,0.0,0.0,0.0,0.0,0.0,0.0,0.0,0.0,2.3147,2.2563,2.2283,2.2003,2.1719,2.1695,2.1335,2.0617,2.0303,2.0154,2.0154,1.9839,1.969,1.969,1.8855,1.8341,0.0,0.0,0.0,1.4111,1.3542,1.2686,1.1692,1.1074,1.0568,1.0167,0.9159,0.8804,0.8857,0.0,0.0,0.0,0.0,0.0,0.0,0.0,0.0,0.0,0.0,0.0,0.0,0.0,0.0,0.0,0.0,0.0,0.0,0.0,0.0,0.0,0.0,-1.2181,-0.756,-0.1172,0.0884,0.4435,0.9658,0.6981,0.3828,0.0113,-0.4172,-0.7885,-1.1044,-1.389,-1.5303,0.0,0.0,0.0,-1.8464,-1.7526,0.0,0.0,0.0,0.0,0.0,0.0,0.0,0.0,0.5739,0.5732,0.5645,0.5258,0.0,0.0,0.0,0.0,0.0,0.9018,1.0377,1.152,1.1971,0.9565,0.7052,0.686,0.4424,0.1958,0.1167,0.0863,0.1189,0.2632,0.3589,0.521,0.0,0.0,0.0,1.7578,2.0894,2.3503,0.0,0.0,0.0,0.0,0.0,0.0,0.0,0.0,2.3769,2.3266,2.2828,2.2378,2.1979,2.2059,2.2099,2.2099,2.118,2.079,2.0956,2.0085,1.9735,1.9839,1.9176,1.8612,1.8027,0.0,0.0,1.4663,1.42,1.3524,1.2733,1.1582,1.1089,1.0883,0.9715,0.9305,0.9411,0.0,0.0,0.0,0.0,0.0,0.0,0.0,0.0,0.0,0.0,0.0,0.0,0.0,0.0,0.0,0.0,0.0,0.0,0.0,0.0,0.0,-1.2846,-1.0564,-0.6362,0.0092,0.1798,0.4565,0.8538,0.6903,0.3493,-0.1591,-0.4662,-0.936,-1.5206,-1.6257,-1.7078,-1.7739,-1.9045,-1.9465,-1.8985,-1.5901,0.0,0.0,0.0,0.0,0.0,0.0,0.0,0.0,0.5988,0.5817,0.5701,0.5304,0.0,0.0,0.0,0.0,0.0,0.8815,1.0081,1.0582,0.9247,0.7741,0.6418,0.5662,0.4241,0.2958,0.2494,0.2377,0.2656,0.363,0.5734,0.8027,1.0166,0.0,1.7529,0.0,0.0,0.0,0.0,0.0,0.0,0.0,0.0,0.0,0.0,0.0,0.0,2.4019,2.3888,2.3663,2.3323,2.3743,2.3973,2.3973,2.1795,2.119,2.213,2.0464,1.9989,2.049,1.9395,1.8612,1.804,0.0,1.617,1.4719,1.4896,1.4042,1.2556,1.2716,1.241,1.1872,1.1652,1.1597,1.1597,0.0,0.0,0.0,0.0,0.0,0.0,0.0,0.0,0.0,0.0,0.0,0.0,0.0,0.0,0.0,0.0,0.0,0.0,0.0,0.0,-1.4021,-0.9877,-0.6202,-0.2334,0.1707,0.4233,0.6913,0.9819,0.7617,0.4272,-0.0153,-0.6279,-1.1519,-1.5862,-1.6573,-1.7222,-1.7837,-1.8776,-1.8986,-1.8396,0.0,0.0,0.0,0.0,0.0,0.0,0.0,0.0,0.0,0.0,0.6372,0.6129,0.5914,0.0,0.0,0.0,0.0,0.0,0.9156,1.0621,1.1607,1.1085,1.0163,0.9249,0.8683,0.7704,0.6389,0.4551,0.4602,0.5011,0.4967,0.6707,0.9217,1.262,0.0,0.0,0.0,0.0,0.0,0.0,0.0,0.0,0.0,0.0,0.0,0.0,0.0,0.0,2.5163,2.4869,2.4617,2.4455,2.4697,2.4973,2.5259,2.3484,2.2736,2.294,2.1725,2.1205,2.1192,2.0367,1.9634,1.9045,0.0,1.6892,1.549,1.5271,1.4447,1.333,1.3186,1.2922,1.2593,1.2206,1.2317,1.2674,0.0,0.0,0.0,0.0,0.0,0.0,0.0,0.0,0.0,0.0,0.0,0.0,0.0,0.0,0.0,0.0,0.0,0.0,0.0,0.0,-1.2327,-0.7162,-0.2287,0.1568,0.4247,0.7381,0.9929,1.1884,0.9137,0.5168,0.0,-0.8376,-1.3513,-1.5729,-1.6378,-1.6891,-1.7306,-1.8054,-1.8091,-1.7332,0.0,0.0,0.0,0.0,0.0,0.0,0.0,0.0,0.0,0.0,0.0,0.0,0.0,0.0,0.0,0.7184,0.782,0.8567,0.995,1.1401,1.2716,1.3564,1.2768,1.1842,1.2172,1.1085,0.9448,0.7549,0.7695,0.7947,0.7249,0.8966,0.0,1.6115,0.0,0.0,0.0,0.0,0.0,0.0,0.0,0.0,0.0,0.0,0.0,0.0,0.0,0.0,0.0,0.0,2.5335,2.5205,2.5335,2.5577,2.6013,2.5062,2.4329,2.3834,2.2876,2.2256,2.1919,2.1362,2.0724,2.0088,1.9178,1.7989,1.6616,1.6185,1.5448,1.4493,1.4038,1.3801,1.3589,1.3238,1.3358,1.3747,0.0,0.0,0.0,0.0,0.0,0.0,0.0,0.0,0.0,0.0,0.0,0.0,0.0,0.0,0.0,0.0,0.0,0.0,0.0,0.0,-1.1231,-0.5277,-0.0792,0.3723,0.8366,1.1081,1.3031,1.4258,1.1876,0.5657,-0.4106,-1.0939,-1.4789,-1.5999,-1.6355,-1.6556,-1.6603,-1.6901,-1.6731,-1.5964,-1.2807,0.0,0.0,0.0,0.0,0.0,0.0,0.0,0.0,0.0,0.0,0.0,0.0,0.0,0.8018,0.8453,0.8832,0.9523,1.1348,1.2197,1.3019,1.4814,1.3289,1.1958,1.4279,1.2293,1.038,1.2012,1.1953,1.143,1.1057,1.4439,1.8284,2.1305,0.0,0.0,0.0,0.0,0.0,0.0,0.0,0.0,0.0,0.0,0.0,0.0,0.0,0.0,0.0,0.0,0.0,2.5221,2.5689,2.5961,2.6013,2.5911,2.5607,2.5048,2.3246,2.2501,2.2634,2.1924,2.1344,2.0809,2.067,1.9641,1.8094,1.8334,1.7402,1.5825,1.6109,1.582,1.5312,1.5934,1.5763,1.5428,0.0,0.0,0.0,0.0,0.0,0.0,0.0,0.0,0.0,0.0,0.0,0.0,0.0,0.0,0.0,0.0,0.0,0.0,0.0,-1.3987,-1.0274,-0.478,0.0494,0.6077,1.1948,1.3911,1.5818,1.7781,1.1568,0.4433,-0.3464,-0.8903,-1.2264,-1.3781,-1.3897,-1.4126,-1.444,-1.4564,-1.4544,-1.4279,-1.1828,-0.9106,0.0,0.0,0.0,0.0,0.0,0.0,0.0,0.0,0.9615,0.9719,1.0224,0.9978,0.9591,0.9854,0.9784,0.9896,1.1422,1.2737,1.3927,1.4992,1.5008,1.5115,1.67,1.6295,1.5786,1.6318,1.6098,1.5514,1.4437,0.0,2.025,0.0,0.0,0.0,0.0,0.0,0.0,0.0,0.0,0.0,0.0,0.0,0.0,0.0,0.0,0.0,0.0,0.0,0.0,2.6123,2.6315,2.6453,2.6453,2.6453,2.6175,2.5689,2.4639,2.3833,2.3236,2.2996,2.2566,2.2003,2.201,2.09,1.912,1.9292,1.8401,1.6983,1.7114,1.6754,1.614,1.6922,1.7024,1.6856,0.0,0.0,0.0,0.0,0.0,0.0,0.0,0.0,0.0,0.0,0.0,0.0,0.0,0.0,0.0,0.0,0.0,0.0,-1.4782,-1.3107,-0.997,-0.5267,0.0759,0.6955,1.3205,1.5875,1.8222,2.0333,1.1935,0.4733,-0.1335,-0.6331,-0.9456,-1.0851,-1.1191,-1.1661,-1.2291,-1.2424,-1.2492,-1.2411,-1.0818,-0.8714,0.0,0.0,0.0,0.0,0.0,0.0,0.0,0.0,1.0785,1.1187,1.1721,1.153,1.1072,1.0977,1.0922,1.1038,1.1773,1.3077,1.446,1.5412,1.6407,1.7561,1.9215,1.9432,1.9516,2.036,1.9776,1.8985,1.8688,0.0,0.0,0.0,0.0,0.0,0.0,0.0,0.0,0.0,0.0,0.0,0.0,0.0,0.0,0.0,0.0,0.0,0.0,0.0,0.0,0.0,2.6691,2.6691,2.6691,2.6691,2.647,2.5997,2.5465,2.4752,2.3837,2.3681,2.3377,2.2965,2.2785,2.1899,2.0604,2.0231,1.9206,1.7895,1.7677,1.7302,1.6922,1.7688,1.7786,1.7688,0.0,0.0,0.0,0.0,0.0,0.0,0.0,0.0,0.0,0.0,0.0,0.0,0.0,0.0,0.0,0.0,0.0,0.0,-1.2686,-1.2253,-1.0341,-0.6678,-0.0185,0.6001,1.1725,1.6923,2.0206,2.1473,1.3527,0.7028,0.1911,-0.3733,-0.6735,-0.7485,-0.8502,-0.9435,-1.0274,-1.0709,-1.0708,-1.0403,-0.9657,-0.8259,-0.6433,0.0,0.0,0.0,0.0,0.0,0.0,0.0,1.168,1.3011,1.3011,1.2836,1.247,1.1729,1.2306,1.311,1.2696,1.3336,1.4533,1.6271,1.7281,1.8706,2.1875,2.1079,2.0637,2.4095,2.2873,2.1793,2.3915,2.3826,0.0,0.0,0.0,0.0,0.0,0.0,0.0,0.0,0.0,0.0,0.0,0.0,0.0,0.0,0.0,0.0,0.0,0.0,0.0,0.0,2.6691,2.6691,2.6691,2.6691,2.6487,2.6013,2.5449,2.4934,2.4389,2.3837,2.3595,2.3551,2.2965,2.2694,2.2603,2.1321,1.9965,1.8661,1.7907,1.7633,1.7743,1.8436,1.8274,1.7841,0.0,0.0,0.0,0.0,0.0,0.0,0.0,0.0,0.0,0.0,0.0,0.0,0.0,0.0,0.0,0.0,0.0,0.0,-1.2994,-1.2289,-1.0678,-0.7947,-0.3871,0.1284,0.7608,1.4519,1.8145,1.8332,1.3778,0.9108,0.4275,-0.0271,-0.295,-0.398,-0.5396,-0.648,-0.7237,-0.7884,-0.8326,-0.8575,-0.8143,-0.7396,-0.6405,0.0,0.0,0.0,0.0,0.0,0.0,0.0,0.0,0.0,1.3998,1.4224,1.4091,1.2426,1.2124,1.2353,1.2323,1.3774,1.5515,1.64,1.9164,2.194,2.3059,2.3391,2.4045,2.601,2.6013,2.5507,2.5024,0.0,0.0,0.0,0.0,0.0,0.0,0.0,0.0,0.0,0.0,0.0,0.0,0.0,0.0,0.0,0.0,0.0,0.0,0.0,0.0,0.0,2.6691,2.6691,2.6691,2.6691,2.6624,2.6487,2.5997,2.5297,2.4389,2.3837,2.3595,2.3595,2.3421,2.3098,2.2603,2.1321,2.0481,2.0003,1.9915,1.9788,1.9775,2.0529,2.069,2.0529,0.0,0.0,0.0,0.0,0.0,0.0,0.0,0.0,0.0,0.0,-1.3362,-1.384,0.0,0.0,0.0,0.0,0.0,0.0,-1.2233,-1.1963,-1.1219,-0.9954,-0.6823,-0.153,0.6123,1.2054,1.5208,1.5529,1.3643,1.0547,0.6342,0.2509,0.0079,-0.1118,-0.3324,-0.469,-0.5438,-0.6485,-0.6994,-0.7138,-0.7157,-0.6714,-0.6007,0.0,0.0,0.0,0.0,0.0,0.0,0.0,0.0,0.0,1.4257,1.4703,1.464,1.3418,1.3345,1.385,1.4418,1.5976,1.779,1.9294,2.1805,2.4271,2.5504,2.6193,2.6879,2.7918,2.7951,2.7659,2.7111,0.0,0.0,0.0,0.0,0.0,0.0,0.0,0.0,0.0,0.0,0.0,0.0,0.0,0.0,0.0,0.0,0.0,0.0,0.0,0.0,0.0,2.6691,2.6691,2.6691,2.6691,2.6691,2.6691,2.6227,2.5652,2.5012,2.4266,2.3794,2.3595,2.3595,2.3246,2.2649,2.1894,2.1363,2.1054,2.1135,2.1108,2.1102,2.154,2.1697,2.1697,0.0,0.0,0.0,0.0,0.0,0.0,0.0,0.0,0.0,-1.1802,-1.2421,-1.2731,0.0,0.0,0.0,-1.066,-1.0058,-1.0006,-1.0826,-1.1386,-1.1866,-1.2188,-0.8854,-0.2893,0.588,0.9481,1.1876,1.3147,1.318,1.1441,0.7952,0.4581,0.2372,0.104,-0.1951,-0.3716,-0.4509,-0.5916,-0.6282,-0.5944,-0.6414,-0.6081,-0.5401,-0.6376,0.0,0.0,0.0,0.0,0.0,0.0,0.0,0.0,1.3717,1.4364,1.4444,1.4401,1.537,1.6708,1.7815,1.9169,2.093,2.3712,2.4875,2.5972,2.8614,2.9055,2.907,2.9604,0.0,2.8608,0.0,0.0,0.0,0.0,0.0,0.0,0.0,0.0,0.0,0.0,0.0,0.0,0.0,0.0,0.0,0.0,0.0,0.0,0.0,0.0,0.0,2.6758,2.6725,2.6691,2.6691,2.6691,2.6691,2.6691,2.6262,2.6033,2.5961,2.491,2.4116,2.3595,2.3595,2.329,2.2785,2.274,2.2346,2.1885,2.1791,2.1838,2.1885,2.1885,2.1885,2.1885,0.0,0.0,0.0,0.0,0.0,0.0,0.0,0.0,-0.7494,-0.8548,-1.02,-1.0967,-1.0161,-1.0096,0.0,-0.9639,-0.9399,-0.9622,-1.0522,-1.1336,-1.1921,-1.2264,-0.8338,-0.3835,0.1104,0.6638,1.0288,1.196,1.2894,1.1614,0.8267,0.5885,0.3692,0.172,-0.0583,-0.2081,-0.2949,-0.4002,-0.4392,-0.4346,-0.4979,-0.5235,-0.5316,-0.6116,-0.6128,0.0,0.0,0.0,0.0,0.0,0.0,0.0,1.1258,1.3205,1.4629,1.3797,1.5539,1.7683,1.7534,2.017,2.3341,2.493,2.6902,2.8711,2.9798,2.9969,2.9871,2.9799,2.9759,0.0,0.0,0.0,0.0,0.0,0.0,0.0,0.0,0.0,0.0,0.0,0.0,0.0,0.0,0.0,0.0,0.0,0.0,0.0,0.0,0.0,0.0,2.7147,2.6873,2.6691,2.6691,2.6691,2.6691,0.0,2.659,2.6367,2.5961,2.491,2.4116,2.3595,2.3595,2.3508,2.3377,2.2875,2.2875,2.3128,2.268,2.277,2.3172,2.3172,2.3172,2.3172,0.0,0.0,0.0,0.0,0.0,0.0,0.0,0.0,-0.5631,-0.7086,-0.8238,-0.8725,-0.8152,-0.7764,0.0,0.0,-0.7835,-0.8403,-0.9392,-1.0606,-1.1829,-1.3063,-0.9624,-0.5602,-0.1209,0.4289,0.8531,1.1414,1.2266,1.1175,0.8267,0.6377,0.4565,0.2804,0.0521,-0.0788,-0.1432,-0.2862,-0.3295,-0.314,-0.4183,-0.4517,-0.4496,-0.5415,-0.5732,-0.5613,-0.5137,0.0,0.0,0.0,0.0,0.0,0.0,0.0,1.3201,1.3829,1.5503,1.7566,1.9495,2.1854,2.4417,2.7146,2.8856,2.9946,3.0347,3.0419,3.0361,3.0205,0.0,0.0,0.0,0.0,0.0,0.0,0.0,0.0,0.0,0.0,0.0,0.0,0.0,0.0,0.0,0.0,0.0,0.0,0.0,0.0,0.0,2.6621,2.6791,2.7004,2.6808,2.6691,2.6691,2.6691,2.6691,2.6691,2.6691,2.6436,2.5961,2.5144,2.4617,2.4348,2.4074,2.3991,2.3948,2.3363,2.3334,2.3551,2.3231,2.3334,2.3595,2.3595,2.3595,2.3595,0.0,0.0,0.0,0.0,0.0,0.0,0.0,0.0,0.0,-0.599,-0.6454,-0.6523,-0.6266,-0.5308,-0.4891,0.0,0.0,0.0,-0.808,-0.9863,-1.174,-1.3628,-1.0831,-0.6887,-0.1889,0.301,0.7364,1.1215,1.1767,1.0899,0.8706,0.689,0.5371,0.3989,0.1671,0.0379,-0.0122,-0.1928,-0.2431,-0.2119,-0.3443,-0.3683,-0.3428,-0.4442,-0.4937,-0.5075,-0.5075,-0.4305,-0.3006,-0.1057,0.0,0.0,0.0,0.0,1.1059,1.3468,1.5203,1.7169,2.1048,2.3034,2.5045,2.9311,3.0397,3.0432,3.0585,3.0616,3.0601,3.0598,0.0,0.0,0.0,0.0,0.0,0.0,0.0,0.0,0.0,0.0,0.0,0.0,0.0,0.0,0.0,0.0,0.0,0.0,0.0,0.0,2.5688,2.6217,2.6589,2.6808,2.6725,2.6691,2.6691,2.6691,2.6691,2.6691,2.6691,2.6521,2.612,2.5672,2.5373,2.5182,2.4752,2.4552,2.4511,2.3964,2.3767,2.3709,2.3638,2.3595,2.3595,2.3595,2.3595,2.3595,0.0,0.0,0.0,0.0,0.0,0.0,0.0,0.0,0.0,0.0,-0.4805,-0.5057,-0.4057,-0.3674,-0.373,-0.4176,-0.4755,-0.58,-0.7496,0.0,0.0,-1.2597,-0.9406,-0.5485,-0.0987,0.4086,0.8166,1.1215,1.2142,1.2007,1.0832,0.857,0.6586,0.4869,0.3088,0.1699,0.0663,-0.0521,-0.1118,-0.1301,-0.1905,-0.2321,-0.2601,-0.3156,-0.3541,-0.3759,-0.3759,-0.3748,-0.355,-0.2448,-0.1029,0.0,0.0,0.0,0.8905,1.1071,1.4311,1.7411,1.827,2.1851,2.6194,2.9757,3.0723,3.0799,3.0718,0.0,3.0578,0.0,0.0,0.0,0.0,0.0,0.0,0.0,0.0,0.0,0.0,0.0,0.0,0.0,0.0,0.0,0.0,0.0,0.0,0.0,0.0,0.0,2.607,2.5868,2.6194,2.7192,2.6873,2.6691,2.6691,2.6691,2.6691,2.6691,2.6691,2.6657,2.6624,2.6539,2.5999,2.5182,2.5128,2.5105,2.5051,2.4496,2.4266,2.4225,2.3794,2.3595,2.3595,2.3595,2.3595,2.3595,0.0,0.0,0.0,0.0,0.0,0.0,0.0,0.0,0.0,0.0,0.0,-0.3089,-0.2614,-0.2322,-0.2371,-0.2827,-0.3976,-0.566,-0.7907,-1.0129,-1.1456,-1.167,-0.8225,-0.4325,-0.0161,0.4942,0.9031,1.1978,1.2358,1.232,1.1904,1.0901,0.9198,0.6935,0.5171,0.3622,0.2294,0.1331,0.0663,0.0175,-0.0726,-0.0858,-0.0664,-0.1794,-0.2138,-0.2097,-0.26,-0.2776,-0.2741,-0.2481,-0.1868,-0.0876,0.1017,0.0,0.0,0.0,1.1015,1.4326,1.8773,2.3058,2.697,2.9913,3.0699,3.0719,3.0657,3.0594,3.0537,0.0,0.0,0.0,0.0,0.0,0.0,0.0,0.0,0.0,0.0,0.0,0.0,0.0,0.0,0.0,0.0,0.0,0.0,0.0,0.0,2.4092,2.4594,2.5246,2.5841,2.6339,2.6571,2.6691,2.6691,2.6691,2.6691,2.6691,2.6691,2.6691,2.6691,2.6691,2.647,2.6016,2.5762,2.5652,2.5615,2.5067,2.4855,2.4776,2.4282,2.4032,2.3991,2.3724,2.3595,2.3638,0.0,0.0,0.0,0.0,0.0,0.0,0.0,0.0,0.0,0.0,0.0,-0.158,-0.1554,0.0,0.0,0.0,-0.3388,-0.5322,-0.784,-0.9613,-1.0552,-1.0532,-0.7336,-0.3699,0.0189,0.5159,0.9114,1.2021,1.2427,1.26,1.2528,1.2605,1.156,0.9508,0.7559,0.5757,0.412,0.3066,0.2251,0.1623,0.1042,0.1088,0.1344,0.0356,-0.0125,-0.0352,-0.123,-0.163,-0.181,-0.1992,-0.2004,-0.1735,-0.0509,0.0879,0.0,0.0,0.0,1.1392,1.8509,2.2245,2.5015,2.871,2.9613,2.9777,0.0,0.0,0.0,0.0,0.0,0.0,0.0,0.0,0.0,0.0,0.0,0.0,0.0,0.0,0.0,0.0,0.0,0.0,0.0,0.0,0.0,0.0,0.0,2.319,2.3376,2.4441,2.522,2.5592,2.6133,2.6505,2.6691,2.6691,2.6691,2.6691,2.6691,2.6691,2.6691,2.6691,2.6691,2.6691,2.6332,2.6191,2.6156,2.5615,2.5335,2.5144,2.4632,2.4307,2.4158,2.3767,2.3595,2.3681,0.0,0.0,0.0,0.0,0.0,0.0,0.0,0.0,0.0,0.0,0.0,-0.0965,-0.0961,-0.0803,-0.107,-0.1942,-0.2828,-0.4295,-0.6474,-0.8188,-0.9084,-0.9025,-0.6808,0.0,-0.0146,0.431,0.7829,1.0421,1.2324,1.3126,1.287,1.3008,1.2883,1.247,1.0147,0.7973,0.5952,0.4386,0.333,0.2822,0.3962,0.3862,0.3053,0.3735,0.2988,0.1451,0.0571,0.0,-0.1135,-0.1157,-0.1452,-0.1819,-0.1855,-0.0558,0.1252,0.0,0.0,0.0,1.5485,1.6905,1.8485,2.529,2.6948,2.7544,0.0,0.0,0.0,0.0,0.0,0.0,0.0,0.0,0.0,0.0,0.0,0.0,0.0,0.0,0.0,0.0,0.0,0.0,0.0,0.0,0.0,0.0,0.0,2.2665,2.3359,2.346,2.4154,2.5558,2.5642,2.5998,2.6691,2.6691,2.6691,2.6691,2.6691,2.6691,2.6691,2.6691,2.6691,2.6691,2.6657,2.6657,2.6624,2.6139,2.5652,2.5144,2.4632,2.4074,2.3638,2.3595,2.3595,2.3681,0.0,0.0,0.0,0.0,0.0,0.0,0.0,0.0,0.0,0.0,0.0,0.0,0.0,0.0039,-0.0491,-0.1453,-0.3138,-0.4809,-0.6388,-0.8067,-0.9081,-0.9212,-0.7375,-0.4494,-0.0511,0.375,0.7396,1.0431,1.2091,1.2612,1.2096,1.3225,1.337,1.2572,1.0345,0.877,0.7637,0.5835,0.0,0.4116,0.5316,0.5585,0.5247,0.4777,0.0,0.0,0.0,0.0,0.0,0.1061,-0.0084,-0.1565,-0.1998,-0.1663,-0.0675,0.1502,0.4286,0.7748,1.2628,1.45,1.6386,2.1783,2.4483,2.6157,2.7556,0.0,0.0,0.0,0.0,0.0,0.0,0.0,0.0,0.0,0.0,0.0,0.0,0.0,0.0,0.0,0.0,0.0,0.0,0.0,0.0,0.0,0.0,0.0,2.3582,2.437,2.4847,2.4881,2.5355,2.5744,2.5998,2.6454,2.6691,2.6691,2.6691,2.6691,2.6691,2.6691,2.6691,2.6691,2.6691,2.6691,2.6691,2.6521,2.6332,2.6123,2.5598,2.5105,2.4592,2.4225,2.3921,2.3724,0.0,0.0,0.0,0.0,0.0,0.0,0.0,0.0,0.4134,0.2918,0.0,0.0,0.0,0.0,-0.015,-0.1615,-0.3371,-0.4985,-0.6427,-0.7781,-0.8717,-0.9178,-0.7821,-0.509,-0.089,0.2977,0.6669,1.0195,1.1775,1.2214,1.1612,1.2757,1.2898,1.2122,1.0407,0.9489,0.0,0.0,0.0,0.5339,0.0,0.0,0.6793,0.0,0.0,0.0,0.0,0.0,0.0,0.0,0.0,0.0,0.0,0.0,0.0,0.0,0.2714,0.5174,0.9033,1.1034,1.3244,1.8402,2.0967,2.3036,2.6189,0.0,0.0,0.0,0.0,0.0,0.0,0.0,0.0,0.0,0.0,0.0,0.0,0.0,0.0,0.0,0.0,0.0,0.0,0.0,0.0,0.0,0.0,0.0,2.3687,2.466,2.5118,2.4864,2.5828,2.6353,2.6353,2.7097,2.7469,2.7452,2.7199,2.7063,2.7063,2.681,2.6691,2.6725,2.6841,2.6808,2.6691,2.6691,2.6624,2.6436,2.612,2.5689,2.5144,2.4592,2.4184,2.4006,0.0,0.0,0.0,0.0,0.0,0.0,0.0,0.0,0.4828,0.3518,0.0,0.0,0.0,0.0,0.0,-0.2408,-0.3458,-0.4718,-0.6397,-0.7161,-0.7942,-0.875,-0.8034,-0.5615,-0.1371,0.1966,0.5574,0.9488,1.1283,1.1926,1.1512,1.1599,1.1547,1.1316,1.0478,1.0227,1.039,0.0,0.7995,0.6432,0.0,0.9666,0.7723,0.0,0.0,0.0,0.662,0.542,0.0,0.0,0.0,0.0,0.0,0.0,0.0,0.0,0.1102,0.2443,0.0,0.0,0.0,1.5003,0.0,0.0,0.0,0.0,0.0,0.0,0.0,0.0,0.0,0.0,0.0,0.0,0.0,0.0,0.0,0.0,0.0,0.0,0.0,0.0,0.0,0.0,0.0,0.0,0.0,2.372,2.3736,2.4242,2.4847,2.5592,2.7029,2.7755,2.7755,2.8586,2.9011,2.8975,2.8213,2.7806,2.7755,2.7063,2.6708,2.6725,2.7115,2.7051,2.6725,2.6725,2.6436,2.6033,2.6049,2.5689,2.5182,2.4632,2.443,2.4511,0.0,0.0,0.0,0.0,0.0,0.7968,0.7121,0.6284,0.5447,0.0,0.0,0.0,0.3232,0.1029,-0.0981,-0.2463,-0.3547,-0.4804,-0.6405,-0.6925,-0.7626,-0.8667,-0.834,-0.6475,-0.2998,0.0604,0.3879,0.6765,0.96,1.0418,0.9371,1.0065,1.0323,1.0174,1.0369,1.0134,0.9483,0.8429,0.0,0.0,0.9777,1.0748,0.0,0.0,0.0,0.0,0.0,1.014,0.0,0.0,0.6985,0.3592,0.0,0.0,-0.1328,0.0,-0.0022,0.0877,0.2409,0.0,0.0,0.0,0.0,0.0,0.0,0.0,0.0,0.0,0.0,0.0,0.0,0.0,0.0,0.0,0.0,0.0,0.0,0.0,0.0,0.0,0.0,0.0,0.0,0.0,0.0,0.0,2.3422,2.4209,2.4745,2.5112,2.5389,2.5609,2.6522,2.6996,2.6996,2.8315,2.9011,2.9011,2.8755,2.8366,2.7772,2.757,2.7199,2.6691,2.6808,2.6971,2.7147,2.7147,2.7066,2.6905,2.6641,2.621,2.5762,2.5615,2.5297,2.5067,0.0,0.0,0.3075,0.7948,0.9497,0.9663,0.8422,0.7516,0.6645,0.0,0.0,0.0,0.3248,0.1226,-0.0615,-0.22,-0.3263,-0.4424,-0.5882,-0.6438,-0.7201,-0.8234,-0.8135,-0.677,-0.4008,-0.0463,0.2724,0.5539,0.8682,0.9718,0.8799,0.9415,0.9419,0.8931,0.9267,0.909,0.8438,0.0,0.0,0.0,1.0672,0.0,0.0,1.362,1.4792,0.0,0.0,0.0,1.1696,1.2261,0.9249,0.0,0.0,0.0,0.0,0.0,-0.0355,0.0154,0.0864,0.1415,0.2357,0.4765,0.0,0.0,0.0,0.0,0.0,0.0,0.0,0.0,0.0,0.0,0.0,0.0,0.0,0.0,0.0,0.0,0.0,0.0,0.0,0.0,0.0,0.0,0.0,2.2827,2.3702,2.4598,2.547,2.588,2.6065,2.6065,2.6776,2.7317,2.7655,2.8856,2.96,2.9905,2.96,2.9211,2.8755,2.8076,2.7588,2.7148,2.701,2.7178,2.753,2.753,2.753,2.75,2.7115,2.6791,2.6505,2.6139,2.5799,2.5577,0.0,0.0,0.4476,0.9074,1.1295,1.1791,0.9993,0.9117,0.8201,0.0,0.6404,0.538,0.3085,0.1909,0.038,-0.1739,-0.2723,-0.3803,-0.5036,-0.5845,-0.6657,-0.753,-0.7598,-0.6655,-0.4602,-0.1435,0.1736,0.4884,0.7983,0.9329,0.9046,0.9162,0.8687,0.7737,0.7708,0.7606,0.7426,0.7241,0.0,0.7551,1.1979,1.2989,0.0,0.0,1.5948,0.0,1.551,1.434,1.291,1.4502,1.1536,0.0,0.0,0.0,0.0,0.0,-0.0023,0.0233,-0.0022,0.0219,0.1108,0.3382,0.0,0.0,1.6053,1.8079,0.0,0.0,0.0,0.0,0.0,0.0,0.0,0.0,0.0,0.0,0.0,0.0,0.0,0.0,0.0,0.0,0.0,0.0,2.3407,2.3593,2.4219,2.5029,2.5941,2.6436,2.6691,2.6691,2.7435,2.8197,2.8975,2.9736,3.048,3.119,3.0548,3.0213,3.0116,2.8742,2.8081,2.7997,2.7659,2.7682,2.8021,2.7971,2.7954,2.7926,2.753,2.7317,2.7192,2.6437,2.6104,2.6085,-0.2714,0.124,0.5201,0.9717,1.1929,1.2727,1.1875,1.065,0.9692,0.9262,0.7736,0.5952,0.398,0.2107,0.0346,-0.1305,-0.2384,-0.3455,-0.4638,-0.5177,-0.5814,-0.6691,-0.7059,-0.6678,-0.5542,-0.2579,0.0054,0.2319,0.5773,0.7669,0.8077,0.8104,0.7827,0.732,0.716,0.7061,0.7012,0.0,0.0,1.0762,1.2197,0.0,1.5277,1.8181,1.9968,2.0745,1.9291,1.8547,1.7675,0.0,1.2619,1.0705,0.0,0.0,0.0,0.0,0.0,0.0,0.0,0.0,0.0,0.0,0.0,0.0,0.0,0.8662,0.0,0.0,0.0,0.0,0.0,0.0,0.0,0.0,0.0,0.0,0.0,0.0,0.0,0.0,0.0,0.0,0.0,0.0,2.3546,2.3595,2.4999,2.5885,2.5994,2.6436,2.6691,2.6691,2.7435,2.8197,2.8975,2.9736,3.048,3.119,3.1055,3.0844,3.0576,3.0266,2.9799,2.9229,2.8895,2.8741,2.8765,2.8434,2.8298,2.8264,2.7908,2.7607,2.7272,2.7098,2.6856,2.6539,-0.272,0.1605,0.5883,1.0393,1.2929,1.4138,1.3355,1.2125,1.102,1.0472,0.8625,0.6597,0.4638,0.2943,0.1253,-0.0406,-0.1502,-0.2552,-0.3572,-0.4264,-0.4847,-0.5435,-0.6141,-0.6149,-0.5428,-0.316,-0.0924,0.1313,0.4751,0.6809,0.7517,0.8079,0.8201,0.7874,0.7195,0.7166,0.756,0.0,0.8209,1.0725,1.319,0.0,1.8611,2.1188,2.2523,2.2893,2.1843,2.0898,1.9646,1.655,1.3678,0.0,0.0,0.7803,0.5602,0.0,0.2958,0.2625,0.0,0.0,0.0,-0.216,0.0,0.0,0.0,0.0,0.0,0.0,0.0,0.0,0.0,0.0,0.0,0.0,0.0,0.0,0.0,0.0,0.0,0.0,0.0,0.0,0.0,0.0,2.3724,2.3991,2.564,2.6472,2.601,2.6436,2.686,2.7249,2.7621,2.8383,2.9533,2.9922,3.048,3.119,3.1411,3.1396,3.1219,3.1113,3.0828,3.044,2.9513,2.9176,2.9247,2.8648,2.8515,2.8658,2.829,2.8047,2.7833,2.7678,2.747,2.7303,-0.265,0.195,0.6503,1.0632,1.369,1.5333,1.4583,1.3509,1.2353,1.1109,0.9384,0.7468,0.5429,0.4179,0.2805,0.1059,0.0122,-0.0886,-0.2052,-0.2885,-0.3519,-0.4028,-0.5002,-0.5325,-0.494,-0.3449,-0.1554,0.0739,0.3992,0.6117,0.7183,0.8258,0.866,0.8468,0.7982,0.7915,0.0,0.0,0.0,1.1183,0.0,1.7808,2.0477,2.2995,2.3823,2.3651,2.3625,2.2423,2.0561,1.8452,0.0,1.1304,1.2141,0.9865,0.0,0.0,0.0,0.0,0.0,0.0,0.0,0.0,0.0,-0.059,0.0,0.0,0.0,0.0,0.0,0.0,0.0,0.0,0.0,0.0,0.0,0.0,0.0,0.0,0.0,0.0,0.0,0.0,0.0,0.0,2.3603,2.4854,2.5734,2.6261,2.6319,2.6689,2.7182,2.7772,2.7941,2.8721,3.0091,3.0108,3.048,3.119,3.1603,3.1861,3.1933,3.1812,3.1738,3.168,3.0362,2.9807,2.9755,2.9057,2.8852,2.8952,2.8633,2.8471,2.8368,2.8102,2.7954,2.7897,-0.1587,0.2691,0.7008,0.9949,1.331,1.5564,1.546,1.5014,1.3837,1.138,1.0132,0.8687,0.6616,0.593,0.5055,0.3534,0.0,0.0,0.0,0.0,-0.1394,-0.2747,-0.3669,-0.4284,-0.4624,-0.3543,-0.2075,-0.024,0.2652,0.5066,0.7045,0.7824,0.8174,0.8242,1.0064,0.0,0.0,0.0,1.2795,0.0,1.7057,1.7489,0.0,2.1741,2.3578,2.4248,2.4526,2.3599,2.1733,0.0,1.6073,1.4085,0.0,0.9262,0.0,0.0,0.0,0.0,0.0,0.0,0.0,0.0,-0.173,0.0,0.0,0.0,0.0,0.0,0.0,0.0,0.0,0.0,0.0,0.0,0.0,0.0,0.0,0.0,0.0,0.0,0.0,0.0,0.0,0.0,0.0,2.6691,2.4495,2.4364,2.7449,2.7654,2.7688,2.7789,2.8484,2.9262,3.0091,3.0108,3.048,3.119,3.1603,3.2022,3.2433,3.2813,3.301,3.2973,3.2447,3.161,3.0612,3.0177,2.9593,2.8994,2.8952,2.8707,2.8394,2.8368,2.8156,2.7897,-0.0635,0.2749,0.6405,0.8921,1.2494,1.508,1.5226,1.5002,1.4036,1.1776,1.0511,0.923,0.7656,0.0,0.0,0.0,0.0,0.3045,0.0,0.0,0.0081,-0.1639,-0.2885,-0.3598,-0.3709,-0.3295,-0.2132,-0.0223,0.1968,0.4334,0.6832,0.7577,0.8318,0.9121,1.1136,0.0,1.1247,0.0,0.0,0.0,0.0,0.0,0.0,2.3772,2.6065,2.6346,2.5849,2.5077,2.4006,0.0,1.8361,0.0,0.0,0.0,0.0,0.0,0.0,0.0,0.0,0.0,0.0,0.0,0.0,0.0,-0.1958,0.0,-0.1747,0.0,0.0,0.0,0.0,0.0,0.0,0.0,0.0,0.0,0.0,0.0,0.0,0.0,0.0,0.0,0.0,0.0,0.0,0.0,0.0,2.5531,2.8366,2.8501,2.8687,2.9144,2.9465,2.9989,3.0734,3.0734,3.0886,3.119,3.1878,3.2316,3.2517,3.3225,3.355,3.3514,3.2865,3.2308,3.1792,3.1169,3.0411,2.9714,2.9714,2.9308,2.8749,2.8749,2.8676,2.8551,0.1086,0.3512,0.6349,0.8633,1.1791,1.4224,1.4868,1.4462,1.3552,0.0,0.0,0.0,0.8386,0.7077,0.0,0.0,0.0,0.5341,0.0,0.0,0.2066,0.0411,-0.1551,0.0,0.0,-0.237,-0.1821,-0.0077,0.1686,0.3999,0.6783,0.7563,0.862,0.9921,1.1755,1.3011,1.3722,0.0,0.0,1.6814,1.7318,1.8589,2.0688,2.5438,2.7452,2.7631,2.686,2.627,2.5622,2.4128,1.9928,0.0,1.844,0.0,0.0,0.0,0.0,0.0,0.4389,0.0,0.0,0.0,0.0,0.0,0.0,0.0,0.0,0.0,0.0,0.0,0.0,0.0,0.0,0.0,0.0,0.0,0.0,0.0,0.0,0.0,0.0,0.0,0.0,0.0,0.0,0.0,0.0,0.0,2.911,2.9296,2.955,3.0091,3.0311,3.0666,3.119,3.1329,3.1351,3.1389,3.2282,3.2681,3.2713,3.3447,3.3807,3.377,3.3183,3.2816,3.2559,3.1971,3.1256,3.0503,3.0283,2.9843,2.931,2.9067,2.8994,2.8994,0.4025,0.5567,0.7346,0.9578,1.133,1.3001,1.4644,0.0,0.0,0.0,0.0,0.0,0.0,0.0,0.0,0.0,0.0,1.0118,0.657,0.0,0.492,0.0,0.0,0.0,0.0,0.0,-0.1105,0.0,0.1818,0.4142,0.6921,0.7854,0.8961,1.0264,1.2009,1.2983,1.3479,1.5706,1.8626,2.1792,2.22,2.3579,2.5372,0.0,2.637,2.7317,2.7286,0.0,0.0,2.202,2.0045,0.0,0.0,0.0,0.0,0.0,0.0,0.0,0.0,0.0,0.0,0.3085,0.0,0.0,0.0,0.0,-0.3561,0.0,0.0,0.0,0.0,0.0,0.0,0.0,0.0,0.0,0.0,0.0,0.0,0.0,0.0,0.0,0.0,0.0,0.0,0.0,0.0,0.0,2.9719,3.0074,3.0091,3.0108,3.0784,3.1173,3.119,3.1603,3.1789,3.1789,3.2745,3.3184,3.3184,3.3606,3.3807,3.3807,3.377,3.333,3.2614,3.2577,3.21,3.1274,3.0503,3.0173,3.0081,2.9287,2.8994,2.8994,0.595,0.7167,0.8124,0.8503,1.0616,1.275,0.0,1.3517,0.0,0.0,0.0,0.0,0.0,0.0,1.1567,0.0,0.0,1.0436,0.7285,0.6641,0.0,0.0,0.0,0.0077,0.0,0.0,-0.1235,-0.0272,0.1498,0.3559,0.5882,0.7387,0.8604,0.9587,0.0,1.4624,0.0,0.0,0.0,0.0,0.0,2.2181,2.39,0.0,0.0,2.6337,2.7583,2.7596,0.0,2.5467,2.2573,1.9551,1.9749,1.7083,1.4086,1.4883,1.4611,0.0,0.0,0.0,1.1879,0.7776,0.0,0.0,0.0,0.0,0.0,0.0,0.0,0.0,0.0,0.0,0.0,0.0,0.0,0.0,0.0,0.0,0.0,0.0,0.0,0.0,0.0,0.0,0.0,0.0,0.0,0.0,0.0,3.0835,3.0835,3.0835,3.1072,3.1312,3.1603,3.1716,3.1968,3.2264,3.2903,3.3214,3.3214,3.3625,3.3807,3.3807,3.3807,3.3642,3.3385,3.3385,3.2926,3.2118,3.1311,3.0668,3.0099,2.931,2.8994,2.8994,0.7467,0.8333,0.8984,0.8897,1.0767,0.0,0.0,0.0,0.0,0.0,1.4014,0.0,1.5329,0.0,1.346,0.0,1.3904,1.2283,0.8762,0.8798,0.0,0.576,0.3209,0.0,0.0,0.0,0.0,0.0771,0.1565,0.3117,0.5415,0.7185,0.8615,0.97,0.0,1.4566,1.8641,0.0,2.036,0.0,0.0,2.1593,0.0,0.0,2.4547,2.4882,0.0,2.7601,2.7255,2.6937,2.4612,2.2045,2.3065,2.0284,1.6943,1.8336,1.7747,1.6518,1.5972,1.6262,0.0,1.1691,1.0493,0.0,0.4396,0.0,0.0,0.0,0.0,0.0,0.0,0.0,0.0,0.0,0.0,0.0,0.0,0.0,0.0,0.0,0.0,0.0,0.0,0.0,0.0,0.0,0.0,0.0,0.0,0.0,3.119,3.119,3.1351,3.1545,3.1789,3.2127,3.2433,3.2745,3.3196,3.3419,3.3419,3.368,3.3807,3.3807,3.3902,3.3876,3.3815,3.403,3.3722,3.3087,3.2275,3.1647,3.102,2.9536,2.9177,2.9439,0.8594,0.9283,0.0,0.0,1.18,0.0,0.0,0.0,1.3219,0.0,1.4704,1.464,1.5485,1.6185,1.6334,1.5811,1.6902,0.0,1.1089,1.2018,0.0,0.0,0.7422,0.7698,0.9973,0.0,0.0,0.0,0.0,0.2847,0.5461,0.7271,0.8998,1.0516,0.9807,0.0,1.8664,1.8145,2.1462,2.6757,2.3257,2.1969,2.2192,2.2347,0.0,2.312,2.5783,2.6954,2.7129,2.6298,2.5997,2.5672,2.4092,2.388,2.386,2.2324,2.2218,2.2062,1.9458,1.8599,1.7775,1.4971,0.0,0.0,0.0,0.0,0.4449,0.0,0.0,0.0,0.0,0.0,0.0,0.0,0.0,0.0,0.0,0.0,0.0,0.0,0.0,0.0,0.0,0.0,0.0,0.0,0.0,0.0,0.0,0.0,0.0,3.119,3.1565,3.1789,3.1789,3.2713,3.3166,3.3225,3.3606,3.3807,3.3815,3.3815,3.3815,3.3842,3.4093,3.4068,3.3868,3.4442,3.4486,3.4125,3.3306,3.297,3.2608,3.007,2.9586,3.021,0.9617,1.1081,1.2345,0.0,1.254,1.2782,0.0,0.0,0.0,0.0,1.7007,1.7626,2.1639,2.013,1.8988,1.9344,1.8298,0.0,0.0,0.0,0.0,1.1825,0.9474,0.8776,0.9973,0.453,0.0,0.2544,0.0,0.0,0.4511,0.7155,0.8915,0.9846,0.0,0.0,1.7369,1.6869,1.9469,2.3791,2.2638,2.1535,0.0,0.0,2.3323,2.2846,2.6,2.7019,2.6808,2.6624,2.5966,2.5228,2.5115,2.4546,2.3971,2.3993,2.4089,2.4147,2.3968,2.3506,2.2508,2.0146,1.8687,1.6887,0.0,0.0,0.0,0.0,0.0,0.0,0.0,0.0,0.0,0.0,0.0,0.0,0.0,0.0,0.0,0.0,0.0,0.0,0.0,0.0,0.0,0.0,0.0,0.0,0.0,0.0,0.0,3.1106,3.1291,3.1507,3.1789,3.2366,3.2942,3.3488,3.3707,3.3902,3.4117,3.4117,3.4117,3.4099,3.4171,3.4171,3.4099,3.4265,3.4288,3.4125,3.3306,3.2497,3.1728,3.1048,3.054,3.021,1.0787,0.0,0.0,1.3846,0.0,0.0,1.5581,0.0,0.0,1.8392,1.8147,0.0,2.2192,2.192,2.16,2.1982,2.0655,0.0,0.0,0.0,0.0,1.3525,1.229,1.1587,1.1507,0.7019,0.0,0.352,0.0,0.0,0.4122,0.6985,0.8763,0.9555,0.0,1.2061,0.0,1.8656,2.0453,2.1856,2.2858,0.0,0.0,2.3964,2.4599,2.4942,2.6482,2.7004,2.6971,2.6971,2.6656,2.6286,2.6253,2.5983,2.564,2.5497,2.5601,2.5862,2.6101,2.5916,2.5295,2.3875,2.2834,2.1242,1.7783,1.6319,1.511,0.0,0.0,0.0,0.0,0.0,0.0,0.0,0.0,0.0,0.0,0.0,0.0,0.0,0.0,0.0,0.0,0.0,0.0,0.0,0.0,0.0,0.0,0.0,0.0,3.0468,3.0387,3.0905,3.2074,3.1892,3.2485,3.3857,3.3703,3.3906,3.4423,3.4027,3.4064,3.4423,3.4553,3.4532,3.4423,3.4658,3.4716,3.4538,3.3961,3.3199,3.2449,3.2449,3.1715,3.0723,0.0,0.0,0.0,0.0,0.0,0.0,0.0,1.6059,0.0,1.9003,0.0,1.9816,2.1153,2.2895,2.3969,2.4053,0.0,2.1616,1.9021,1.9527,1.8414,1.5036,1.5371,1.5037,1.3765,1.0279,0.0,0.0,0.0,0.0,0.4054,0.6726,0.8488,0.9385,0.0,0.0,0.0,2.1083,2.2394,0.0,2.3642,2.5027,2.5551,2.5126,2.6189,2.7811,2.7115,2.7083,2.7348,2.7334,2.7572,2.7872,2.7402,2.763,2.7837,2.6899,2.6961,2.7297,2.7069,2.7028,2.697,2.661,2.6136,2.4961,2.2099,2.0654,1.9322,1.7271,1.5367,1.3605,0.0,0.0,0.0,0.0,0.0,0.0,0.0,0.0,0.0,0.0,0.0,0.0,0.0,0.0,0.0,0.0,0.0,0.0,0.0,0.0,0.0,0.0,2.9721,0.0,3.2051,0.0,3.2068,3.3728,3.3588,3.3937,3.4735,3.3979,3.4054,3.4773,3.4999,3.4963,3.4774,3.5258,3.5289,3.5016,3.4774,3.4348,3.3807,3.3807,3.2852,3.1531,0.0,0.0,0.0,0.0,0.0,2.0356,2.1679,2.1189,2.1561,2.4194,2.4048,2.4751,2.7451,2.6259,2.5485,2.602,2.4511,0.0,0.0,0.0,0.0,1.8756,1.7734,1.6628,1.5392,1.1406,0.8328,0.0,0.0,0.0,0.4061,0.6294,0.7856,0.8767,0.0,0.0,1.5976,1.8604,0.0,2.2912,2.468,2.5482,2.5727,2.6866,2.7536,2.7869,2.7754,2.7754,2.7736,2.7409,2.7677,2.8154,2.8165,2.8399,2.8609,2.8415,2.8439,2.8529,2.8719,2.8801,2.8839,2.8836,2.8708,2.8107,2.6301,2.5513,2.4922,2.4098,2.3074,2.1283,1.7853,0.0,0.0,0.0,0.0,0.0,0.0,0.0,0.0,0.0,0.0,0.0,0.0,0.0,0.0,0.0,0.0,0.0,0.0,0.0,0.0,0.0,0.0,0.0,0.0,0.0,3.2299,3.1334,3.3187,3.4402,3.5016,3.4864,3.4883,3.5016,3.5088,3.507,3.5053,3.5122,3.4999,3.4773,3.4714,3.4348,3.3807,3.3807,3.3201,3.2302,0.0,0.0,0.0,0.0,0.0,0.0,0.0,2.6124,0.0,2.5512,2.5084,2.5338,2.6518,2.6917,2.7096,2.7105,2.5923,2.499,2.4674,2.3122,2.1718,2.0607,1.8681,0.0,1.5937,1.3692,1.0796,0.737,0.0,0.0,0.4455,0.6257,0.7528,0.838,0.0,1.2669,0.0,0.0,0.0,2.3513,2.5843,2.7012,2.7398,2.7762,2.8147,2.8438,2.8165,2.8322,2.8628,2.8226,2.8482,2.9003,2.9058,2.9161,2.9263,2.9263,2.9288,2.938,2.965,2.9743,2.9717,2.9595,2.9513,2.9188,2.8165,2.7565,2.7217,2.7235,2.6355,2.4129,1.9221,1.3164,0.0,0.0,0.0,0.0,0.0,0.0,0.0,0.0,0.0,0.0,0.0,0.0,0.0,0.0,0.0,0.0,0.0,0.0,0.0,0.0,0.0,0.0,0.0,0.0,0.0,3.2788,3.3751,3.4594,3.5285,3.4845,3.4883,3.5304,3.5304,3.5304,3.5289,3.5174,3.4944,3.4674,3.4508,3.4165,3.3807,3.3807,3.3293,3.2485,0.0,1.8467,0.0,0.0,2.3011,0.0,2.7241,2.9816,3.0243,2.6775,2.6328,2.6094,2.5487,2.7359,2.8463,2.7845,2.7137,2.6669,2.651,2.4343,2.2698,2.196,1.9432,1.769,1.6978,1.6014,1.3514,0.0,0.0,0.0,0.0,0.6421,0.7462,0.0,0.0,0.0,0.0,0.0,2.4106,2.4676,2.7147,2.8482,2.8929,2.8438,2.859,2.9048,2.8662,2.8956,2.9476,2.9187,2.9401,2.9765,2.9713,2.9746,2.981,2.981,2.9842,2.9939,3.0221,3.0264,3.0204,2.9945,2.9836,2.9679,2.926,2.8752,2.8502,2.8942,2.799,2.5431,2.0014,1.6194,0.0,0.0,0.0,0.0,0.0,0.0,0.0,0.0,0.0,0.0,0.0,0.0,0.0,0.0,0.0,0.0,0.0,0.0,0.0,0.0,0.0,0.0,3.1634,0.0,3.2604,0.0,3.4247,3.4773,3.5488,3.4795,3.4853,3.5493,3.5493,3.5479,3.5383,3.5122,3.4851,3.4572,3.4292,3.4043,3.3807,3.3807,3.3331,3.2619,0.0,0.0,0.0,0.0,0.0,0.0,0.0,3.0753,3.1934,3.0768,3.0634,3.0403,2.9798,2.9468,2.9088,2.8463,2.7845,2.7188,2.6563,2.525,2.417,2.3434,2.0875,1.9688,2.006,1.7617,1.5555,0.0,0.0,0.0,0.0,0.6781,0.7784,0.0,0.0,0.0,0.0,2.2761,2.5177,2.8005,2.864,2.8929,2.9017,2.9185,2.9312,2.9373,2.9514,2.9727,2.995,3.0043,3.0021,2.9939,2.9765,2.9897,3.0163,3.0163,3.0163,3.0217,3.0494,3.0527,3.0487,3.0513,3.0476,3.0401,3.0347,3.0157,2.9996,3.0042,2.9141,2.7022,2.2788,2.1032,1.8631,0.0,0.0,0.0,0.0,0.0,0.0,0.0,0.0,0.0,0.0,0.0,0.0,0.0,0.0,0.0,0.0,0.0,0.0,0.0,0.0,2.8764,2.6597,3.1466,0.0,3.1642,3.3933,3.5197,3.5507,3.543,3.543,3.5493,3.5493,3.5369,3.5122,3.4851,3.4551,3.4246,3.42,3.4043,3.3807,3.3807,3.3524,3.3085,0.0,0.0,0.0,0.0,0.0,0.0,0.0,3.1833,3.2282,3.164,3.1565,3.1261,3.0377,2.9761,2.9316,2.9042,2.8174,2.766,2.7715,2.6138,2.5092,2.4787,2.2275,2.1028,2.1468,1.961,1.7772,0.0,0.0,0.0,0.0,0.0,0.0,0.0,0.0,2.0238,2.2456,2.523,2.7173,2.8446,2.9012,2.9225,2.9267,2.9475,2.957,2.9607,2.9897,3.0054,3.0138,3.0375,3.0376,3.0282,3.0257,3.0337,3.0432,3.0393,3.0403,3.0422,3.0372,3.0339,3.0292,3.0201,3.0247,3.0335,3.0374,3.0384,3.0388,3.0435,2.9767,2.8404,2.592,2.3492,2.1832,0.0,0.0,0.0,0.0,0.0,0.0,0.0,0.0,0.0,0.0,0.0,0.0,0.0,0.0,0.0,0.0,0.0,0.0,2.6347,0.0,3.1242,2.8146,3.2521,3.4338,3.3586,3.4772,3.5403,3.5493,3.5493,3.5398,3.5273,3.5273,3.5105,3.4851,3.4529,3.4334,3.4176,3.4018,3.3902,3.3762,3.3522,3.3332,3.313,2.4529,0.0,2.5863,0.0,2.917,3.0016,3.2501,3.2777,3.255,3.2057,3.1897,3.1401,3.0418,2.9761,2.9316,2.9134,2.8174,2.776,2.8189,2.6753,2.5885,2.5885,2.3722,0.0,2.307,2.1763,2.0421,1.9108,1.6812,0.0,0.0,1.4332,0.0,0.0,2.201,2.3674,2.4278,2.7266,2.8603,2.8724,2.9275,2.9495,2.9551,2.9758,2.9867,2.9918,3.0224,3.0298,3.0313,3.0531,3.057,3.0511,3.0555,3.0564,3.0554,3.0518,3.0526,3.0531,3.0333,3.0221,3.0107,2.9972,3.0049,3.0163,3.0207,3.0358,3.0521,3.0585,3.0214,2.9536,2.8334,2.613,2.4867,2.602,0.0,0.0,0.0,0.0,0.0,0.0,0.0,0.0,0.0,0.0,0.0,0.0,0.0,0.0,0.0,0.0,0.0,0.0,0.0,0.0,0.0,3.3312,3.5105,3.5105,3.5369,3.5493,3.5493,3.5493,3.5354,3.5105,3.5035,3.4813,3.4529,3.4195,3.4074,3.4068,3.3876,3.3807,3.378,3.3494,3.3302,3.3184,2.6453,2.6133,2.6688,3.0258,3.0525,3.1067,3.3433,3.3465,3.3014,3.255,3.2092,3.1401,3.0418,2.9761,2.9134,2.8559,2.7944,2.7625,2.7625,2.6961,2.6587,0.0,0.0,2.4918,2.5451,2.4027,2.35,2.3984,0.0,0.0,2.1538,2.0222,2.0677,2.2573,2.3122,2.4993,2.7688,2.8458,2.9027,2.9412,2.9607,2.9737,2.9818,3.01,3.0248,3.0313,3.051,3.055,3.0504,3.0584,3.0562,3.0494,3.0497,3.0507,3.0501,3.0501,3.05,3.0507,3.0507,3.0237,3.0013,3.0013,3.0013,3.0013,3.0013,3.0267,3.0515,3.0581,3.0586,3.0378,2.9698,2.9537,2.8036,2.3563,0.0,0.0,0.0,0.0,0.0,0.0,1.945,1.7568,2.6596,0.0,0.0,0.0,0.0,0.0,0.0,0.0,0.0,3.0217,3.0981,0.0,3.0009,3.3391,3.5105,3.5105,3.5369,3.5493,3.5493,3.5493,3.5354,3.5088,3.4813,3.4529,3.4195,3.3928,3.3788,3.3788,3.3807,3.3807,3.3807,3.3788,3.355,3.3243,2.7754,2.8603,2.9653,3.099,3.2037,3.294,3.3688,3.3465,3.3045,3.255,3.2092,3.1379,3.0269,2.9701,2.9496,0.0,2.8448,2.776,0.0,2.8023,2.7915,2.7915,2.7084,2.666,2.6796,2.5893,2.5478,2.5586,0.0,0.0,0.0,2.4328,2.5341,2.7209,2.8059,2.8452,2.8476,2.8986,2.9358,2.9625,2.9927,3.0056,3.0093,3.0373,3.0501,3.0503,3.0573,3.0598,3.0566,3.0596,3.0569,3.049,3.0506,3.0541,3.0555,3.0503,3.0402,3.0252,3.0013,2.9777,2.9551,2.9358,2.9456,2.9644,2.9763,3.0164,3.0513,3.0529,3.0579,3.0525,3.0318,3.0161,2.9582,2.8096,2.9636,0.0,0.0,0.0,0.0,0.0,0.0,1.8093,0.0,0.0,0.0,0.0,0.0,0.0,0.0,0.0,0.0,0.0,3.1632,0.0,3.0298,3.3667,3.5369,3.5369,3.5446,3.5493,3.5493,3.5304,3.5088,3.4813,3.4489,3.4195,3.3928,3.3842,3.3807,3.3807,3.3807,3.3807,3.378,3.3494,3.3302,3.3184,2.8565,2.9948,3.1154,3.1359,3.2724,3.3734,3.3606,3.3196,3.2777,3.2316,3.1636,3.0888,3.0197,2.9222,0.0,2.9512,2.8341,2.776,2.814,2.8121,2.82,2.8511,2.8061,2.7921,2.8148,0.0,0.0,2.706,2.629,2.6502,2.7648,2.8201,2.9017,3.0016,3.0638,3.0234,2.9163,2.9495,2.9729,2.9912,3.0206,3.0347,3.0405,3.0573,3.0681,3.0703,3.07,3.066,3.0601,3.0594,3.0474,3.0312,3.0312,3.0295,3.0278,3.0304,3.0225,3.0068,2.978,2.9551,2.9372,2.9181,2.9267,2.9455,2.9746,3.0073,3.0344,3.0461,3.0528,3.056,3.056,3.0456,3.0349,3.0287,3.0558,3.0488,2.9664,0.0,0.0,0.0,0.0,0.0,0.0,2.0069,0.0,0.0,0.0,0.0,0.0,0.0,0.0,2.9123,3.3306,0.0,3.2377,3.4448,3.5515,3.554,3.5515,3.5446,3.5335,3.519,3.4889,3.4508,3.4288,3.4043,3.3807,3.3807,3.3707,3.3578,3.3578,3.3465,3.3284,3.3045,3.3045,3.3154,2.8994,3.0301,0.0,0.0,3.2724,0.0,3.3273,3.2809,3.235,3.1861,3.0851,3.0121,3.007,2.8452,2.7614,2.8136,0.0,0.0,0.0,2.7468,2.7767,2.8466,2.8392,2.8682,2.9355,2.9371,2.9062,2.8383,2.8944,2.9822,3.1006,3.1541,3.1576,3.1151,3.1151,3.0639,2.9823,2.9943,3.0087,3.0232,3.0424,3.0587,3.0696,3.0718,3.0792,3.0898,3.0898,3.0757,3.0606,3.06,3.0337,3.0028,3.0028,2.9893,2.9746,2.9939,2.9969,2.9924,2.9731,2.9532,2.9372,2.9372,2.9392,2.9494,2.9877,2.9969,3.0065,3.0404,3.0461,3.0479,3.0494,3.0492,3.0462,3.0407,3.017,2.9273,2.7265,0.0,0.0,0.0,0.0,0.0,0.0,2.5736,2.8164,0.0,0.0,0.0,0.0,0.0,2.7684,3.5369,3.5591,3.5611,3.5611,3.5528,3.5528,3.559,3.5528,3.5369,3.5105,3.5088,3.4736,3.42,3.4176,3.4018,3.3807,3.3807,3.3578,3.3243,3.3214,3.2952,3.255,3.2517,3.2809,3.3214,0.0,0.0,3.1384,3.1384,3.2724,3.368,3.3273,3.2809,3.235,3.1861,3.1295,3.0544,2.953,2.8656,2.7806,2.6951,2.6837,2.6826,2.6826,2.7596,2.8211,2.8414,2.8773,2.9066,2.923,2.9246,2.9218,2.9221,2.9346,2.9918,3.0871,3.1617,3.1855,3.1634,3.1626,3.1369,3.0887,3.0251,3.0171,3.0452,3.054,3.0633,3.0718,3.0816,3.0878,3.0898,3.0772,3.0673,3.0594,3.0545,3.0433,3.0311,3.0311,3.0122,2.9908,2.9796,2.9661,2.9532,2.9474,2.9289,2.9089,2.9089,2.9246,2.9414,2.9532,2.9661,2.9845,3.0079,3.0213,3.0326,3.0479,3.0423,3.0323,3.0266,2.8896,2.7569,2.6799,2.5388,0.0,0.0,2.1789,2.298,2.6656,2.7319,2.7818,0.0,0.0,0.0,0.0,2.9265,3.0914,3.5527,3.5621,3.5611,3.5611,3.5528,3.5501,3.5522,3.5501,3.5369,3.5088,3.4889,3.4593,3.4176,3.3986,3.3868,3.3807,3.3807,3.3734,3.3625,3.3302,3.3154,3.2983,3.2616,3.2809,3.3214,2.8994,3.0301,3.1384,3.1384,3.2724,3.3578,3.2965,3.2648,3.2159,3.1139,3.0551,2.9758,2.8665,2.7827,2.7106,2.6649,2.6576,2.6487,2.6487,2.7569,2.8207,2.8264,2.8808,2.9197,2.9336,2.9336,2.9483,2.9787,2.9438,2.9801,3.0818,3.1621,3.1986,3.1989,3.2381,3.2146,3.1454,3.1015,3.0712,3.054,3.0628,3.0703,3.0793,3.0878,3.0898,3.0898,3.0816,3.0703,3.06,3.0547,3.0404,3.0196,3.0114,2.9912,2.9678,2.9456,2.9375,2.9372,2.9246,2.9112,2.8994,2.8994,2.9112,2.9246,2.9372,2.9474,2.9626,2.9813,2.9916,2.9994,3.0107,3.0062,3.0017,2.998,2.8299,2.6837,2.6301,2.4606,0.0,2.4276,2.4134,2.5313,2.8686,2.9506,2.9806,2.978,0.0,0.0,3.1694,3.2402,3.3734,3.5724,3.5694,3.5657,3.5657,3.5588,3.5528,3.5493,3.5493,3.5289,3.4908,3.4773,3.4442,3.3993,3.385,3.3807,3.3807,3.3807,3.3707,3.3494,3.3273,3.3075,3.2809,3.2332,3.2598,3.3184,2.8994,3.0301,3.1384,3.1384,3.2672,3.3447,3.2616,3.2345,3.1725,3.0289,2.9448,2.8685,2.7955,2.6842,2.6336,2.6738,2.6538,2.6377,2.6355,2.7356,2.7931,2.7948,2.8589,2.904,2.9332,2.9278,2.9438,2.9844,2.9201,2.9469,3.0541,3.1345,3.19,3.2241,3.2901,3.2721,3.1884,3.1815,3.1335,3.0592,3.0669,3.0769,3.0898,3.0898,3.0898,3.0898,3.0879,3.0755,3.06,3.0587,3.0346,3.0013,2.9813,2.9607,2.9394,2.9134,2.9181,2.9289,2.9044,2.8994,2.8994,2.8994,2.8994,2.9044,2.9289,2.9351,2.9394,2.9626,2.9643,2.9661,2.9696,2.9678,2.949,2.8974,2.7542,2.6196,2.5297,0.0,2.4167,2.6254,2.6877,2.8071,3.047,3.1465,3.2254,3.2946,3.3919,3.4784,0.0,3.5641,3.5755,3.5869,3.5761,3.5696,3.5682,3.5648,3.5577,3.5493,3.5446,3.519,3.4694,3.4653,3.4284,3.3707,3.3707,3.368,3.3606,3.3606,3.3447,3.3184,3.3105,3.2872,3.255,3.2057,3.2466,3.3136,2.8994,3.0301,3.1384,3.1384,3.2447,3.3105,3.2583,3.1635,3.0767,3.0183,2.9448,2.876,2.8103,2.7366,2.6744,2.6334,2.6172,2.6102,2.6236,2.6772,2.7137,2.7229,2.8048,2.8539,2.8555,2.829,2.8319,2.8676,2.855,2.8768,2.9308,3.0094,3.1084,3.2222,3.2336,3.2507,3.266,3.1992,3.1284,3.0606,3.0617,3.0726,3.0898,3.0898,3.0898,3.0898,3.0771,3.0669,3.0594,3.0537,3.0433,3.0299,3.0032,2.9813,2.9607,2.9394,2.9222,2.9044,2.9017,2.8994,2.8994,2.8994,2.8994,2.9017,2.9044,2.9044,2.9134,2.9394,2.9454,2.9494,2.9661,2.9551,2.8502,2.5614,2.4852,2.4069,2.2553,0.0,2.5439,2.7193,2.8974,3.0228,3.0652,3.1397,3.1919,3.2101,3.3487,3.442,3.4661,3.5334,3.571,3.5723,3.571,3.5667,3.5621,3.5663,3.5611,3.5493,3.5273,3.4999,3.4694,3.4401,3.3931,3.3302,3.3302,3.3075,3.2713,3.2713,3.2921,3.3154,3.2745,3.2809,3.3045,3.2583,3.2745,3.3184,2.9567,3.0595,3.1384,3.1384,3.2392,3.2901,3.2048,3.1199,3.0265,2.8994,2.8569,2.8089,2.7437,2.7086,2.6762,2.6491,2.641,2.6395,2.6475,2.7055,2.7341,2.7199,2.7977,2.8397,2.8411,2.8461,2.8558,2.8707,2.8707,2.8892,2.9222,3.0035,3.1121,3.2435,3.2874,3.3268,3.3558,3.2744,3.1942,3.12,3.0808,3.0707,3.0793,3.0878,3.0898,3.0879,3.0745,3.0665,3.0594,3.0521,3.0452,3.0323,2.9958,2.9845,2.978,2.9332,2.9089,2.8994,2.8994,2.8994,2.8994,2.8994,2.8994,2.8994,2.8994,2.8994,2.904,2.9156,2.9181,2.9225,2.9314,2.9249,2.8386,2.5942,2.5657,0.0,2.4869,2.5869,2.7301,2.9004,3.0085,3.0687,3.0657,3.0862,3.1234,3.1857,3.2721,3.35,3.4148,3.4802,3.5218,3.5367,3.5599,3.5679,3.5591,3.563,3.56,3.5493,3.5223,3.4963,3.4694,3.4357,3.381,3.3214,3.3214,3.2952,3.2484,3.2484,3.2777,3.3184,3.2952,3.3136,3.3465,3.3045,3.3136,3.3494,3.032,3.1127,3.1653,3.1558,3.2244,3.2437,3.1405,3.054,2.9471,2.7995,2.7637,2.7334,2.6759,2.6691,2.6758,2.6841,2.6758,2.6758,2.6841,2.7352,2.757,2.7321,2.8014,2.8452,2.8558,2.8839,2.8994,2.8994,2.8994,2.9134,2.9412,3.0025,3.1148,3.2638,3.3252,3.3781,3.4154,3.3319,3.2512,3.1736,3.0989,3.0687,3.0718,3.0857,3.0879,3.0837,3.0716,3.0624,3.0561,3.0498,3.04,3.0241,2.9896,2.9813,2.9763,2.923,2.9044,2.8994,2.8994,2.8929,2.8863,2.8863,2.8863,2.8863,2.8863,2.8863,2.8863,2.8863,2.8791,2.8767,2.8839,2.8863,2.8252,2.6375,0.0,2.7051,2.6926,2.7539,2.8648,3.0419,3.0628,3.0619,3.0515,3.0345,3.0559,3.1329,3.1941,3.2648,3.3465,3.4262,3.4813,3.5114,3.5505,3.5679,3.5591,3.5621,3.5557,3.5398,3.5157,3.4851,3.4572,3.4242,3.3723,3.3045,3.3045,3.2713,3.2231,3.2316,3.2616,3.3045,3.3154,3.3465,3.3762,3.3447,3.3522,3.3762,3.1146,3.1971,3.2399,3.2025,3.1727,3.1338,3.0836,2.9196,2.7978,2.7841,2.7215,2.6759,2.6708,2.6691,2.6841,2.7224,2.6906,2.6873,2.7241,2.7324,2.7324,2.7303,2.8,2.8569,2.8952,2.8975,2.8994,2.8994,2.8994,2.9134,2.9412,2.9468,3.0584,3.26,3.2657,3.3259,3.4141,3.3288,3.2486,3.1727,3.0925,3.0633,3.0718,3.0857,3.0817,3.0713,3.0638,3.0561,3.0498,3.0439,3.0235,3.0013,2.9984,2.9729,2.9434,2.9392,2.9181,2.8994,2.8994,2.8725,2.8446,2.8446,2.8446,2.8446,2.8446,2.8446,2.8446,2.8446,2.8183,2.8093,2.8394,2.8446,2.757,2.4904,0.0,0.0,2.5619,2.6874,2.8594,3.0462,3.0594,3.0442,3.0254,3.0107,2.9984,2.9853,3.1315,3.2241,3.2316,3.3827,3.485,3.5191,3.5514,3.5679,3.5591,3.5663,3.5503,3.5122,3.487,3.4551,3.4242,3.3961,3.3372,3.255,3.255,3.2092,3.1329,3.1696,3.2127,3.2583,3.3045,3.3465,3.3807,3.378,3.3762,3.3807,3.1898,3.199,3.1741,3.1391,3.1356,3.0917,2.9567,2.8459,2.762,2.7182,2.686,2.6691,2.6691,2.6939,2.7147,2.7303,2.7378,2.75,2.7648,2.7862,2.7984,2.7984,2.8489,2.8839,2.8994,2.8994,2.8994,2.8994,2.8994,2.9185,2.9589,2.9589,3.0722,3.2779,3.2779,3.3607,3.4911,3.3506,3.2736,3.2362,3.1103,3.0623,3.0657,3.0835,3.0878,3.0793,3.0648,3.0581,3.0552,3.0449,3.0323,3.0209,3.0042,2.9893,2.9731,2.9455,2.9203,2.8994,2.8994,2.8725,2.8394,2.8394,2.8237,2.8102,2.8102,2.8102,2.8102,2.8102,2.8156,2.8183,2.8102,2.8464,2.8033,2.5725,0.0,2.8261,2.6817,2.8217,2.9647,3.0308,3.0199,3.0017,2.9897,2.9746,2.9739,2.9979,3.0831,3.1483,3.1861,3.3235,3.4289,3.4867,3.5213,3.5463,3.5611,3.5621,3.5454,3.5105,3.4832,3.4529,3.4176,3.391,3.3314,3.2484,3.2484,3.2144,3.1603,3.1716,3.2264,3.2952,3.3154,3.3465,3.3807,3.3807,3.3807,3.3807,3.2008,3.1693,3.1109,3.0754,3.0569,2.9986,2.8505,2.7811,2.7283,2.6759,2.6808,2.6906,2.6906,2.7241,2.753,2.7631,2.7794,2.7936,2.8047,2.8264,2.8446,2.859,2.8863,2.8994,2.8994,2.8994,2.8994,2.8994,2.8994,2.923,2.9696,2.9644,3.0655,3.2526,3.2724,3.3646,3.5007,3.3814,3.3141,3.2781,3.1515,3.0833,3.0623,3.0813,3.0878,3.0814,3.0667,3.0587,3.054,3.043,3.0336,3.0254,3.015,3.0013,2.9829,2.9395,2.9052,2.8815,2.8815,2.8438,2.8084,2.8192,2.7992,2.7707,2.7707,2.7707,2.7707,2.7707,2.789,2.8029,2.7926,2.8386,2.8429,2.7251,2.8555,2.9325,2.8305,2.9294,3.0128,3.0081,2.9889,2.968,2.9439,2.9299,2.9385,2.98,3.0315,3.1004,3.1888,3.3002,3.387,3.4454,3.4933,3.5295,3.5574,3.5508,3.5315,3.4963,3.4675,3.4398,3.4068,3.3876,3.3314,3.2517,3.2648,3.2316,3.1623,3.2057,3.2533,3.3014,3.3273,3.355,3.3807,3.3807,3.3807,3.3807,3.1384,3.1128,3.0754,3.026,2.9253,2.8349,2.7877,2.7165,2.6691,2.6691,2.7051,2.7286,2.7286,2.7648,2.802,2.8368,2.8102,2.8047,2.8376,2.8402,2.859,2.8975,2.8994,2.8994,2.8994,2.8994,2.8994,2.8994,2.8994,2.923,2.9696,2.9494,3.022,3.1725,3.2331,3.3202,3.4199,3.4199,3.3699,3.2839,3.2175,3.1378,3.0623,3.0813,3.0816,3.069,3.0614,3.0567,3.0481,3.0417,3.0222,3.0061,3.0311,3.0066,2.9607,2.9138,2.8707,2.8394,2.8394,2.7862,2.7396,2.7811,2.7589,2.7303,2.7303,2.7303,2.7303,2.7303,2.7303,2.7409,2.7811,2.8183,2.8621,2.9272,2.9458,2.9572,2.9775,2.9804,2.9804,2.9804,2.9718,2.9458,2.8842,2.8815,2.8857,2.8989,2.9743,3.0875,3.2396,3.3187,3.3707,3.3995,3.4718,3.5223,3.5493,3.5295,3.5031,3.4713,3.4357,3.4068,3.3807,3.3807,3.3314,3.2517,3.3014,3.2451,3.1329,3.2648,3.2921,3.2583,3.3476,3.3807,3.3807,3.3807,3.3807,3.3807,3.1384,3.0636,2.9872,2.9503,2.8917,2.8176,2.7182,2.7076,2.7115,2.7115,2.747,2.7725,2.7725,2.8047,2.829,2.8394,2.8583,2.87,2.8797,2.8815,2.8863,2.8994,2.8994,2.8994,2.8994,2.8994,2.8994,2.8994,2.8994,2.923,2.9696,2.9494,3.022,3.1725,3.2331,3.3202,3.4199,3.4199,3.3723,3.2917,3.2178,3.1412,3.068,3.0836,3.0879,3.0814,3.0667,3.0587,3.054,3.043,3.0355,3.0241,2.9992,2.9815,2.9551,2.8795,2.8496,2.8368,2.8102,2.7678,2.7317,2.7439,2.7178,2.6873,2.6873,2.6873,2.6873,2.6873,2.7115,2.7334,2.7457,2.7974,2.8471,2.867,2.9114,2.9457,2.9514,2.9287,2.919,2.9476,2.9077,2.8712,2.8535,2.9036,2.9366,2.9353,3.0317,3.1212,3.1969,3.2212,3.2773,3.3681,3.412,3.4622,3.5207,3.5165,3.4996,3.4713,3.4357,3.4068,3.3807,3.3807,3.3504,3.3014,3.3154,3.2983,3.2616,3.3045,3.3273,3.3447,3.3707,3.3807,3.3807,3.3807,3.3807,3.3762,3.0503,2.9744,2.9071,2.8854,2.8511,2.7948,2.7055,2.7272,2.747,2.7334,2.7765,2.8102,2.8102,2.8412,2.8633,2.8633,2.8863,2.8994,2.8994,2.8994,2.8994,2.8994,2.8994,2.8994,2.8994,2.8994,2.8994,2.8994,2.8994,2.923,2.9696,2.9375,2.9925,3.1225,3.2084,3.2917,3.3731,3.4448,3.4075,3.2977,3.2603,3.1757,3.0718,3.0857,3.0898,3.0878,3.0672,3.0606,3.0581,3.0441,3.0398,3.033,2.9848,2.9696,2.9532,2.8658,2.8316,2.8129,2.7765,2.7348,2.7051,2.7051,2.6873,2.6691,2.6691,2.6691,2.6691,2.6691,2.7019,2.7303,2.7303,2.7901,2.8394,2.8394,2.8742,2.8997,2.8997,2.8664,2.8524,2.8772,2.8453,2.8237,2.8372,2.8852,2.9294,2.9694,3.0649,3.1329,3.1528,3.1897,3.2444,3.3313,3.379,3.4352,3.4944,3.4813,3.4735,3.4694,3.4242,3.3961,3.3807,3.3807,3.3578,3.3214,3.3361,3.3225,3.2952,3.3302,3.3494,3.3578,3.3734,3.3807,3.3807,3.3807,3.3707,3.3522,2.914,2.8682,2.8394,2.8394,2.8129,2.7783,2.7409,2.7678,2.7794,2.7439,2.8029,2.8446,2.8446,2.8773,2.8994,2.8994,2.8994,2.8994,2.8994,2.8994,2.8994,2.8994,2.8994,2.8994,2.8994,2.8994,2.8994,2.8994,2.8994,2.923,2.9696,2.9228,2.9476,3.0432,3.1656,3.2447,3.2994,3.4812,3.4642,3.3151,3.3336,3.2371,3.086,3.0975,3.0957,3.0857,3.0672,3.06,3.0568,3.0441,3.0379,3.0286,2.9832,2.966,2.9439,2.8591,2.8102,2.7754,2.7365,2.7004,2.6691,2.6691,2.6691,2.6691,2.6691,2.6691,2.6691,2.6691,2.7004,2.7272,2.7317,2.789,2.8368,2.8394,2.8394,2.8394,2.8368,2.8075,2.7886,2.7986,2.7975,2.8099,2.8464,2.8522,2.9025,3.0129,3.0818,3.119,3.119,3.1986,3.2577,3.2853,3.3692,3.4292,3.4653,3.4357,3.4357,3.4653,3.4062,3.3807,3.3807,3.3807,3.3606,3.3273,3.3634,3.3343,3.2681,3.3476,3.3578,3.3302,3.3652,3.3807,3.3807,3.3807,3.355,3.3184,2.914,2.8682,2.8394,2.8394,2.8129,2.7869,2.7765,2.8075,2.8246,2.8166,2.8583,2.8863,2.8863,2.8952,2.8994,2.8994,2.8994,2.8994,2.8994,2.8994,2.8994,2.8994,2.8994,2.8994,2.8994,2.8994,2.8994,2.8994,2.8994,2.923,2.9696,2.9228,2.9378,3.0152,3.1571,3.2364,3.279,3.4759,3.5039,3.4178,3.4272,3.3341,3.1874,3.1914,3.1423,3.074,3.0638,3.0561,3.0516,3.0428,3.0254,3.0047,2.978,2.9381,2.8883,2.8201,2.7736,2.7317,2.6939,2.6758,2.6691,2.6691,2.6691,2.6691,2.6691,2.6691,2.6691,2.6691,2.6791,2.7019,2.7648,2.7897,2.8102,2.8368,2.8394,2.8316,2.8047,2.7678,2.7757,2.8653,2.8483,2.8563,2.921,2.9537,3.0085,3.0886,3.1106,3.119,3.119,3.1677,3.2144,3.2577,3.3312,3.3926,3.4292,3.4242,3.4242,3.4292,3.3961,3.3807,3.3807,3.3807,3.3734,3.3662,3.3762,3.3707,3.3532,3.3734,3.3734,3.368,3.378,3.3807,3.3807,3.3807,3.355,3.3075,2.9067,2.8839,2.8682,2.8682,2.8533,2.836,2.8156,2.8464,2.8633,2.842,2.8749,2.8994,2.8994,2.8994,2.8994,2.8994,2.8994,2.8994,2.8994,2.8994,2.8994,2.8994,2.8994,2.8994,2.8994,2.8994,2.8994,2.8994,2.8994,2.9185,2.9533,2.9163,2.9358,3.0056,3.1553,3.2397,3.2881,3.4789,3.5174,3.4517,3.4569,3.3639,3.2207,3.2207,3.1577,3.069,3.0614,3.0537,3.0451,3.0414,3.0209,2.9969,2.9763,2.9283,2.8699,2.8084,2.7636,2.721,2.6808,2.6691,2.6691,2.6691,2.6691,2.6691,2.6691,2.6691,2.6691,2.6691,2.6691,2.6841,2.7241,2.747,2.7678,2.7862,2.789,2.7929,2.8127,2.7777,2.7908,2.8864,2.8818,2.899,2.9708,3.0309,3.0784,3.1157,3.119,3.119,3.119,3.1565,3.2039,3.2484,3.3094,3.3597,3.3993,3.3993,3.3993,3.3993,3.3868,3.3807,3.3807,3.3807,3.3807,3.3807,3.3807,3.3807,3.3807,3.3807,3.3807,3.3807,3.3807,3.3807,3.3807,3.3807,3.339,3.2745,2.8994,2.8994,2.8994,2.8994,2.8994,2.8905,2.8565,2.8791,2.8863,2.854,2.8797,2.8994,2.8994,2.8994,2.8994,2.8994,2.8994,2.8994,2.8994,2.8994,2.8994,2.8994,2.8994,2.8994,2.8994,2.8994,2.8994,2.8994,2.9062,2.9203,2.9454,2.9206,2.9418,3.0056,3.1436,3.2365,3.2961,3.4679,3.5133,3.4718,3.4796,3.3955,3.2637,3.2637,3.2005,3.1106,3.09,3.064,3.0398,3.0355,3.015,2.9924,2.9713,2.9182,2.8555,2.8057,2.7577,2.7115,2.6791,2.6691,2.6725,2.686,2.6793,2.6725,2.686,2.6793,2.6691,2.6691,2.6691,2.6725,2.6791,2.7083,2.7338,2.7476,2.7494,2.7739,2.842,2.8203,2.8315,2.9076,2.9279,2.9617,3.0226,3.0835,3.119,3.119,3.119,3.119,3.119,3.1565,3.1986,3.2384,3.2903,3.3361,3.3707,3.3707,3.3707,3.3707,3.3707,3.3734,3.3807,3.3807,3.3807,3.3807,3.3807,3.3807,3.3807,3.3807,3.3807,3.3807,3.3807,3.3807,3.3762,3.3634,3.3057,3.2282,2.8994,2.8994,2.8994,2.8994,2.8994,2.8994,2.8929,2.897,2.8994,2.8929,2.897,2.8994,2.8994,2.8994,2.8994,2.8994,2.8994,2.8994,2.8994,2.8994,2.8994,2.8994,2.8994,2.8994,2.8994,2.8994,2.8994,2.8994,2.9225,2.9455,2.9661,2.9625,2.9746,3.0037,3.0994,3.1882,3.2732,3.408,3.4996,3.5541,3.5747,3.5234,3.4355,3.4355,3.3732,3.2764,3.1993,3.1144,3.0367,3.0136,2.9908,2.9713,2.9494,2.8777,2.802,2.7908,2.7348,2.6791,2.6725,2.6691,2.6843,2.7503,2.7182,2.686,2.752,2.7165,2.6691,2.6691,2.6691,2.6825,2.7147,2.7255,2.7511,2.8155,2.8259,2.8404,2.8847,2.8859,2.911,2.9871,3.0514,3.0937,3.1038,3.114,3.119,3.119,3.119,3.119,3.119,3.1565,3.1825,3.188,3.2727,3.3214,3.3273,3.3273,3.3273,3.3273,3.3273,3.3465,3.3807,3.3807,3.3807,3.3807,3.3807,3.3807,3.3807,3.3807,3.3807,3.3807,3.3807,3.3807,3.3707,3.2965,3.2332,3.1825,2.8994,2.8994,2.8994,2.8994,2.8994,2.8994,2.8994,2.8994,2.8994,2.8994,2.8994,2.8994,2.8994,2.8994,2.8994,2.8994,2.8994,2.8994,2.8994,2.8994,2.8994,2.8994,2.8994,2.8994,2.8994,2.8994,2.8994,2.8994,2.9267,2.9454,2.9514,2.9643,2.9813,3.0056,3.142,3.2301,3.287,3.4458,3.5349,3.5717,3.5887,3.5445,3.4707,3.4661,3.4039,3.3083,3.2141,3.1094,3.015,3.0028,2.978,2.9513,2.9414,2.87,2.7897,2.7897,2.7317,2.6691,2.6691,2.6996,2.7332,2.7297,2.7374,2.7578,2.7894,2.7727,2.7451,2.7332,2.7672,2.803,2.822,2.8254,2.8374,2.8664,2.8733,2.8935,2.9536,2.96,2.9888,3.0632,3.1004,3.119,3.119,3.119,3.119,3.119,3.119,3.119,3.119,3.1389,3.1565,3.1789,3.2196,3.2663,3.3184,3.2952,3.2952,3.3184,3.2952,3.3045,3.3465,3.3707,3.3807,3.3807,3.3807,3.3807,3.3807,3.3807,3.3807,3.3807,3.3807,3.368,3.3361,3.2433,3.1986,3.1752]}]]